[[{"header":{"parameterUnit":"m.s-1","parameterCategory":1,"la1":30.6,"la2":28.766,"lo1":-90.7593,"lo2":-88.6598,"dy":0.0162,"dx":0.0183,"nx":116,"ny":114,"refTime":"2023-06-01T12:00:00:Z","depth":0,"parameterNumber":2,"parameterNumberName":"U-component_of_WINDS"},"data":[0.0,0.0,0.0,0.0,0.0,0.0,0.0,0.0,0.0,0.0,0.0,0.0,0.0,0.0,0.0,0.0,0.0,0.0,0.0,0.0,0.0,0.0,0.0,0.0,0.0,0.0,0.0,0.0,0.0,0.0,0.0,0.0,0.0,0.0,0.0,0.0,0.0,0.0,0.0,0.0,0.0,0.0,0.0,0.0,0.0,0.0,0.0,0.0,0.0,0.0,0.0,0.0,0.0,0.0,0.0,0.0,0.0,0.0,0.0,0.0,0.0,0.0,0.0,0.0,0.0,0.0,0.0,0.0,0.0,0.0,0.0,0.0,0.0,0.0,0.0,0.0,0.0,0.0,0.0,0.0,0.0,0.0,0.0,0.0,0.0,0.0,0.0,0.0,0.0,0.0,0.0,0.0,0.0,0.0,0.0,0.0,0.0,0.0,0.0,0.0,0.0,0.0,0.0,0.0,0.0,0.0,0.0,0.0,0.0,0.0,0.0,0.0,0.0,0.0,0.0,0.0,0.0,0.0,0.0,0.0,0.0,0.0,0.0,0.0,0.0,0.0,0.0,0.0,0.0,0.0,0.0,0.0,0.0,0.0,0.0,0.0,0.0,0.0,0.0,0.0,0.0,0.0,0.0,0.0,0.0,0.0,0.0,0.0,0.0,0.0,0.0,0.0,0.0,0.0,0.0,0.0,0.0,0.0,0.0,0.0,0.0,0.0,0.0,0.0,0.0,0.0,0.0,0.0,0.0,0.0,0.0,0.0,0.0,0.0,0.0,0.0,0.0,0.0,0.0,0.0,0.0,0.0,0.0,0.0,0.0,0.0,0.0,0.0,0.0,0.0,0.0,0.0,0.0,0.0,0.0,0.0,0.0,0.0,0.0,0.0,0.0,0.0,0.0,0.0,0.0,0.0,0.0,0.0,0.0,0.0,0.0,0.0,0.0,0.0,0.0,0.0,0.0,0.0,0.0,0.0,0.0,0.0,0.0,0.0,0.0,0.0,0.0,0.0,0.0,0.0,0.0,0.0,0.0,0.0,0.0,0.0,0.0,0.0,0.0,0.0,0.0,0.0,0.0,0.0,0.0,0.0,0.0,0.0,0.0,0.0,0.0,0.0,0.0,0.0,0.0,0.0,0.0,0.0,0.0,0.0,0.0,0.0,0.0,0.0,0.0,0.0,0.0,0.0,0.0,0.0,0.0,0.0,0.0,0.0,0.0,0.0,0.0,0.0,0.0,0.0,0.0,0.0,0.0,0.0,0.0,0.0,0.0,0.0,0.0,0.0,0.0,0.0,0.0,0.0,0.0,0.0,0.0,0.0,0.0,0.0,0.0,0.0,0.0,0.0,0.0,0.0,0.0,0.0,0.0,0.0,0.0,0.0,0.0,0.0,0.0,0.0,0.0,0.0,0.0,0.0,0.0,0.0,0.0,0.0,0.0,0.0,0.0,0.0,0.0,0.0,0.0,0.0,0.0,0.0,0.0,0.0,0.0,0.0,0.0,0.0,0.0,0.0,0.0,0.0,0.0,0.0,0.0,0.0,0.0,0.0,0.0,0.0,0.0,0.0,0.0,0.0,0.0,0.0,0.0,0.0,0.0,0.0,0.0,0.0,0.0,0.0,0.0,0.0,0.0,0.0,0.0,0.0,0.0,0.0,0.0,0.0,0.0,0.0,0.0,0.0,0.0,0.0,0.0,0.0,0.0,0.0,0.0,0.0,0.0,0.0,0.0,0.0,0.0,0.0,0.0,0.0,0.0,0.0,0.0,0.0,0.0,0.0,0.0,0.0,0.0,0.0,0.0,0.0,0.0,0.0,0.0,0.0,0.0,0.0,0.0,0.0,0.0,0.0,0.0,0.0,0.0,0.0,0.0,0.0,0.0,0.0,0.0,0.0,0.0,0.0,0.0,0.0,0.0,0.0,0.0,0.0,0.0,0.0,0.0,0.0,0.0,0.0,0.0,0.0,0.0,0.0,0.0,0.0,0.0,0.0,0.0,0.0,0.0,0.0,0.0,0.0,0.0,0.0,0.0,0.0,0.0,0.0,0.0,0.0,0.0,0.0,0.0,0.0,0.0,0.0,0.0,0.0,0.0,0.0,0.0,0.0,0.0,0.0,0.0,0.0,0.0,0.0,0.0,0.0,0.0,0.0,0.0,0.0,0.0,0.0,0.0,0.0,0.0,0.0,0.0,0.0,0.0,0.0,0.0,0.0,0.0,0.0,0.0,0.0,0.0,0.0,0.0,0.0,0.0,0.0,0.0,0.0,0.0,0.0,0.0,0.0,0.0,0.0,0.0,0.0,0.0,0.0,0.0,0.0,0.0,0.0,0.0,0.0,0.0,0.0,0.0,0.0,0.0,0.0,0.0,0.0,0.0,0.0,0.0,0.0,0.0,0.0,0.0,0.0,0.0,0.0,0.0,0.0,0.0,0.0,0.0,0.0,0.0,0.0,0.0,0.0,0.0,0.0,0.0,0.0,0.0,0.0,0.0,0.0,0.0,0.0,0.0,0.0,0.0,0.0,0.0,0.0,0.0,0.0,0.0,0.0,0.0,0.0,0.0,0.0,0.0,0.0,0.0,0.0,0.0,0.0,0.0,0.0,0.0,0.0,0.0,0.0,0.0,0.0,0.0,0.0,0.0,0.0,0.0,0.0,0.0,0.0,0.0,0.0,0.0,0.0,0.0,0.0,0.0,0.0,0.0,0.0,0.0,0.0,0.0,0.0,0.0,0.0,0.0,0.0,0.0,0.0,0.0,0.0,0.0,0.0,0.0,0.0,0.0,0.0,0.0,0.0,0.0,0.0,0.0,0.0,0.0,0.0,0.0,0.0,0.0,0.0,0.0,0.0,0.0,0.0,0.0,0.0,0.0,0.0,0.0,0.0,0.0,0.0,0.0,0.0,0.0,0.0,0.0,0.0,0.0,0.0,0.0,0.0,0.0,0.0,0.0,0.0,0.0,0.0,0.0,0.0,0.0,0.0,0.0,0.0,0.0,0.0,0.0,0.0,0.0,0.0,0.0,0.0,0.0,0.0,0.0,0.0,0.0,0.0,0.0,0.0,0.0,0.0,0.0,0.0,0.0,0.0,0.0,0.0,0.0,0.0,0.0,0.0,0.0,0.0,0.0,0.0,0.0,0.0,0.0,0.0,0.0,0.0,0.0,0.0,0.0,0.0,0.0,0.0,0.0,0.0,0.0,0.0,0.0,0.0,0.0,0.0,0.0,0.0,0.0,0.0,0.0,0.0,0.0,0.0,0.0,0.0,0.0,0.0,0.0,0.0,0.0,0.0,0.0,0.0,0.0,0.0,0.0,0.0,0.0,0.0,0.0,0.0,0.0,0.0,0.0,0.0,0.0,0.0,0.0,0.0,0.0,0.0,0.0,0.0,0.0,0.0,0.0,0.0,0.0,0.0,0.0,0.0,0.0,0.0,0.0,0.0,0.0,0.0,0.0,0.0,0.0,0.0,0.0,0.0,0.0,0.0,0.0,0.0,0.0,0.0,0.0,0.0,0.0,0.0,0.0,0.0,0.0,0.0,0.0,0.0,0.0,0.0,0.0,0.0,0.0,0.0,0.0,0.0,0.0,0.0,0.0,0.0,0.0,0.0,0.0,0.0,0.0,0.0,0.0,0.0,0.0,0.0,0.0,0.0,0.0,0.0,0.0,0.0,0.0,0.0,0.0,0.0,0.0,0.0,0.0,0.0,0.0,0.0,0.0,0.0,0.0,0.0,0.0,0.0,0.0,0.0,0.0,0.0,0.0,0.0,0.0,0.0,0.0,0.0,0.0,0.0,0.0,0.0,0.0,0.0,0.0,0.0,0.0,0.0,0.0,0.0,0.0,0.0,0.0,0.0,0.0,0.0,0.0,0.0,0.0,0.0,0.0,0.0,0.0,0.0,0.0,0.0,0.0,0.0,0.0,0.0,0.0,0.0,0.0,0.0,0.0,0.0,0.0,0.0,0.0,0.0,0.0,0.0,0.0,0.0,0.0,0.0,0.0,0.0,0.0,0.0,0.0,0.0,0.0,0.0,0.0,0.0,0.0,0.0,0.0,0.0,0.0,0.0,0.0,0.0,0.0,0.0,0.0,0.0,0.0,0.0,0.0,0.0,0.0,0.0,0.0,0.0,0.0,0.0,0.0,0.0,0.0,0.0,0.0,0.0,0.0,0.0,0.0,0.0,0.0,0.0,0.0,0.0,0.0,0.0,0.0,0.0,0.0,0.0,0.0,0.0,0.0,0.0,0.0,0.0,0.0,0.0,0.0,0.0,0.0,0.0,0.0,0.0,0.0,0.0,0.0,0.0,0.0,0.0,0.0,0.0,0.0,0.0,0.0,0.0,0.0,0.0,0.0,0.0,0.0,0.0,0.0,0.0,0.0,0.0,0.0,0.0,0.0,0.0,0.0,0.0,0.0,0.0,0.0,0.0,0.0,0.0,0.0,0.0,0.0,0.0,0.0,0.0,0.0,0.0,0.0,0.0,0.0,0.0,0.0,0.0,0.0,0.0,0.0,0.0,0.0,0.0,0.0,0.0,0.0,0.0,0.0,0.0,0.0,0.0,0.0,0.0,0.0,0.0,0.0,0.0,0.0,0.0,0.0,0.0,0.0,0.0,0.0,0.0,0.0,0.0,0.0,0.0,0.0,0.0,0.0,0.0,0.0,0.0,0.0,0.0,0.0,0.0,0.0,0.0,0.0,0.0,0.0,0.0,0.0,0.0,0.0,0.0,0.0,0.0,0.0,0.0,0.0,0.0,0.0,0.0,0.0,0.0,0.0,0.0,0.0,0.0,0.0,0.0,0.0,0.0,0.0,0.0,0.0,0.0,0.0,0.0,0.0,0.0,0.0,0.0,0.0,0.0,0.0,0.0,0.0,0.0,0.0,0.0,0.0,0.0,0.0,0.0,0.0,0.0,0.0,0.0,0.0,0.0,0.0,0.0,0.0,0.0,0.0,0.0,0.0,0.0,0.0,0.0,0.0,0.0,0.0,0.0,0.0,0.0,0.0,0.0,0.0,0.0,0.0,0.0,0.0,0.0,0.0,0.0,0.0,0.0,0.0,0.0,0.0,0.0,0.0,0.0,0.0,0.0,0.0,0.0,0.0,0.0,0.0,0.0,0.0,0.0,0.0,0.0,0.0,0.0,0.0,0.0,0.0,0.0,0.0,0.0,0.0,0.0,0.0,0.0,0.0,0.0,0.0,0.0,0.0,0.0,0.0,0.0,0.0,0.0,0.0,0.0,0.0,0.0,0.0,0.0,0.0,0.0,0.0,0.0,0.0,0.0,0.0,0.0,0.0,0.0,0.0,0.0,0.0,0.0,0.0,0.0,0.0,0.0,0.0,0.0,0.0,0.0,0.0,0.0,0.0,0.0,0.0,0.0,0.0,0.0,0.0,0.0,0.0,0.0,0.0,0.0,0.0,0.0,0.0,0.0,0.0,0.0,0.0,0.0,0.0,0.0,0.0,0.0,0.0,0.0,0.0,0.0,0.0,0.0,0.0,0.0,0.0,0.0,0.0,0.0,0.0,0.0,0.0,0.0,0.0,0.0,0.0,0.0,0.0,0.0,0.0,0.0,0.0,0.0,0.0,0.0,0.0,0.0,0.0,0.0,0.0,0.0,0.0,0.0,0.0,0.0,0.0,0.0,0.0,0.0,0.0,0.0,0.0,0.0,0.0,0.0,0.0,0.0,0.0,0.0,0.0,0.0,0.0,0.0,0.0,0.0,0.0,0.0,0.0,0.0,0.0,0.0,0.0,0.0,0.0,0.0,0.0,0.0,0.0,0.0,0.0,0.0,0.0,0.0,0.0,0.0,0.0,0.0,0.0,0.0,0.0,0.0,0.0,0.0,0.0,0.0,0.0,0.0,0.0,0.0,0.0,0.0,0.0,0.0,0.0,0.0,0.0,0.0,0.0,0.0,0.0,0.0,0.0,0.0,0.0,0.0,0.0,0.0,0.0,0.0,0.0,0.0,0.0,0.0,0.0,0.0,0.0,0.0,0.0,0.0,0.0,0.0,0.0,0.0,0.0,0.0,0.0,0.0,0.0,0.0,0.0,0.0,0.0,0.0,0.0,0.0,0.0,0.0,0.0,0.0,0.2899,0.0,0.0,0.0,0.0,0.0,0.0,0.0,0.0,0.0,0.0,0.0,0.0,0.0,0.0,0.0,0.0,0.0,0.0,0.0,0.0,0.0,0.0,0.0,0.0,0.0,0.0,0.0,0.0,0.0,0.0,0.0,0.0,0.0,0.0,0.0,0.0,0.0,0.0,-0.3023,-0.2956,-0.2351,-0.121,-0.1277,-0.1344,-0.1344,0.0,0.0,0.0,0.0,0.0,0.0,0.0,0.0,0.0,0.0,0.0,0.0,0.0,0.0,0.0,0.0,0.0,0.0,0.0,0.0,0.0,0.0,0.0,0.0,0.0,0.0,0.0,0.0,0.0,0.0,0.0,0.0,0.0,0.0,0.0,0.0,0.0,0.0,0.0,0.0,0.0,0.0,0.0,0.0,0.0,0.0,0.0,0.0,0.0,0.0,0.0,0.0,0.0,0.0,0.0,0.0,0.0,0.0,0.0,0.0,0.0,0.0,0.0,0.0,0.0,0.0,0.0,0.0,0.0,0.0,0.0,0.2875,0.0,0.0,0.0,0.0,0.0,0.0,0.0,0.0,0.0,0.0,0.0,0.0,0.0,0.0,0.0,0.0,0.0,0.0,0.0,0.0,0.0,0.0,0.0,-0.7269,-0.7077,-0.6881,-0.6618,-0.6482,0.0,0.0,0.0,0.0,0.0,0.0,0.0,-0.5143,-0.4348,-0.3021,-0.2755,-0.2285,-0.1681,-0.1614,-0.1614,-0.1681,-0.1614,0.0,0.0,0.0,0.0,0.0,0.0,0.0,0.0,0.0,0.0,0.0,0.0,0.0,0.0,0.0,0.0,0.0,0.0,0.0,0.0,0.0,0.0,0.0,0.0,0.0,0.0,0.0,0.0,0.0,0.0,0.0,0.0,0.0,0.0,0.0,0.0,0.0,0.0,0.0,0.0,0.0,0.0,0.0,0.0,0.0,0.0,0.0,0.0,0.0,0.0,0.0,0.0,0.0,0.0,0.0,0.0,0.0,0.0,0.0,0.0,0.0,0.0,0.0,0.2601,0.2536,0.2449,0.2668,0.2511,0.206,0.2334,0.2321,0.2185,0.0,0.0,0.0,0.0,0.0,0.0,0.0,0.0,0.0,0.0,0.0,0.0,0.0,0.0,0.0,0.0,0.0,0.0,0.0,0.0,0.0,0.0,-0.7847,-0.7722,-0.6946,-0.6881,-0.6811,-0.6675,0.0,0.0,0.0,0.0,0.0,-0.5547,-0.4215,-0.3416,-0.3151,-0.2082,-0.1748,-0.2087,-0.1614,-0.1614,-0.2087,-0.1749,-0.1614,-0.1617,0.0,0.0,0.0,0.0,0.0,0.0,0.0,0.0,0.0,0.0,0.0,0.0,0.0,0.0,0.0,0.0,0.0,0.0,0.0,0.0,0.0,0.0,0.0,0.0,0.0,0.0,0.0,0.0,0.0,0.0,0.0,0.0,0.0,0.0,0.0,0.0,0.0,0.0,0.0,0.0,0.0,0.2823,0.2743,0.0,0.0,0.0,0.0,0.0,0.0,0.0,0.0,0.0,0.0,0.0,0.0,0.0,0.0,0.2683,0.225,0.2096,0.2225,0.2232,0.2055,0.1608,0.2061,0.1973,0.1524,0.1517,0.0,0.2235,0.2323,0.0,0.0,0.0,0.0,0.0,0.0,0.0,0.0,0.0,0.0,0.0,0.0,0.0,0.0,0.0,0.0,0.0,0.0,0.0,0.0,0.0,-0.7782,-0.7461,-0.7073,-0.6876,-0.6811,-0.6811,-0.6811,0.0,0.0,0.0,-0.628,-0.621,-0.5147,-0.4082,-0.3215,-0.2284,-0.1951,-0.2221,-0.1951,-0.1951,-0.2223,-0.1983,-0.1928,-0.1932,-0.1985,0.0,0.0,0.0,0.0,0.0,0.0,0.0,0.0,0.0,0.0,0.0,0.0,0.0,0.0,0.0,0.0,0.0,0.0,0.0,0.0,0.0,0.0,0.0,0.0,0.0,0.0,0.0,0.0,0.0,0.0,0.0,0.0,0.0,0.0,0.0,0.0,0.0,0.0,0.0,0.2275,0.2195,0.2195,0.2511,0.2918,0.0,0.0,0.0,0.0,0.0,0.0,0.0,0.0,0.0,0.2313,0.2342,0.2279,0.1947,0.1343,0.1085,0.1096,0.0647,0.0371,0.0093,0.0371,0.0371,0.0093,0.0093,0.0279,0.0556,0.1268,0.1613,0.1522,0.0,0.0,0.0,0.0,-0.0537,-0.0627,0.0,0.0,0.0,0.0,0.0,0.0,0.0,0.0,0.0,0.0,0.0,0.0,-0.8231,-0.7847,-0.7396,-0.7007,-0.6937,-0.6872,-0.6749,-0.6876,-0.6937,-0.7073,-0.7012,-0.6876,-0.6609,-0.5683,-0.4417,-0.2952,-0.242,-0.2221,-0.2221,-0.2221,-0.223,-0.2179,-0.2225,-0.2174,-0.2179,-0.2324,-0.2382,-0.2425,0.0,0.0,0.0,0.0,0.0,0.0,0.0,0.0,0.0,0.0,0.0,0.0,0.0,0.0,0.0,0.0,0.0,0.0,0.0,0.0,0.0,0.0,0.0,0.0,0.0,0.0,0.0,0.0,0.0,0.0,0.0,0.0,0.0,0.0,0.0,0.0,0.0,0.1813,0.182,0.1899,0.2229,0.2574,0.0,0.0,0.0,0.0,0.0,0.0,0.2205,0.2263,0.1943,0.1325,0.1352,0.1185,0.082,0.0278,-0.0,-0.0,-0.0568,-0.0858,-0.0858,-0.0858,-0.0858,-0.0858,-0.0858,-0.1049,-0.1046,0.0092,0.0364,-0.0091,-0.0727,-0.0727,-0.0455,-0.1,-0.1091,-0.0909,0.0,0.0,0.0,0.0,0.0,0.0,0.0,0.0,0.0,0.0,0.0,-0.8941,-0.7717,-0.8102,-0.7907,-0.6548,-0.7068,-0.7134,-0.6482,-0.7068,-0.7456,-0.7456,-0.7265,-0.6942,-0.6416,-0.4755,-0.3357,-0.2221,-0.2221,-0.2221,-0.2221,-0.2221,-0.2184,-0.217,-0.2173,-0.2174,-0.2182,-0.2367,-0.2417,-0.2425,-0.2486,0.0,0.0,0.0,0.0,0.0,0.0,0.0,0.0,0.0,0.0,0.0,0.0,0.0,0.0,0.0,0.0,0.0,0.0,0.0,0.0,0.0,0.0,0.0,0.0,0.0,0.0,0.0,0.0,0.0,0.0,0.0,0.0,0.0,0.0,0.0,0.0,0.0,0.0,0.1946,0.1985,0.0,0.0,0.0,0.0,0.2607,0.266,0.2169,0.104,0.1081,0.0552,-0.0645,-0.0753,-0.076,-0.076,-0.0856,-0.0857,-0.0857,-0.0858,-0.0858,-0.0858,-0.0858,-0.0858,-0.0858,-0.0858,-0.1334,-0.1903,-0.1141,-0.057,-0.0285,-0.1235,-0.076,0.019,-0.1803,-0.1993,-0.1423,0.0,0.0,0.0,0.0,0.0,0.0,0.0,0.0,-1.0358,-0.9843,-0.9262,-0.8549,-0.7712,-0.7451,-0.6999,-0.6152,-0.621,-0.6342,-0.6613,-0.6745,-0.7003,-0.7461,-0.7134,-0.6346,-0.5289,-0.4489,-0.3689,-0.2825,-0.2622,-0.2622,-0.2825,-0.2739,-0.2776,-0.2949,-0.3119,-0.3165,-0.3095,-0.2627,-0.2441,-0.248,-0.2501,-0.2511,0.0,0.0,0.0,0.0,0.0,0.0,0.0,0.0,0.0,0.0,0.0,0.0,0.0,0.0,0.0,0.0,0.0,0.0,0.0,0.0,0.0,0.0,0.0,0.0,0.0,0.0,0.0,0.0,0.0,0.0,0.0,0.0,0.0,0.0,0.0,0.0,0.0,0.191,0.2008,0.0,0.0,0.1976,0.1563,0.1606,0.09,0.0273,-0.0277,-0.0281,-0.0377,-0.0849,-0.0961,-0.097,-0.097,-0.1492,-0.1713,-0.1713,-0.2243,-0.2462,-0.2462,-0.2462,-0.2462,-0.2462,-0.2462,-0.2667,-0.2871,-0.2667,-0.2292,-0.2094,-0.2477,-0.2286,-0.1903,-0.2667,-0.2762,-0.2476,0.0,0.0,0.0,0.0,0.0,0.0,0.0,0.0,-1.0421,-1.0161,-0.9198,-0.8296,-0.7712,-0.726,-0.6741,-0.6218,-0.621,-0.6342,-0.6675,-0.6741,-0.6937,-0.7195,-0.6539,-0.5683,-0.4625,-0.4289,-0.3823,-0.3226,-0.2956,-0.3038,-0.3275,-0.3124,-0.3252,-0.353,-0.3649,-0.372,-0.3673,-0.3139,-0.2935,-0.2902,-0.2902,-0.2902,-0.2902,0.0,0.0,0.0,0.0,0.0,0.0,0.0,0.0,0.0,0.0,0.0,0.0,0.0,0.0,0.0,0.0,0.0,0.0,0.0,0.0,0.0,0.0,0.0,0.0,0.0,0.0,0.0,0.0,0.0,0.0,0.0,0.0,0.0,0.0,0.0,0.1021,0.1275,0.1205,0.1223,0.1683,0.0893,0.0272,0.0373,-0.0376,-0.0949,-0.125,-0.1365,-0.1472,-0.1669,-0.1799,-0.1816,-0.1816,-0.2379,-0.2617,-0.2618,-0.3179,-0.3413,-0.3413,-0.3413,-0.3413,-0.3413,-0.3413,-0.3413,-0.3413,-0.3413,-0.3318,-0.3172,-0.3172,-0.3172,-0.3172,-0.3172,-0.3172,-0.3169,0.0,0.0,0.0,0.0,0.0,0.0,0.0,-1.0744,-1.0288,-0.9582,-0.8941,-0.8231,-0.7521,-0.7456,-0.726,-0.6741,-0.7134,-0.7265,-0.6741,-0.7195,-0.7195,-0.6675,-0.5683,-0.4954,-0.4625,-0.4092,-0.3627,-0.323,-0.3232,-0.3277,-0.3436,-0.3441,-0.3534,-0.3703,-0.3705,-0.3757,-0.3841,-0.3841,-0.3841,-0.3841,-0.3841,-0.3763,-0.3763,0.0,0.0,0.0,0.0,0.0,0.0,0.0,0.0,0.0,0.0,0.0,0.0,0.0,0.0,0.0,0.0,0.0,0.0,0.0,0.0,0.0,0.0,0.0,0.0,0.0,0.0,0.0,0.0,0.0,0.0,0.0,0.0,0.0,0.0169,0.0257,0.0174,-0.0,-0.0452,-0.0648,-0.0185,-0.066,-0.0955,-0.0956,-0.1069,-0.1375,-0.2065,-0.224,-0.2596,-0.3324,-0.3383,-0.3416,-0.3416,-0.3417,-0.3418,-0.3418,-0.3418,-0.3418,-0.3418,-0.3418,-0.3418,-0.3418,-0.3418,-0.3418,-0.3418,-0.3418,-0.3418,-0.3417,-0.3414,-0.3413,-0.3413,-0.3413,-0.3413,-0.3403,0.0,0.0,0.0,0.0,0.0,0.0,0.0,-1.1052,-1.0288,-0.9582,-0.8941,-0.8102,-0.7064,-0.6937,-0.6675,-0.6152,-0.6284,-0.6412,-0.6675,-0.6478,-0.6083,-0.555,-0.5286,-0.4891,-0.4364,-0.4231,-0.4136,-0.4148,-0.3873,-0.3927,-0.4319,-0.4179,-0.4249,-0.4535,-0.4619,-0.4673,-0.4704,-0.4704,-0.4704,-0.4626,-0.3999,-0.3763,-0.3763,0.0,0.0,0.0,0.0,0.0,0.0,0.0,0.0,0.0,0.0,0.0,0.0,0.0,0.0,0.0,0.0,0.0,0.0,0.0,0.0,0.0,0.0,0.0,0.0,0.0,0.0,0.0,0.0,0.0,0.0,0.0,0.0,-0.0722,-0.0442,-0.0449,-0.0546,-0.0546,-0.0745,-0.0856,-0.077,-0.1357,-0.1771,-0.1821,-0.2343,-0.2776,-0.3022,-0.3053,-0.3174,-0.3387,-0.3443,-0.3473,-0.3473,-0.3518,-0.354,-0.354,-0.354,-0.354,-0.354,-0.354,-0.354,-0.354,-0.354,-0.354,-0.354,-0.354,-0.354,-0.353,-0.3446,-0.3413,-0.3413,-0.3413,-0.3413,-0.341,0.0,0.0,0.0,0.0,0.0,0.0,0.0,-1.0856,-0.997,-0.9396,-0.8554,-0.7842,-0.7129,-0.7068,-0.6937,-0.6609,-0.6544,-0.6675,-0.6999,-0.6346,-0.569,-0.5153,-0.4891,-0.4628,-0.43,-0.4346,-0.4404,-0.4469,-0.431,-0.4395,-0.473,-0.4574,-0.4631,-0.4915,-0.4985,-0.5018,-0.5018,-0.5018,-0.5018,-0.4937,-0.4467,-0.4311,-0.4311,-0.4153,-0.4075,-0.3995,-0.3841,-0.3763,-0.3765,-0.3452,0.0,0.0,0.0,0.0,0.0,0.0,0.0,0.0,0.0,0.0,0.0,0.0,0.0,0.0,0.0,0.0,0.0,0.0,0.0,0.0,0.0,0.0,0.0,0.0,-0.2033,-0.1777,-0.1679,-0.1495,-0.1409,-0.1705,-0.1834,-0.187,-0.2005,-0.2428,-0.2666,-0.2724,-0.3169,-0.341,-0.3446,-0.3471,-0.3486,-0.3486,-0.3518,-0.3534,-0.3534,-0.357,-0.3587,-0.3587,-0.3587,-0.3587,-0.3587,-0.3587,-0.3587,0.0,-0.3587,-0.3587,-0.3587,-0.3587,-0.3587,0.0,0.0,0.0,0.0,0.0,-0.347,-0.3447,0.0,0.0,0.0,0.0,0.0,0.0,0.0,-1.0534,-0.9709,-0.9204,-0.8236,-0.7526,-0.7526,-0.7526,-0.7521,-0.7521,-0.7521,-0.7456,-0.7326,-0.6346,-0.5554,-0.5024,-0.4564,-0.43,-0.43,-0.4412,-0.4477,-0.449,-0.4613,-0.4735,-0.4855,-0.4855,-0.4912,-0.5018,-0.5018,-0.5018,-0.5018,-0.5018,-0.5015,-0.5093,-0.5093,-0.5096,-0.4937,-0.4621,-0.4462,-0.4384,-0.4075,-0.3919,-0.3919,-0.3919,0.0,0.0,0.0,0.0,0.0,0.0,0.0,0.0,0.0,0.0,0.0,0.0,0.0,0.0,0.0,0.0,0.0,0.0,0.0,0.0,0.0,0.0,0.0,0.0,-0.3025,-0.3089,-0.324,-0.2627,-0.2522,-0.3154,-0.3314,-0.3376,-0.3543,-0.3495,-0.3424,-0.3538,-0.3478,-0.3507,-0.3507,0.0,0.0,0.0,0.0,-0.3587,-0.3587,-0.3587,-0.3587,-0.3587,-0.3587,-0.3587,-0.3587,-0.3587,-0.3587,-0.3587,-0.3587,-0.3587,-0.3587,-0.3587,-0.3587,-0.3587,-0.3587,-0.3587,-0.3587,-0.3587,-0.3553,-0.3507,0.0,0.0,0.0,0.0,0.0,0.0,0.0,-1.1031,-1.0148,-1.0085,-0.8812,-0.7917,-0.7917,-0.7657,-0.7521,-0.7521,-0.7521,-0.7129,-0.6284,-0.562,-0.5024,-0.4498,-0.4367,-0.43,-0.43,-0.4412,-0.4588,-0.469,-0.4738,-0.486,-0.4982,-0.4982,-0.4993,-0.5018,-0.5018,-0.5018,-0.5018,-0.5018,-0.5249,-0.5709,-0.5709,-0.5401,-0.5018,-0.4937,-0.4859,-0.4859,-0.4781,-0.4781,-0.4704,-0.4387,-0.4307,-0.4229,-0.3919,-0.3763,0.0,0.0,0.0,0.0,0.0,0.0,0.0,0.0,0.0,0.0,0.0,0.0,0.0,0.0,0.0,0.0,0.0,0.0,0.0,-0.3118,-0.3124,-0.3399,-0.381,-0.3899,-0.3844,-0.4007,-0.4067,-0.4351,-0.4853,-0.4013,-0.3718,-0.4212,-0.3896,-0.357,-0.357,-0.358,0.0,-0.3587,-0.3587,-0.3587,-0.3587,-0.3587,-0.3587,-0.3587,0.0,0.0,-0.3587,-0.3587,-0.3587,-0.3587,-0.3587,-0.3587,-0.3587,-0.3587,-0.3587,-0.3587,-0.3587,-0.3587,-0.3587,-0.3587,-0.3579,-0.357,0.0,0.0,0.0,0.0,0.0,0.0,0.0,-1.1219,-1.0458,-0.9901,-0.8935,-0.8166,-0.7787,-0.7591,-0.7521,-0.7521,-0.7521,-0.7134,-0.635,-0.6079,-0.5686,-0.5093,-0.5096,-0.5096,-0.5096,-0.5026,-0.5018,-0.5087,-0.4986,-0.4955,-0.5018,-0.5018,-0.5018,-0.5018,-0.5323,-0.5479,-0.5479,-0.5786,-0.6093,-0.6402,-0.6402,-0.6247,-0.5941,-0.5553,-0.5249,-0.5018,-0.5018,-0.5018,-0.4937,-0.4779,-0.4701,-0.4701,-0.4467,-0.4231,-0.4084,0.0,0.0,0.0,0.0,0.0,0.0,0.0,0.0,0.0,0.0,0.0,0.0,0.0,0.0,-0.2935,0.0,0.0,-0.3104,-0.3135,-0.3241,-0.3539,-0.4194,-0.4583,-0.4834,-0.4792,-0.4824,-0.4992,-0.5294,-0.4753,-0.4548,-0.4921,-0.4702,-0.448,-0.448,-0.448,-0.448,-0.448,-0.448,-0.448,-0.448,-0.448,-0.448,-0.448,-0.448,-0.448,-0.448,-0.448,-0.448,-0.448,-0.448,-0.448,-0.448,-0.448,-0.448,-0.448,-0.448,-0.4145,-0.3587,-0.3587,-0.3587,-0.3587,0.0,0.0,0.0,0.0,0.0,0.0,0.0,-1.1476,-1.078,-0.9843,-0.9192,-0.8549,-0.7912,-0.7652,-0.7521,-0.7521,-0.7391,-0.7129,-0.6741,-0.6609,-0.635,-0.5892,-0.5888,-0.5888,-0.5888,-0.5584,-0.5375,-0.5375,-0.5275,-0.5171,-0.5171,-0.5323,-0.5401,-0.5404,-0.5864,-0.6093,-0.6093,-0.6633,-0.6938,-0.7092,-0.7092,-0.7092,-0.7015,-0.6479,-0.5786,-0.5171,-0.5171,-0.5093,-0.5018,-0.5018,-0.5018,-0.5018,-0.5018,-0.4794,-0.4587,-0.4598,-0.4331,0.0,0.0,0.0,0.0,0.0,0.0,0.0,0.0,0.0,-0.2907,-0.2963,-0.2976,-0.2997,-0.3071,-0.3164,-0.3238,-0.3363,-0.3566,-0.3874,-0.4686,-0.5142,-0.5589,-0.5698,-0.5589,-0.5509,-0.5697,-0.5594,-0.5483,-0.5594,-0.5483,-0.5371,-0.5371,-0.5371,-0.538,-0.5398,-0.5398,-0.5406,-0.5424,-0.5424,-0.5424,-0.5424,-0.5424,-0.5424,-0.5424,-0.5406,-0.5398,-0.5396,-0.538,-0.5371,-0.5371,-0.5371,-0.5371,-0.5371,-0.5371,-0.4814,-0.3921,-0.3921,-0.4033,-0.4255,0.0,0.0,0.0,0.0,0.0,0.0,0.0,0.0,-1.149,-1.1365,-1.0098,-0.9204,-0.9075,-0.8172,-0.7521,-0.7521,-0.7068,-0.6741,-0.6675,-0.6284,-0.5954,-0.5892,-0.5888,-0.5888,-0.5888,-0.5584,-0.5375,-0.5375,-0.5651,-0.5786,-0.5786,-0.6402,-0.671,-0.671,-0.6788,-0.6784,-0.6788,-0.6865,-0.7246,-0.7706,-0.7706,-0.7706,-0.7706,-0.7629,-0.6861,-0.5786,-0.5786,-0.5479,-0.5018,-0.5018,-0.5018,-0.5018,-0.5018,-0.5086,-0.5009,-0.47,-0.4677,-0.4484,-0.3718,-0.3517,-0.3576,-0.3496,-0.3497,-0.3424,0.0,0.0,-0.2966,-0.3122,-0.3133,-0.3074,-0.3189,-0.3221,-0.3368,-0.411,-0.4194,-0.4684,-0.5787,-0.6079,-0.6354,-0.6911,-0.6468,-0.6362,-0.693,-0.604,-0.5594,-0.6151,-0.5706,-0.5371,-0.5371,-0.5371,-0.5408,-0.5604,-0.5606,-0.5647,-0.5612,-0.5614,-0.5614,-0.5614,-0.5614,-0.5614,-0.561,-0.5645,-0.5606,-0.5602,-0.5406,-0.5371,-0.5371,-0.5371,-0.5371,-0.5371,-0.5371,-0.5371,-0.5148,-0.5148,-0.5704,-0.6366,0.0,0.0,0.0,0.0,0.0,0.0,0.0,0.0,0.0,-1.1476,-1.0591,-0.9703,-0.9,-0.8102,-0.7521,-0.7521,-0.7326,-0.7195,-0.7195,-0.6937,-0.6806,-0.6806,-0.6806,-0.6806,-0.6806,-0.6177,-0.5994,-0.6444,-0.6013,-0.6086,-0.6479,-0.6788,-0.6865,-0.6942,-0.7246,-0.7399,-0.7476,-0.7783,-0.8089,-0.8318,-0.8318,-0.8318,-0.8318,-0.8318,-0.7783,-0.6938,-0.617,-0.5709,0.0,-0.5556,-0.5326,-0.5107,-0.5492,-0.5468,-0.5294,-0.5687,-0.5806,-0.5734,-0.5187,-0.4796,-0.4578,0.0,-0.4106,-0.4129,-0.4027,-0.3762,-0.3592,-0.3952,-0.3811,-0.3676,-0.3673,-0.4065,-0.4459,0.0,-0.4711,-0.5314,-0.609,-0.6236,-0.6485,-0.7154,-0.693,-0.6932,-0.7154,-0.6707,-0.6596,-0.6818,-0.6596,-0.6515,-0.6463,-0.6468,-0.6519,-0.6744,-0.6746,-0.6768,-0.6698,-0.6698,-0.6698,-0.6698,-0.6698,-0.6698,-0.6696,-0.6768,-0.6712,-0.6534,-0.6488,-0.6768,-0.7152,-0.7152,-0.7479,-0.7916,-0.7916,-0.7916,-0.7808,-0.6035,-0.5592,-0.6038,0.0,0.0,0.0,0.0,0.0,0.0,0.0,0.0,0.0,0.0,-1.0829,-1.0009,-0.8678,-0.7977,-0.7591,-0.7521,-0.7521,-0.7521,-0.7521,-0.7521,-0.7521,-0.7521,-0.7521,-0.7521,-0.7521,-0.6718,-0.6598,-0.7082,-0.647,-0.6459,-0.6953,-0.7231,-0.7331,-0.7331,-0.7838,-0.8012,-0.8089,-0.8546,-0.8703,-0.8703,-0.8703,-0.8703,-0.8703,-0.8703,-0.8394,-0.7936,-0.6784,-0.6325,-0.617,-0.617,-0.5864,-0.5655,-0.6188,-0.6096,-0.5927,-0.6671,-0.689,-0.6702,-0.6407,-0.6031,-0.5554,-0.4883,-0.4732,-0.4778,-0.4683,-0.4413,-0.4249,-0.4652,-0.4528,-0.44,-0.4398,-0.4935,-0.5243,-0.4941,-0.5328,-0.5817,-0.6485,-0.6596,-0.6707,-0.7154,-0.7154,-0.7265,-0.7487,-0.7376,-0.7279,-0.7644,-0.7647,-0.7815,-0.8175,-0.7955,-0.7786,-0.7914,-0.7685,-0.7584,-0.7616,-0.7616,-0.7616,-0.7616,-0.7616,-0.7735,-0.7968,-0.8284,-0.8311,-0.8178,-0.8145,-0.8411,-0.8984,-0.883,-0.9251,-0.9798,-0.9798,-0.9798,-0.9574,-0.7362,-0.6811,-0.7033,0.0,0.0,0.0,0.0,0.0,0.0,0.0,0.0,0.0,0.0,0.0,0.0,0.0,-0.7987,-0.7852,-0.7521,-0.7521,-0.7521,-0.7521,-0.7521,-0.7521,-0.7521,-0.7521,-0.7521,-0.7521,-0.7063,-0.689,-0.6898,-0.7074,-0.7166,-0.7174,-0.802,-0.8337,-0.8346,-0.8614,-0.8703,-0.8703,-0.8699,-0.8703,-0.8703,-0.8703,-0.8703,-0.8703,-0.8703,-0.8699,-0.8623,-0.7936,-0.7399,-0.6865,-0.6865,-0.6865,-0.6891,-0.713,-0.7211,-0.7375,-0.7635,-0.7559,-0.7309,-0.6903,-0.6703,-0.6312,-0.5376,-0.5248,-0.5256,-0.4772,-0.4694,-0.4745,-0.4926,-0.4965,-0.502,-0.5194,-0.5233,-0.5484,-0.613,-0.626,-0.6485,-0.7043,-0.7154,-0.7154,-0.7154,-0.7154,-0.7487,0.0,-0.7709,-0.7647,-0.8671,-0.8794,-0.9198,-1.0271,-0.9473,-0.8965,-0.911,-0.817,-0.775,-0.7858,-0.7858,-0.7858,-0.7858,-0.7858,-0.8349,-0.9319,-1.013,-1.0439,-1.0271,-1.0118,-1.0047,-1.0029,-0.9865,-0.9798,-0.9798,-0.9798,-0.9798,-0.9798,-0.9688,-1.0241,-1.0907,0.0,0.0,0.0,0.0,0.0,0.0,0.0,0.0,0.0,0.0,0.0,0.0,0.0,0.0,0.0,0.0,-0.8231,-0.7972,-0.7521,-0.7521,-0.7521,-0.7521,-0.7521,-0.7521,-0.7521,-0.6999,-0.7033,-0.7505,-0.7229,-0.732,-0.7801,-0.8229,-0.8401,-0.8411,-0.8614,-0.8703,-0.8703,-0.8703,-0.8703,-0.8703,-0.8703,-0.8703,-0.8703,-0.8703,-0.8703,-0.8703,0.0,-0.8012,-0.7476,-0.7476,-0.732,-0.7205,-0.7777,-0.7793,-0.7743,-0.8464,-0.8629,-0.8548,-0.8603,-0.8151,-0.7684,-0.7547,-0.7502,-0.7408,-0.6848,-0.6491,-0.6235,-0.6185,-0.596,-0.5815,-0.5773,-0.6274,-0.6554,-0.6369,-0.6596,-0.6932,-0.7154,-0.7709,-0.8042,-0.8042,-0.8589,0.0,0.0,0.0,0.0,-0.9592,-0.9802,-0.9816,-0.9628,-0.9284,-0.9116,-0.9261,-0.8905,-0.9045,-0.9815,-0.9815,-0.9815,-0.9815,-0.9815,-0.9937,-1.0304,-1.0609,-1.0614,-1.0563,-1.0286,-1.0493,-1.0936,-1.0757,-1.1013,-1.1559,-1.1559,-1.1559,-1.1559,-1.1559,-1.1669,-1.1891,0.0,0.0,0.0,0.0,0.0,0.0,0.0,0.0,0.0,0.0,0.0,0.0,0.0,0.0,0.0,0.0,0.0,-0.849,-0.7587,-0.7717,-0.7782,-0.7521,-0.7521,-0.7521,-0.7521,-0.7129,-0.7197,-0.7664,-0.7328,-0.7459,-0.8069,-0.8287,-0.8432,-0.8515,-0.8802,-0.8934,-0.8932,-0.9084,-0.9084,-0.8932,-0.8932,-0.8856,-0.8703,-0.8703,-0.8703,0.0,-0.8703,-0.8475,-0.8089,-0.8089,-0.7983,-0.7932,-0.8521,-0.8645,-0.8769,-0.9296,-0.9587,-0.9648,-0.9447,-0.9125,-0.881,-0.8372,-0.8229,-0.8045,-0.7486,-0.7334,-0.7282,-0.7358,-0.7353,-0.7422,-0.7466,-0.7541,-0.7595,-0.759,-0.7595,-0.7817,-0.8036,-0.8589,-0.8923,-0.8923,-0.9471,0.0,0.0,0.0,0.0,-1.0591,-1.0862,-1.0918,-1.0856,-1.0509,-1.0317,-1.0301,-1.0065,-1.0183,-1.0789,-1.0789,-1.0789,-1.0789,-1.1152,-1.1269,-1.1269,-1.1635,-1.1811,-1.1688,-1.1516,-1.1676,-1.1937,-1.1753,-1.1959,-1.2441,-1.2441,-1.2441,-1.2441,-1.2441,-1.2441,-1.2332,0.0,0.0,0.0,0.0,0.0,0.0,0.0,0.0,0.0,0.0,0.0,0.0,0.0,0.0,0.0,0.0,0.0,0.0,-0.7717,-0.8166,-0.8231,-0.7587,-0.7521,-0.7521,-0.7521,-0.7521,-0.7521,-0.7521,-0.7521,-0.7657,-0.7992,-0.8204,-0.8427,-0.8659,-0.9248,-0.9411,-0.9322,-0.9771,-0.9695,-0.9322,-0.9322,-0.9089,-0.8703,-0.8703,-0.8703,-0.8703,-0.8703,-0.8703,-0.8703,-0.8703,-0.8855,-0.9077,-0.9289,-0.9771,-1.022,-1.0036,-1.0409,-1.0608,-0.9592,-0.9613,-0.9579,-0.8046,-0.773,-0.7578,-0.6907,-0.7452,-0.8157,-0.8327,-0.9036,-0.9622,0.0,0.0,-0.8813,-0.9688,-0.914,-0.8813,-0.9688,-0.9798,-0.9908,0.0,0.0,0.0,0.0,0.0,0.0,-1.1799,0.0,-1.2644,-1.3555,-1.2719,-1.2234,-1.2234,-1.1394,-1.091,-1.091,-1.091,-1.091,-1.091,-1.1877,-1.2234,-1.2359,-1.3204,-1.3688,-1.3679,-1.3476,-1.3273,-1.3065,-1.2857,-1.2644,-1.2455,-1.2446,-1.2441,-1.2441,-1.2441,-1.2441,-1.2441,0.0,0.0,0.0,0.0,0.0,0.0,0.0,0.0,0.0,0.0,0.0,0.0,0.0,0.0,0.0,0.0,0.0,0.0,-0.9256,-0.8748,-0.8425,-0.8231,-0.7782,-0.7521,-0.7521,-0.7521,-0.7521,-0.7521,-0.7521,-0.7657,-0.7992,-0.8204,-0.8564,-0.9076,-0.9392,-0.9553,-0.9771,-0.9841,-0.9695,-0.9322,-0.9322,-0.9089,-0.8703,-0.8703,-0.8703,-0.8703,-0.8703,-0.8703,-0.8703,-0.8703,-0.8944,-0.9313,-0.9677,-0.9904,-1.0171,-1.0338,-1.0158,-0.9951,-1.0519,-1.0396,-1.0006,-1.0245,-1.0375,-1.0369,-0.963,-0.9762,-0.9914,-0.9476,-0.9629,-0.9749,0.0,0.0,0.0,-0.9798,-0.9578,0.0,-0.9798,-1.0351,0.0,-1.0794,0.0,-1.1778,-1.2001,-1.2482,0.0,0.0,-1.3048,-1.303,-1.2599,-1.2359,-1.2234,-1.2234,-1.1993,-1.2234,-1.296,-1.2964,-1.2964,-1.2964,-1.3204,-1.3324,-1.3324,-1.3569,-1.3688,-1.3679,-1.3476,-1.3358,-1.3282,-1.2918,-1.2734,-1.2668,-1.2502,-1.2441,-1.2441,-1.2441,-1.2441,-1.2441,0.0,0.0,0.0,0.0,0.0,0.0,0.0,0.0,0.0,0.0,0.0,0.0,0.0,0.0,0.0,0.0,0.0,0.0,0.0,-0.9326,-0.8877,-0.849,-0.8166,-0.7782,-0.7521,-0.7777,-0.7782,-0.7521,-0.7521,-0.7657,-0.7987,-0.8498,-0.8818,-0.906,-0.9862,-1.0119,-0.9994,-1.0323,-1.0218,0.0,0.0,-0.9316,-0.8937,-0.878,-0.8703,-0.8703,-0.8703,-0.8703,-0.8727,-0.8911,0.0,-0.9398,-0.9819,-1.0105,-1.014,-1.0371,0.0,-1.0202,-1.0904,-1.0835,-1.0507,-1.0609,-1.0794,-1.065,-1.0091,-1.0268,-1.0565,-1.0289,-1.0497,0.0,-1.0659,0.0,0.0,0.0,0.0,0.0,-1.0899,-1.1341,-1.1673,0.0,-1.211,0.0,-1.2441,-1.2819,-1.3065,0.0,-1.3452,-1.3444,-1.284,-1.284,-1.284,-1.284,-1.284,-1.3084,-1.3688,-1.3688,-1.3688,-1.3688,-1.3688,-1.3688,-1.3688,-1.3688,-1.3688,-1.3679,0.0,-1.3471,-1.3367,-1.3032,-1.2847,-1.2743,-1.2526,-1.2441,-1.2441,-1.2441,-1.2441,-1.2441,0.0,0.0,0.0,0.0,0.0,0.0,0.0,0.0,0.0,0.0,0.0,0.0,0.0,0.0,0.0,0.0,0.0,0.0,0.0,0.0,-0.9518,-0.8812,-0.8619,-0.8296,-0.7782,-0.8231,-0.8231,-0.7717,-0.7587,-0.7787,-0.8177,-0.8947,-0.9278,-0.9131,-1.0504,-1.0855,-1.0442,-1.096,-1.0932,-1.0588,-1.0143,-0.9695,-0.9246,0.0,-0.878,-0.8703,-0.8703,-0.8703,-0.8765,-0.9181,-0.9322,-0.9398,-0.9819,-1.0078,-1.0244,-1.0296,-1.057,-1.0868,-1.092,-1.1061,-1.0998,-1.0314,-1.0139,-1.0137,-0.9733,-1.001,-1.0621,-1.0843,0.0,-1.1817,-1.1817,-1.1326,-1.1239,-1.1921,0.0,-1.1538,-1.2327,-1.2441,-1.2441,-1.2441,-1.2441,-1.2441,-1.2441,-1.2819,-1.3065,-1.3065,-1.3452,-1.3688,-1.3688,-1.3688,-1.3688,-1.3688,-1.3688,-1.3688,-1.3688,-1.3688,-1.3688,-1.3688,-1.3688,-1.3688,-1.3688,-1.3688,-1.3688,-1.3688,0.0,0.0,-1.341,-1.3197,-1.2989,-1.2786,-1.2569,-1.2465,-1.2441,-1.2441,-1.2441,-1.2441,0.0,0.0,0.0,0.0,0.0,0.0,0.0,0.0,0.0,0.0,-1.2621,-1.256,0.0,0.0,0.0,0.0,0.0,0.0,0.0,0.0,0.0,-1.0161,-0.9069,-0.8683,-0.9134,-0.8748,-0.8554,-0.8759,-0.8177,-0.8242,-0.8823,-0.9454,-0.9922,-1.0394,-1.1029,-1.156,-1.2006,-1.1625,-1.1345,-1.1186,-1.0588,-0.9916,-0.9322,-0.9246,0.0,0.0,-0.8703,-0.8703,-0.8765,-0.9181,-0.9322,-0.9398,-0.9819,-1.0062,-1.0162,-1.0423,-1.0575,-1.0707,-1.1052,-1.1165,-1.1194,-1.0998,-1.1132,-1.118,-1.1143,-1.136,0.0,0.0,-1.1737,-1.1817,-1.1817,-1.1742,-1.1717,-1.2004,0.0,0.0,0.0,0.0,-1.2441,0.0,0.0,0.0,0.0,0.0,0.0,0.0,0.0,0.0,-1.3688,-1.3688,-1.3688,-1.3688,-1.3688,-1.3688,-1.3688,-1.3688,-1.3688,-1.3688,-1.3688,-1.3688,-1.3688,-1.3688,-1.3688,-1.3688,0.0,0.0,-1.3622,-1.3419,-1.3206,-1.2994,-1.2791,-1.2597,-1.2441,-1.2441,-1.2441,-1.2441,0.0,0.0,0.0,0.0,0.0,0.0,0.0,-1.2621,-1.2621,-1.2621,-1.2621,-1.2621,-1.2621,-1.2621,-1.2621,0.0,0.0,0.0,0.0,0.0,0.0,0.0,-0.9901,-0.9518,-0.9518,-0.9518,-0.9396,-0.9017,0.0,-0.8571,-0.8765,-0.946,-0.9976,-1.0244,-1.1039,-1.1602,-1.1901,-1.1941,-1.1794,-1.1424,-1.1131,-1.0513,-0.9922,0.0,0.0,0.0,-0.9523,-0.9377,-0.9286,-0.9221,-0.9237,-0.9398,-0.9819,-1.0038,-1.01,-1.0329,-1.049,-1.0641,-1.0953,-1.1113,-1.1194,-1.1194,-1.1274,-1.1378,-1.1491,0.0,0.0,0.0,-1.1572,-1.1496,-1.1496,0.0,0.0,0.0,0.0,0.0,0.0,0.0,0.0,0.0,0.0,0.0,0.0,0.0,0.0,0.0,0.0,0.0,-1.3688,-1.3688,-1.3688,-1.3688,-1.3688,-1.3688,-1.3688,-1.3688,-1.3688,-1.3688,-1.3688,-1.3688,-1.3688,-1.3688,-1.3688,-1.3688,-1.3688,0.0,-1.3674,-1.3471,-1.3263,-1.3046,-1.2847,-1.2635,-1.2441,-1.2441,-1.2441,-1.2441,0.0,0.0,0.0,0.0,0.0,0.0,0.0,-1.2621,-1.2621,-1.2621,-1.2621,-1.2621,-1.2621,-1.2621,-1.2621,0.0,0.0,0.0,0.0,0.0,0.0,0.0,0.0,0.0,0.0,0.0,0.0,0.0,-0.9268,0.0,0.0,0.0,0.0,0.0,-1.104,-1.1509,-1.16,-1.2161,-1.2095,0.0,0.0,-1.1057,0.0,0.0,0.0,0.0,0.0,-1.0126,-0.9878,-0.9184,-0.9157,-0.9389,-0.9767,-0.9918,-1.0081,-1.0211,-1.0386,-1.0565,-1.0825,-1.1009,-1.1142,-1.1184,-1.1194,-1.1241,-1.1411,-1.1316,0.0,-1.1416,-1.1316,-1.1194,-1.1194,0.0,-1.1463,0.0,-1.1827,0.0,0.0,0.0,0.0,0.0,0.0,0.0,0.0,0.0,0.0,0.0,0.0,0.0,-1.3688,-1.3688,-1.3688,-1.3688,-1.3688,-1.3688,-1.3688,-1.3688,-1.3688,-1.3688,-1.3688,-1.3688,-1.3688,-1.3688,-1.3688,-1.3688,-1.3688,0.0,0.0,-1.3518,-1.3301,-1.3165,-1.3003,-1.2663,-1.2427,-1.2417,-1.2413,-1.2413,0.0,0.0,0.0,0.0,0.0,0.0,0.0,-1.2621,-1.2621,-1.2621,-1.2621,-1.2621,-1.2621,-1.2621,-1.2621,0.0,0.0,0.0,0.0,0.0,0.0,0.0,0.0,0.0,0.0,0.0,0.0,0.0,0.0,0.0,0.0,0.0,0.0,0.0,0.0,0.0,-1.2238,-1.2225,0.0,0.0,0.0,0.0,0.0,0.0,0.0,0.0,0.0,-1.019,-1.0084,-0.9257,0.0,-0.9365,-0.9601,-0.98,-1.0081,-1.0211,0.0,0.0,-1.0787,-1.091,-1.0967,-1.1151,-1.1194,-1.1198,-1.1222,0.0,-1.1198,-1.1222,-1.1208,-1.1194,-1.1194,-1.1212,-1.1288,-1.1487,-1.1704,-1.1917,0.0,0.0,0.0,0.0,0.0,0.0,0.0,0.0,0.0,0.0,0.0,0.0,0.0,-1.3688,-1.3688,-1.3688,-1.3688,-1.3688,-1.3688,-1.3688,-1.3688,-1.3688,-1.3688,-1.3688,-1.3688,-1.3688,-1.3688,-1.3688,0.0,0.0,0.0,-1.367,-1.3551,-1.3303,-1.3255,-1.2869,-1.2394,-1.2346,-1.244,-1.244,0.0,0.0,0.0,0.0,0.0,0.0,-1.2683,-1.2621,-1.2621,-1.2621,-1.2621,-1.2621,-1.2621,-1.2621,-1.256,-1.2436,0.0,0.0,0.0,0.0,0.0,0.0,0.0,0.0,0.0,0.0,-1.1615,-1.1622,-1.08,0.0,0.0,0.0,0.0,0.0,0.0,0.0,0.0,-1.267,0.0,0.0,0.0,0.0,0.0,0.0,0.0,0.0,0.0,0.0,-1.0726,0.0,0.0,0.0,-0.9426,-0.9682,0.0,0.0,-1.0173,-1.031,-1.0475,-1.0612,-1.0754,-1.0962,-1.1014,-1.1047,-1.1165,0.0,-1.1194,-1.1194,-1.1194,-1.1194,-1.1194,-1.1194,-1.1222,-1.1312,-1.16,-1.1846,-1.1935,0.0,0.0,0.0,0.0,0.0,0.0,0.0,0.0,0.0,0.0,0.0,0.0,-1.3688,-1.3688,-1.3688,-1.3688,-1.3688,-1.3688,-1.3688,-1.3688,-1.3688,-1.3688,-1.3688,-1.3688,-1.3688,-1.3923,-1.4277,0.0,0.0,0.0,-1.4624,-1.4244,-1.3957,-1.3453,-1.2836,-1.2346,-1.2435,-1.3239,-1.4515,0.0,0.0,0.0,0.0,0.0,-1.3094,-1.2683,-1.2621,-1.2621,-1.2621,-1.256,-1.2498,-1.2498,-1.2498,-1.2375,-1.2182,-1.2243,0.0,0.0,0.0,0.0,0.0,0.0,0.0,0.0,0.0,-1.2127,-1.1872,-1.1365,-1.1115,0.0,0.0,0.0,0.0,0.0,0.0,0.0,0.0,0.0,0.0,0.0,0.0,0.0,0.0,0.0,0.0,0.0,0.0,0.0,0.0,0.0,-0.9322,-0.9322,-0.9611,-1.0038,-1.0038,-1.006,-1.0192,-1.0258,-1.0376,-1.0537,-1.0745,-1.0849,-1.0934,0.0,0.0,-1.1194,-1.1194,-1.1194,-1.1194,-1.1194,-1.1194,-1.1194,-1.1194,-1.1496,-1.1751,-1.1808,0.0,0.0,0.0,0.0,0.0,0.0,0.0,0.0,0.0,0.0,0.0,0.0,-1.3688,-1.3688,-1.3688,-1.3688,-1.3688,-1.3688,-1.3688,-1.3688,-1.3688,-1.3688,-1.3688,-1.3688,-1.3923,-1.4157,-1.4629,0.0,0.0,0.0,-1.509,-1.4686,-1.4148,-1.3527,-1.3372,-1.3449,-1.3434,-1.4471,-1.5887,0.0,0.0,0.0,0.0,0.0,0.0,-1.2621,-1.2621,-1.2621,-1.2621,-1.2436,-1.2305,-1.2305,-1.2182,-1.1996,-1.1802,-1.212,0.0,0.0,0.0,0.0,0.0,0.0,0.0,0.0,0.0,-1.256,-1.256,-1.2058,-1.1802,-1.1802,-1.124,-1.0982,0.0,0.0,0.0,0.0,0.0,0.0,0.0,0.0,0.0,0.0,0.0,0.0,0.0,0.0,0.0,0.0,0.0,0.0,0.0,0.0,-0.9611,-1.0038,-1.0038,-1.0043,-1.009,-1.0216,-1.0277,-1.0324,-1.0527,-1.0735,-1.0896,0.0,-1.1052,-1.1194,-1.1194,-1.1194,-1.1194,-1.1194,-1.1194,-1.1194,-1.1194,-1.1378,-1.159,-1.1789,0.0,0.0,0.0,0.0,0.0,0.0,0.0,0.0,0.0,0.0,0.0,0.0,-1.3688,-1.3688,-1.3688,-1.3688,-1.3688,-1.3688,-1.3688,-1.3688,-1.3688,-1.3688,-1.3688,-1.3688,-1.4277,-1.4629,0.0,0.0,0.0,0.0,-1.496,-1.4438,-1.366,-1.3723,-1.463,-1.5863,-1.591,-1.5891,-1.5891,0.0,0.0,0.0,0.0,0.0,0.0,0.0,-1.2858,-1.2621,-1.2621,-1.256,-1.2498,-1.2498,-1.2498,-1.2375,-1.2182,-1.2058,0.0,0.0,0.0,0.0,0.0,0.0,0.0,0.0,-1.2498,-1.2621,-1.2621,-1.2058,-1.1996,-1.2313,-1.1802,-1.174,-1.212,0.0,0.0,0.0,0.0,0.0,0.0,0.0,0.0,0.0,0.0,0.0,0.0,0.0,0.0,0.0,0.0,0.0,0.0,0.0,0.0,0.0,-1.0038,-1.0038,-1.0052,-1.0124,-1.0055,-1.014,-1.0485,-1.0627,-1.0749,-1.1038,-1.1151,-1.1194,-1.1194,-1.1194,-1.1194,-1.1194,-1.1194,-1.1194,-1.1194,-1.1378,-1.1586,0.0,0.0,0.0,0.0,0.0,0.0,0.0,0.0,0.0,0.0,0.0,0.0,0.0,0.0,-1.3688,-1.3688,-1.3688,-1.3688,-1.3688,-1.4157,-1.4277,-1.4277,-1.4759,-1.5002,-1.5002,-1.5235,0.0,0.0,0.0,0.0,0.0,-1.6762,-1.6588,-1.6251,-1.5496,-1.5539,-1.5916,-1.5897,-1.5891,-1.5891,0.0,0.0,0.0,0.0,0.0,0.0,0.0,-1.2858,-1.2621,-1.2621,-1.256,-1.2498,-1.2498,-1.2436,-1.2375,-1.2243,-1.2058,0.0,0.0,0.0,0.0,0.0,0.0,0.0,-1.2428,-1.256,-1.2621,-1.2621,-1.2251,-1.2243,-1.256,-1.2243,-1.2305,-1.2621,-1.2621,-1.2621,0.0,0.0,0.0,0.0,0.0,0.0,-1.4129,0.0,0.0,0.0,0.0,0.0,0.0,0.0,0.0,0.0,0.0,0.0,0.0,0.0,-1.0038,-1.0038,-1.0038,-1.0038,-1.0119,-1.0376,-1.0518,0.0,-1.1005,-1.1142,-1.1194,-1.1194,-1.1194,-1.1194,-1.1194,-1.1194,-1.1194,-1.1194,-1.1378,-1.1586,0.0,0.0,0.0,0.0,0.0,0.0,0.0,0.0,0.0,0.0,0.0,0.0,0.0,0.0,-1.3688,-1.3688,-1.3688,-1.3803,-1.4043,-1.4391,-1.4748,-1.4992,-1.5359,-1.5601,-1.5601,-1.5833,0.0,0.0,0.0,0.0,0.0,-1.7485,-1.7547,-1.7441,-1.6328,-1.5887,-1.5891,-1.5891,-1.5891,-1.5891,0.0,0.0,0.0,0.0,0.0,0.0,0.0,-1.2621,-1.2621,-1.2621,-1.2428,-1.2305,-1.2305,-1.2182,-1.2127,-1.2127,0.0,0.0,0.0,0.0,0.0,0.0,0.0,0.0,-1.2621,-1.2621,-1.2621,-1.2621,-1.2621,-1.2621,-1.2621,-1.2621,-1.2621,-1.2621,-1.2621,-1.2621,0.0,0.0,0.0,0.0,0.0,0.0,0.0,0.0,0.0,0.0,0.0,0.0,0.0,0.0,0.0,0.0,0.0,0.0,0.0,0.0,0.0,0.0,0.0,-1.0038,-1.0095,-1.0239,0.0,0.0,-1.0863,-1.1061,0.0,-1.1194,-1.1194,-1.1194,-1.1194,-1.1194,-1.1194,-1.1194,-1.1378,0.0,0.0,0.0,0.0,0.0,0.0,0.0,0.0,0.0,0.0,0.0,0.0,0.0,0.0,0.0,-1.3688,-1.3688,-1.3688,-1.4043,-1.4629,-1.4629,-1.4992,-1.5715,-1.5715,-1.572,-1.5715,-1.6301,0.0,0.0,0.0,0.0,0.0,-1.7461,-1.7414,-1.7322,-1.6304,-1.5869,-1.5891,-1.5891,-1.5891,-1.5891,0.0,0.0,0.0,0.0,0.0,0.0,0.0,0.0,0.0,0.0,-1.256,-1.256,-1.256,-1.2498,-1.2498,0.0,0.0,0.0,0.0,0.0,0.0,0.0,0.0,0.0,-1.2621,-1.2621,-1.2621,-1.2621,-1.2621,-1.2621,-1.2621,-1.2621,-1.2621,-1.2621,-1.2621,-1.2621,0.0,0.0,0.0,0.0,0.0,0.0,0.0,0.0,0.0,0.0,-1.1397,-1.0201,0.0,0.0,0.0,0.0,0.0,0.0,0.0,0.0,-1.0038,-1.0038,-1.0038,0.0,-1.0129,-1.0409,-1.0537,-1.0669,0.0,-1.1161,-1.1194,-1.1194,-1.1194,-1.1194,-1.1194,-1.1194,-1.1194,-1.1194,-1.1378,0.0,0.0,0.0,0.0,0.0,0.0,0.0,0.0,0.0,0.0,0.0,0.0,0.0,0.0,0.0,-1.3688,-1.3688,-1.4157,-1.451,-1.4629,-1.5116,-1.5709,-1.6301,-1.6773,-1.7009,-1.7015,-1.7244,0.0,0.0,0.0,0.0,-1.7467,-1.7018,-1.687,-1.6806,-1.6214,-1.5934,-1.5891,-1.5891,-1.5891,-1.5992,0.0,0.0,0.0,0.0,0.0,0.0,0.0,0.0,0.0,0.0,0.0,0.0,0.0,0.0,0.0,0.0,0.0,0.0,0.0,0.0,0.0,0.0,0.0,-1.2621,-1.2621,-1.2621,-1.2621,-1.2621,-1.2621,-1.2621,-1.2621,-1.2621,-1.2621,-1.2621,-1.2621,-1.2717,0.0,0.0,0.0,0.0,-1.4418,0.0,0.0,0.0,0.0,0.0,-1.1316,-1.0126,0.0,-0.8954,-0.9157,-0.936,0.0,0.0,0.0,0.0,-1.0038,-1.0038,-1.0038,-1.0038,-1.0138,-1.0471,-1.0575,-1.0683,-1.1099,-1.1194,-1.1194,-1.1194,-1.1194,-1.1194,-1.1194,-1.1194,-1.1194,0.0,0.0,0.0,0.0,0.0,0.0,0.0,0.0,0.0,0.0,0.0,0.0,0.0,0.0,0.0,0.0,0.0,-1.3808,-1.4043,-1.4391,-1.4748,-1.511,-1.5709,-1.6301,-1.7009,-1.7361,-1.7485,-1.7485,-1.7485,-1.7485,0.0,0.0,0.0,-1.7286,-1.702,-1.6619,-1.6267,-1.6216,-1.6,-1.5998,-1.6537,-1.6643,-1.6749,0.0,0.0,0.0,0.0,0.0,0.0,0.0,0.0,0.0,0.0,0.0,0.0,0.0,0.0,0.0,0.0,0.0,0.0,0.0,0.0,0.0,0.0,-1.2621,-1.2621,-1.2621,-1.2621,-1.2621,-1.2621,-1.2621,-1.2621,-1.2621,-1.2621,-1.2621,-1.2629,-1.2623,-1.2806,0.0,0.0,0.0,0.0,-1.4498,0.0,0.0,0.0,0.0,0.0,0.0,0.0,0.0,-0.8987,-0.9185,-0.9365,-0.9615,0.0,0.0,0.0,0.0,0.0,-1.0038,-1.0062,-1.0181,-1.0475,-1.0575,-1.0683,-1.1099,-1.1194,-1.1194,-1.1194,0.0,0.0,0.0,-1.1194,0.0,0.0,0.0,0.0,0.0,0.0,0.0,0.0,0.0,0.0,0.0,0.0,0.0,0.0,0.0,0.0,0.0,0.0,0.0,-1.4624,-1.4748,-1.511,-1.5715,-1.6183,-1.6891,-1.7485,-1.7485,-1.7485,-1.7485,-1.7485,-1.7461,0.0,0.0,0.0,-1.6906,-1.6984,-1.6582,-1.5944,-1.6241,-1.6199,-1.6205,-1.7173,-1.7609,-1.782,0.0,0.0,0.0,0.0,0.0,0.0,0.0,0.0,0.0,0.0,0.0,0.0,0.0,0.0,0.0,0.0,0.0,0.0,0.0,0.0,0.0,-1.2621,-1.2621,-1.2621,-1.2621,-1.2621,-1.2621,-1.2621,-1.2621,-1.2621,-1.2621,-1.2621,-1.2621,-1.2637,-1.2877,-1.3036,-1.3132,-1.3759,-1.4061,-1.414,-1.4498,0.0,0.0,0.0,0.0,0.0,0.0,0.0,0.0,-0.9148,-0.9299,-0.9393,-0.9781,0.0,0.0,0.0,0.0,0.0,-1.0038,-1.0083,-1.0282,-1.0518,-1.0575,-1.0683,-1.1099,-1.1194,-1.1194,-1.1194,0.0,0.0,0.0,-1.1194,0.0,0.0,0.0,0.0,0.0,0.0,0.0,0.0,0.0,0.0,0.0,0.0,0.0,0.0,0.0,0.0,0.0,0.0,0.0,-1.4619,-1.5116,-1.5715,-1.6301,-1.6419,-1.6891,-1.7485,-1.7485,-1.7485,-1.7485,-1.7485,-1.7364,0.0,0.0,-1.7002,-1.6742,-1.6501,-1.6356,-1.626,-1.6036,-1.6349,-1.7041,-1.7153,-1.7687,-1.8422,0.0,0.0,0.0,0.0,0.0,0.0,0.0,0.0,0.0,0.0,0.0,0.0,0.0,0.0,0.0,0.0,0.0,0.0,0.0,0.0,-1.2621,-1.2621,-1.2621,-1.2621,-1.2621,-1.2621,-1.2621,-1.2621,-1.2621,-1.2621,-1.2621,-1.2621,-1.2621,-1.2575,-1.2933,-1.3187,-1.3394,-1.3894,-1.422,-1.4411,0.0,0.0,0.0,0.0,0.0,0.0,0.0,0.0,0.0,0.0,-0.9322,-0.9398,-0.9819,0.0,0.0,0.0,0.0,0.0,-1.0038,-1.0112,-1.0319,-1.0523,-1.0939,-1.1204,-1.1225,-1.1389,-1.1585,-1.1296,0.0,0.0,0.0,0.0,0.0,0.0,0.0,0.0,0.0,0.0,0.0,0.0,0.0,0.0,0.0,0.0,0.0,0.0,0.0,0.0,0.0,0.0,0.0,0.0,-1.5319,-1.6017,-1.6598,-1.6598,-1.6854,-1.7479,-1.734,-1.7267,-1.7267,-1.7123,-1.6996,-1.6881,0.0,-1.6724,-1.6465,-1.6338,-1.6193,-1.6168,-1.6461,-1.6836,-1.7358,-1.8199,-1.9042,-1.9776,0.0,0.0,0.0,0.0,0.0,0.0,0.0,0.0,0.0,0.0,0.0,0.0,0.0,0.0,0.0,0.0,0.0,0.0,0.0,-1.2621,-1.2621,-1.2621,-1.2621,-1.2621,-1.2621,-1.2621,-1.2621,-1.2621,-1.2621,-1.2621,-1.2621,-1.2621,-1.2669,-1.2703,-1.3052,-1.3394,-1.3727,-1.4085,-1.4395,-1.4569,0.0,0.0,0.0,0.0,0.0,0.0,0.0,0.0,0.0,0.0,0.0,0.0,0.0,0.0,0.0,-1.0038,-1.0038,-1.0047,-1.01,-1.0182,-1.0395,-1.0598,-1.1056,-1.1426,-1.1249,-1.1487,-1.1688,-1.1292,-1.1194,0.0,0.0,0.0,0.0,0.0,0.0,0.0,0.0,0.0,0.0,0.0,0.0,0.0,0.0,0.0,0.0,0.0,0.0,0.0,0.0,0.0,0.0,0.0,-1.5434,-1.6003,-1.67,-1.67,-1.6905,-1.7298,-1.7092,-1.7002,-1.7116,-1.6797,-1.6664,-1.6604,-1.6604,-1.6447,-1.6187,-1.6404,-1.639,-1.6311,-1.7147,-1.7569,-1.7989,-1.9465,-2.0403,-2.0925,0.0,0.0,0.0,0.0,0.0,0.0,0.0,0.0,0.0,0.0,0.0,0.0,0.0,0.0,0.0,0.0,0.0,0.0,0.0,-1.2621,-1.2621,-1.2621,-1.2621,-1.2621,-1.2621,-1.2621,-1.2621,-1.2621,-1.2621,-1.2621,-1.2621,-1.2621,-1.2742,-1.3068,-1.3402,-1.3743,-1.4101,-1.445,-1.4545,-1.4569,-1.4049,0.0,0.0,0.0,0.0,0.0,0.0,0.0,0.0,0.0,0.0,0.0,0.0,0.0,-1.0038,-1.0038,-1.0038,-1.0086,-1.0197,-1.04,-1.0603,-1.082,-1.0886,-1.1044,-1.1146,-1.1194,-1.1292,-1.1194,-1.1194,0.0,0.0,0.0,0.0,0.0,0.0,0.0,0.0,0.0,0.0,0.0,0.0,0.0,0.0,0.0,0.0,0.0,0.0,0.0,0.0,0.0,0.0,0.0,0.0,-1.6003,-1.67,-1.67,-1.6718,-1.6754,-1.6736,-1.6855,-1.6979,-1.683,-1.6561,-1.6429,-1.6314,-1.6163,-1.6022,-1.6755,-1.7166,-1.7147,-1.7996,-1.884,-1.9672,-2.0506,-2.0814,-2.0925,0.0,0.0,0.0,0.0,0.0,0.0,0.0,0.0,0.0,0.0,0.0,0.0,0.0,0.0,0.0,0.0,0.0,0.0,0.0,-1.2621,-1.2621,-1.2621,-1.2621,-1.2621,-1.2621,-1.2621,-1.2621,-1.2621,-1.2621,-1.2621,-1.2629,-1.279,-1.2965,-1.3116,-1.3664,-1.3989,-1.4132,-1.449,-1.4418,-1.4049,-1.3905,-1.3317,0.0,0.0,0.0,0.0,0.0,0.0,0.0,0.0,-0.9469,-0.9682,-0.9889,-1.0038,-1.0038,-1.0038,-1.0038,-0.9998,-1.0216,-1.0423,-1.0627,-1.0839,-1.099,-1.1104,-1.1179,-1.1492,-1.1585,-1.1292,-1.1194,0.0,0.0,0.0,0.0,0.0,0.0,0.0,0.0,0.0,0.0,0.0,0.0,0.0,0.0,0.0,0.0,0.0,0.0,0.0,0.0,0.0,0.0,0.0,0.0,-1.597,-1.6199,-1.6199,-1.6199,-1.6199,-1.6362,-1.6557,-1.6667,-1.6381,-1.6139,-1.6042,-1.6036,-1.5982,-1.5992,-1.6836,-1.7252,-1.7358,-1.8729,-1.9672,-2.0506,-2.0822,-2.0925,-2.0925,0.0,0.0,0.0,0.0,0.0,0.0,0.0,0.0,0.0,0.0,0.0,0.0,0.0,0.0,0.0,0.0,0.0,0.0,-1.2621,-1.2621,-1.2621,-1.2621,-1.2621,-1.2621,-1.2621,-1.2621,-1.2621,-1.2621,-1.2621,-1.2621,-1.2637,-1.2925,-1.3147,-1.3267,-1.3854,-1.4172,-1.4291,-1.4316,-1.4122,-1.376,-1.339,-1.2886,0.0,0.0,0.0,0.0,0.0,0.0,0.0,0.0,-0.9647,-0.9767,-0.9908,-1.0038,-1.0038,-1.0038,-1.0038,-1.01,-1.0291,-1.0471,-1.0641,-1.092,-1.1094,-1.1194,-1.1194,-1.1487,-1.1683,-1.1292,-1.1298,-1.1582,-1.1971,0.0,0.0,0.0,0.0,0.0,0.0,0.0,0.0,0.0,0.0,0.0,0.0,0.0,0.0,0.0,0.0,0.0,0.0,0.0,0.0,0.0,0.0,-1.5891,-1.5891,-1.5891,-1.5891,-1.5891,-1.6079,-1.6271,-1.6265,-1.597,-1.5891,-1.5891,-1.5891,-1.6099,-1.6418,-1.7252,-1.7884,-1.8513,-1.9665,-2.0403,-2.0925,-2.0925,-2.0925,-2.0925,0.0,0.0,0.0,0.0,0.0,0.0,0.0,0.0,0.0,0.0,0.0,0.0,0.0,0.0,0.0,0.0,0.0,0.0,-1.2621,-1.2621,-1.2621,-1.256,-1.256,-1.256,-1.256,-1.2621,-1.2621,-1.2621,-1.256,-1.2629,-1.2637,-1.2933,-1.3275,-1.3608,-1.3958,-1.4315,-1.4569,-1.4057,-1.376,-1.3688,-1.2512,-1.2378,-1.2673,0.0,0.0,0.0,0.0,0.0,0.0,0.0,-1.0118,-1.0038,-1.0038,-1.0038,-1.0038,-1.0038,-1.0043,-1.0133,-1.0461,-1.0575,-1.0674,-1.109,-1.1194,-1.1194,-1.1194,-1.1194,-1.1194,-1.1198,-1.1529,-1.2024,-1.255,0.0,0.0,0.0,0.0,0.0,0.0,0.0,0.0,0.0,0.0,0.0,0.0,0.0,0.0,0.0,0.0,0.0,0.0,0.0,0.0,0.0,0.0,0.0,-1.5891,-1.5891,-1.5891,-1.5891,-1.5891,-1.5891,-1.5891,-1.5891,-1.5891,-1.5891,-1.5891,-1.6418,-1.7252,-1.8101,-1.9361,-2.0925,-2.0925,-2.0925,-2.0925,-2.0925,-2.0925,-2.0925,0.0,0.0,0.0,0.0,0.0,0.0,0.0,0.0,0.0,0.0,0.0,0.0,0.0,0.0,0.0,0.0,0.0,0.0,-1.2621,-1.2621,-1.2436,-1.2058,-1.2058,-1.2058,-1.2058,-1.2436,-1.2621,-1.2621,-1.2243,-1.2367,-1.2941,-1.2875,-1.3282,-1.3974,-1.4323,-1.4324,-1.4049,-1.3905,-1.3317,-1.2512,-1.215,-1.1855,-1.1558,0.0,0.0,0.0,0.0,0.0,0.0,0.0,0.0,0.0,-1.0038,-1.0038,-1.0038,-1.0038,-1.006,-1.0239,-1.0499,-1.0683,0.0,-1.1127,0.0,0.0,-1.1194,-1.1194,-1.1334,-1.1979,-1.2547,-1.3111,-1.3482,0.0,0.0,0.0,0.0,0.0,0.0,0.0,0.0,0.0,0.0,0.0,0.0,0.0,0.0,0.0,0.0,0.0,0.0,0.0,0.0,0.0,0.0,0.0,-1.5891,-1.5891,-1.5891,-1.5891,-1.5925,-1.5931,-1.5891,-1.5891,-1.5849,-1.5895,-1.6723,-1.7252,-1.762,-1.8819,-1.9983,-2.0925,-2.0925,-2.0925,-2.0925,-2.0925,-2.0925,-2.0925,0.0,0.0,0.0,0.0,0.0,0.0,0.0,0.0,0.0,0.0,-1.2621,-1.2621,0.0,0.0,0.0,0.0,0.0,0.0,0.0,-1.2621,-1.2375,-1.1802,-1.1802,-1.1802,-1.1802,-1.2313,-1.2498,-1.2305,-1.1934,-1.2233,-1.31,-1.289,-1.315,-1.3778,-1.4119,-1.3985,-1.3397,-1.3178,-1.2659,-1.2003,-1.1706,-1.1558,-1.1409,0.0,0.0,0.0,0.0,0.0,0.0,0.0,0.0,0.0,-1.0038,-1.0038,-1.0038,-1.0038,-1.0107,-1.0319,-1.0518,-1.0731,0.0,-1.1439,-1.1487,-1.159,-1.178,0.0,0.0,0.0,0.0,-1.3643,0.0,0.0,0.0,0.0,0.0,0.0,0.0,0.0,0.0,0.0,0.0,0.0,0.0,0.0,0.0,0.0,0.0,0.0,0.0,0.0,0.0,0.0,0.0,0.0,-1.6411,-1.6411,-1.6511,-1.6592,-1.6535,-1.6299,-1.5889,-1.5889,-1.6212,-1.6957,-1.7982,-1.8408,-1.8471,-1.9657,-2.0506,-2.0925,-2.0925,-2.0925,-2.0925,-2.0925,-2.1019,-2.1224,0.0,0.0,0.0,0.0,0.0,0.0,0.0,0.0,0.0,0.0,-1.2621,-1.2621,0.0,0.0,0.0,0.0,0.0,0.0,0.0,-1.2621,-1.2313,-1.174,-1.174,-1.174,-1.174,-1.2305,-1.2313,-1.1802,-1.1802,-1.2248,-1.3075,-1.2905,-1.2968,-1.3271,-1.3633,-1.3397,-1.2746,-1.2224,-1.2003,-1.1855,-1.126,-1.1335,-1.1781,-1.121,0.0,0.0,0.0,0.0,0.0,0.0,0.0,0.0,-1.0038,-1.0038,-1.0043,-1.0062,-1.0219,-1.0438,-1.0639,-1.0853,-1.1254,-1.193,-1.2078,0.0,-1.2759,-1.2467,-1.234,-1.3093,0.0,0.0,0.0,0.0,0.0,0.0,0.0,0.0,0.0,0.0,0.0,0.0,0.0,0.0,0.0,0.0,0.0,0.0,0.0,0.0,0.0,0.0,0.0,0.0,0.0,0.0,-1.7252,-1.7358,-1.7437,0.0,-1.7691,-1.7213,-1.639,-1.6057,-1.6879,-1.8646,-1.9472,-1.9783,-1.9887,-2.0609,-2.0925,-2.1019,-2.1019,-2.1019,-2.1019,-2.1019,-2.1318,-2.1725,0.0,0.0,0.0,0.0,0.0,0.0,0.0,0.0,0.0,0.0,0.0,0.0,0.0,0.0,0.0,0.0,0.0,0.0,0.0,-1.2621,-1.2182,-1.124,-1.1178,-1.1178,-1.1178,-1.212,-1.2313,-1.1802,-1.1802,-1.2165,-1.2869,-1.2803,-1.308,-1.3655,-1.373,-1.3178,-1.2157,-1.2077,-1.1706,-1.126,-1.0812,-1.0738,-1.0761,-1.05,-1.0445,0.0,0.0,0.0,0.0,0.0,0.0,0.0,-1.0038,-1.0038,-1.0071,-1.0154,-1.0714,-1.1201,-1.1427,-1.1934,0.0,0.0,-1.2662,-1.2764,-1.3249,-1.3249,-1.3372,0.0,0.0,0.0,0.0,0.0,0.0,0.0,0.0,0.0,0.0,0.0,0.0,0.0,0.0,0.0,0.0,0.0,0.0,0.0,0.0,0.0,0.0,0.0,0.0,0.0,0.0,-1.7996,-1.8108,-1.8108,-1.8206,0.0,-1.8206,-1.8762,-1.9725,-1.7075,-1.7539,-2.0327,-2.0545,-2.0609,-2.0609,-2.0822,-2.1121,-2.1522,-2.1522,-2.1827,-2.2123,-2.2123,-2.2224,-2.2325,0.0,0.0,0.0,0.0,0.0,0.0,0.0,0.0,0.0,0.0,0.0,0.0,0.0,0.0,0.0,0.0,0.0,0.0,0.0,0.0,-1.174,-1.0737,-1.0863,-1.0982,-1.0982,-1.2058,-1.2182,-1.1428,-1.2092,-1.2554,-1.2833,-1.2833,-1.2986,-1.3404,-1.3404,-1.2739,-1.1558,-1.1558,-1.126,-1.0812,-1.0588,-1.0436,-1.0319,-1.0213,-1.0322,-1.0476,-1.0305,0.0,0.0,0.0,0.0,0.0,0.0,0.0,-1.0081,-1.0211,-1.0596,-1.1086,-1.1596,0.0,0.0,-1.3055,0.0,-1.3624,-1.3823,-1.3919,0.0,0.0,0.0,0.0,0.0,0.0,0.0,0.0,0.0,0.0,0.0,0.0,0.0,0.0,0.0,0.0,0.0,0.0,0.0,0.0,0.0,0.0,0.0,0.0,0.0,0.0,-1.8632,-1.8632,-1.9049,-1.9049,-1.9257,-1.9569,-1.9605,-2.0055,-2.0806,-1.9051,-1.928,-2.0909,-2.0948,-2.1019,-2.1326,-2.1326,-2.1623,-2.2123,-2.2123,-2.2224,-2.2526,-2.2526,-2.2627,-2.2929,0.0,0.0,0.0,0.0,0.0,0.0,0.0,0.0,0.0,0.0,0.0,0.0,0.0,0.0,0.0,0.0,0.0,0.0,0.0,0.0,0.0,-1.0174,-1.0485,-1.0793,-1.0919,-1.1864,-1.1926,-1.0982,-1.2393,-1.2933,-1.2699,-1.2826,-1.2906,-1.29,-1.2826,-1.2157,-1.1111,-1.1111,-1.0887,-1.0519,-1.0489,-1.0319,-1.0115,-1.0116,-1.0308,-1.0648,-1.0268,-1.0313,-1.0463,-1.012,0.0,0.0,0.0,0.0,-1.009,-1.0253,-1.0534,-1.0905,-1.1547,0.0,-1.2467,-1.3437,-1.401,0.0,-1.4298,-1.4298,0.0,0.0,0.0,0.0,0.0,0.0,0.0,0.0,0.0,0.0,0.0,0.0,0.0,0.0,0.0,0.0,0.0,0.0,0.0,0.0,0.0,0.0,0.0,0.0,-1.9887,-1.9887,-1.9257,-1.9153,-1.9887,-1.9887,-2.0292,-2.0893,-2.0877,-2.1105,-2.1477,-2.124,-2.1121,-2.1138,-2.124,-2.1538,-2.1827,-2.1827,-2.2123,-2.2627,-2.2627,-2.2728,-2.2828,-2.2828,-2.3029,-2.3438,0.0,0.0,0.0,0.0,0.0,0.0,0.0,0.0,0.0,0.0,-1.1787,-1.1274,0.0,0.0,0.0,0.0,0.0,0.0,-1.0212,0.0,0.0,-0.9466,-0.946,-0.9837,-1.0521,-1.1149,-1.1344,-1.0982,-1.2393,-1.2795,-1.2233,-1.2866,-1.3062,-1.29,-1.2378,-1.1706,-1.1111,-1.1111,-1.0887,-1.046,-1.0286,-1.0,-0.9685,-0.9669,-0.968,-0.9836,-0.9933,-1.0014,-1.0038,-1.0038,-1.0038,0.0,0.0,0.0,-1.0027,-1.0419,-1.092,-1.1404,-1.1824,0.0,-1.3437,0.0,-1.4298,-1.4298,0.0,0.0,0.0,0.0,0.0,0.0,0.0,0.0,0.0,0.0,0.0,0.0,0.0,0.0,0.0,0.0,0.0,0.0,0.0,0.0,0.0,0.0,0.0,0.0,0.0,-2.0719,-2.0719,-2.0719,-2.0609,-2.0609,-2.0719,-2.0719,-2.0775,-2.0891,-2.0905,-2.1853,-2.3723,-2.2722,-2.2139,-2.1877,-2.2511,-2.2696,-2.2426,-2.2426,-2.2728,-2.3229,-2.3229,-2.3538,-2.3954,-2.3954,-2.4044,-2.4044,0.0,0.0,0.0,0.0,0.0,0.0,0.0,0.0,0.0,0.0,0.0,-1.0829,0.0,0.0,0.0,-0.921,-0.9703,-0.9894,-0.9646,-0.9332,-0.9017,-0.8829,-0.9145,-0.9646,-1.0395,-1.0703,-1.0925,-1.1111,-1.2334,-1.2729,-1.236,-1.2828,-1.2984,-1.29,-1.2305,-1.1632,-1.1111,-1.1111,-1.097,-1.0735,-1.0606,-1.0734,-1.0919,-1.0569,-1.0552,-1.075,-1.0428,-1.0207,-1.0038,-1.0038,-1.0038,-1.0038,-1.0038,0.0,0.0,0.0,-1.076,-1.113,-1.2149,-1.3141,-1.401,0.0,-1.4298,-1.4298,-1.4298,0.0,0.0,0.0,0.0,0.0,0.0,0.0,0.0,0.0,0.0,0.0,0.0,0.0,0.0,0.0,0.0,0.0,0.0,0.0,0.0,0.0,0.0,0.0,-2.0925,-2.0925,-2.0925,-2.0925,-2.0925,-2.1019,-2.1326,-2.1326,-2.1623,-2.2123,-2.2561,-2.3033,-2.3542,-2.3462,-2.3125,-2.2621,-2.2687,-2.2854,-2.2929,-2.2929,-2.3338,-2.3845,-2.3845,-2.3945,-2.4152,-2.4152,-2.4152,-2.4152,0.0,0.0,0.0,0.0,0.0,0.0,0.0,0.0,0.0,0.0,0.0,0.0,0.0,0.0,0.0,0.0,-0.8941,-0.9192,-0.8882,-0.8689,-0.8501,-0.8252,-0.863,-0.9262,-1.0148,-1.0276,-1.0684,-1.1448,-1.2431,-1.2814,-1.2706,-1.2818,-1.2966,-1.3112,-1.215,-1.1484,-1.1111,-1.1111,-1.1035,-1.089,-1.0958,-1.1398,-1.1964,-1.1461,-1.151,-1.174,-1.1235,-1.0722,-1.0294,0.0,0.0,0.0,0.0,0.0,0.0,0.0,0.0,0.0,0.0,0.0,-1.4106,-1.4298,-1.4298,-1.4298,0.0,0.0,0.0,0.0,0.0,0.0,0.0,0.0,0.0,0.0,0.0,0.0,0.0,0.0,0.0,0.0,0.0,0.0,0.0,0.0,0.0,0.0,0.0,0.0,-2.0925,-2.0925,-2.0925,-2.0925,-2.1019,-2.1326,-2.1725,-2.192,-2.2342,-2.2981,-2.3826,-2.3935,-2.3427,-2.3963,-2.3854,-2.3317,-2.3064,-2.3129,-2.3538,-2.3538,-2.3737,-2.4152,-2.4152,-2.4152,-2.4152,-2.4152,-2.4152,-2.4152,0.0,0.0,0.0,0.0,0.0,0.0,0.0,0.0,0.0,0.0,0.0,0.0,-0.9081,-0.8172,-0.7587,-0.7521,-0.7587,-0.7652,-0.7587,-0.7587,-0.7587,-0.7521,-0.7587,0.0,-0.9773,-0.9765,-1.0501,-1.205,-1.2809,-1.3267,-1.3352,-1.3035,-1.3185,-1.3688,-1.1922,-1.1111,-1.1111,-1.1111,-1.1035,-1.0907,-1.1073,-1.1485,-1.1981,-1.2149,-1.2254,-1.2266,-1.2266,0.0,0.0,0.0,0.0,0.0,0.0,0.0,0.0,0.0,0.0,0.0,0.0,-1.3539,0.0,-1.4202,-1.4298,0.0,0.0,0.0,0.0,0.0,0.0,0.0,0.0,0.0,0.0,0.0,0.0,0.0,0.0,0.0,0.0,0.0,0.0,0.0,0.0,0.0,0.0,0.0,0.0,0.0,-2.0925,-2.0925,-2.0925,-2.0925,-2.142,-2.1623,-2.1725,-2.2601,-2.285,-2.2581,-2.371,-2.4161,-2.4152,-2.4161,-2.4161,-2.4152,-2.4152,-2.4152,-2.4152,-2.4152,-2.4152,-2.4152,-2.4152,-2.4152,-2.4152,-2.4152,-2.4152,-2.4152,0.0,0.0,0.0,0.0,0.0,0.0,0.0,0.0,0.0,0.0,0.0,0.0,0.0,-0.8172,-0.7521,-0.7521,-0.7521,-0.7521,-0.7521,-0.7521,-0.7521,-0.7521,-0.7912,-0.8755,-1.0099,-0.9928,-1.0754,-1.2665,-1.2752,-1.3033,-1.366,-1.3135,-1.3185,-1.3688,-1.1922,-1.1335,-1.1645,-1.1456,-1.1456,-1.1635,-1.2295,-1.3054,-1.3651,-1.3347,-1.3294,0.0,0.0,0.0,0.0,0.0,0.0,0.0,0.0,0.0,0.0,0.0,0.0,0.0,0.0,0.0,0.0,-1.4298,-1.4298,0.0,0.0,0.0,0.0,0.0,0.0,0.0,0.0,0.0,0.0,0.0,0.0,0.0,0.0,0.0,0.0,0.0,0.0,0.0,0.0,0.0,0.0,0.0,0.0,0.0,-2.0925,-2.1224,-2.142,-2.142,-2.192,-2.2426,-2.2728,-2.3429,-2.371,-2.3583,-2.4035,-2.4152,-2.4152,-2.4152,-2.4152,-2.4152,-2.4152,-2.4152,-2.4152,-2.4152,-2.4152,-2.4152,-2.4152,-2.4152,-2.4152,-2.4152,-2.4152,-2.4152,0.0,0.0,0.0,0.0,0.0,0.0,0.0,0.0,0.0,-1.1045,0.0,0.0,0.0,0.0,-0.7591,-0.7521,-0.7521,-0.7521,-0.7657,-0.772,-0.7829,-0.7961,-0.8491,-0.927,-1.0251,-1.0184,-1.109,-1.3009,-1.2798,-1.3091,-1.376,-1.3397,-1.3404,-1.376,-1.2144,-1.1683,-1.2084,-1.168,-1.1733,-1.2152,-1.2964,-1.3712,-1.4314,-1.4153,0.0,0.0,0.0,0.0,0.0,0.0,0.0,0.0,0.0,0.0,0.0,0.0,0.0,0.0,-1.3727,0.0,0.0,0.0,0.0,0.0,0.0,0.0,0.0,0.0,0.0,0.0,0.0,0.0,0.0,0.0,0.0,0.0,0.0,0.0,0.0,0.0,0.0,0.0,0.0,0.0,0.0,0.0,0.0,0.0,-2.1428,-2.1725,-2.2021,-2.2224,-2.2627,-2.3029,-2.3637,-2.4044,-2.4152,-2.4152,-2.4152,-2.4152,-2.4152,-2.4152,-2.4152,-2.4152,-2.4152,-2.4152,-2.4152,-2.4152,-2.4152,-2.4152,-2.4152,-2.4152,-2.4152,-2.4152,-2.4152,-2.4152,0.0,0.0,0.0,0.0,0.0,0.0,0.0,0.0,-1.0989,-1.0989,0.0,0.0,0.0,0.0,0.0,-0.7606,-0.754,-0.7676,-0.8002,-0.8271,-0.8596,-0.8872,-0.9162,-0.9637,-1.0339,-1.0547,-1.1444,-1.3023,-1.3157,-1.3383,-1.3833,-1.376,-1.376,-1.376,-1.2599,-1.2172,-1.2363,-1.1766,-1.1842,-1.2395,0.0,-1.347,-1.3822,0.0,0.0,0.0,-1.4482,-1.4321,0.0,0.0,0.0,0.0,0.0,0.0,0.0,0.0,0.0,0.0,0.0,0.0,0.0,0.0,0.0,0.0,0.0,0.0,0.0,0.0,0.0,0.0,0.0,0.0,0.0,0.0,0.0,0.0,0.0,0.0,0.0,0.0,0.0,0.0,0.0,0.0,0.0,0.0,0.0,-2.192,-2.2426,-2.2526,-2.2728,-2.3329,-2.3329,-2.3637,-2.4152,-2.4152,-2.4152,-2.4152,-2.4152,-2.4152,-2.4152,-2.4152,-2.4152,-2.4152,-2.4152,-2.4152,-2.4152,-2.4152,-2.4152,-2.4152,-2.4152,-2.4152,-2.4152,-2.4152,-2.4152,-2.4152,0.0,0.0,0.0,0.0,0.0,-1.2436,-1.1864,-1.1677,-1.1303,0.0,0.0,0.0,-0.9145,-0.8854,-0.87,-0.879,-0.8806,-0.8806,-0.8943,-0.9008,-0.9114,-0.9184,-0.9736,-1.0481,-1.1519,-1.1596,-1.2523,-1.4142,-1.3345,-1.3461,-1.4346,-1.355,-1.3404,-1.3768,-1.3259,-1.2856,-1.2674,-1.2049,-1.2246,-1.3143,-1.3931,-1.4323,0.0,0.0,0.0,0.0,0.0,-1.4985,-1.4489,0.0,-1.4894,-1.4432,0.0,0.0,0.0,0.0,0.0,0.0,-1.4298,0.0,0.0,0.0,0.0,0.0,0.0,0.0,0.0,0.0,0.0,0.0,0.0,0.0,0.0,0.0,0.0,0.0,0.0,0.0,0.0,0.0,0.0,0.0,0.0,0.0,0.0,0.0,-2.2021,-2.2325,-2.2526,-2.2828,-2.3338,-2.3945,-2.3945,-2.4053,-2.4152,-2.4152,-2.4152,-2.4152,-2.4152,-2.4152,-2.4152,-2.4152,-2.4152,-2.4152,-2.4152,-2.4152,-2.4152,-2.4152,-2.4152,-2.4152,-2.4152,-2.4152,-2.4152,-2.4152,-2.4152,-2.4152,0.0,0.0,0.0,0.0,0.0,-1.2436,-1.1864,-1.1615,-1.124,0.0,0.0,0.0,-0.9392,-0.9197,-0.9135,-0.927,-0.9281,-0.9351,-0.9497,-0.9591,-0.9718,-0.9854,-1.0379,-1.1084,-1.1959,-1.2138,-1.2792,-1.3912,-1.3554,-1.3561,-1.3912,-1.3477,-1.3543,-1.3977,-1.3558,-1.3586,-1.3767,-1.2885,0.0,0.0,-1.4239,0.0,0.0,-1.5318,-1.5567,0.0,0.0,0.0,-1.5235,-1.5899,-1.565,0.0,0.0,0.0,0.0,0.0,0.0,0.0,-1.4298,-1.4592,0.0,0.0,0.0,0.0,0.0,-1.5622,0.0,0.0,0.0,0.0,0.0,0.0,0.0,0.0,0.0,0.0,0.0,0.0,0.0,0.0,0.0,0.0,0.0,0.0,0.0,0.0,-2.23,-2.2763,-2.3229,-2.3538,-2.3845,-2.4152,-2.4152,-2.4152,-2.4152,-2.4152,-2.4152,-2.4152,-2.4152,-2.4152,-2.4152,-2.4152,-2.4152,-2.4152,-2.4152,-2.4152,-2.4152,-2.4152,-2.4152,-2.4152,-2.4152,-2.4152,-2.4152,-2.4152,-2.4152,-2.4152,0.0,0.0,-1.2621,-1.2621,-1.256,-1.2367,-1.1864,-1.1394,-1.1038,0.0,-1.0398,-0.995,-0.9939,-0.9606,-0.9471,-0.9498,-0.9498,-0.9645,-0.9938,-1.0145,-1.0484,-1.084,-1.0991,-1.1409,-1.2077,-1.226,-1.2548,-1.2973,-1.3681,-1.3689,-1.3119,-1.3579,-1.4043,-1.4253,-1.3867,-1.4207,-1.4999,0.0,0.0,-1.3045,-1.423,-1.4398,0.0,0.0,-1.5401,0.0,-1.5567,-1.5816,-1.5899,-1.6484,-1.6237,0.0,0.0,0.0,0.0,0.0,-1.4484,-1.4478,-1.4286,-1.5064,-1.5832,0.0,0.0,0.0,-1.7404,-1.6089,0.0,0.0,0.0,0.0,0.0,0.0,0.0,0.0,0.0,0.0,0.0,0.0,0.0,0.0,0.0,0.0,0.0,0.0,-2.1075,-2.2055,-2.2487,-2.3143,-2.3996,-2.406,-2.4088,-2.4088,-2.4134,-2.4152,-2.4152,-2.4152,-2.4152,-2.4152,-2.4152,-2.4152,-2.4152,-2.4152,-2.4152,-2.4152,-2.4152,-2.4152,-2.4152,-2.4152,-2.4152,-2.4152,-2.4152,-2.4152,-2.4152,-2.4152,-2.4152,-2.4152,0.0,-1.2621,-1.2621,-1.2621,-1.2243,-1.1926,-1.1802,-1.151,-1.1221,-1.0836,-1.0423,-1.0281,-1.0474,-1.0504,-1.0515,-1.0716,-1.0733,-1.0807,-1.0813,-1.0935,-1.1181,-1.1697,-1.1304,-1.1632,-1.2673,-1.2318,-1.2604,-1.3615,-1.3273,-1.3484,-1.4281,-1.4184,-1.4268,-1.4359,-1.5281,-1.5185,-1.4515,0.0,0.0,-1.4314,-1.4566,0.0,-1.5401,-1.6237,-1.6402,-1.6319,-1.6484,-1.6484,-1.6484,0.0,-1.6237,-1.5769,0.0,0.0,0.0,0.0,0.0,0.0,0.0,0.0,0.0,0.0,0.0,0.0,-1.7505,-1.7404,0.0,0.0,0.0,0.0,0.0,0.0,0.0,0.0,0.0,0.0,0.0,0.0,0.0,0.0,0.0,0.0,0.0,0.0,-2.1165,-2.2037,-2.2533,-2.2917,-2.318,-2.3492,-2.3657,-2.3657,-2.3978,-2.4152,-2.4152,-2.4152,-2.4152,-2.4152,-2.4152,-2.4152,-2.4152,-2.4152,-2.4152,-2.4152,-2.4152,-2.4152,-2.4152,-2.4152,-2.4152,-2.4152,-2.4152,-2.4152,-2.4152,-2.4152,-2.4152,-2.4152,-1.2621,-1.2621,-1.2498,-1.2243,-1.2062,-1.1914,-1.166,-1.1404,-1.1196,-1.094,-1.0704,-1.0622,-1.0888,-1.0918,-1.0966,-1.1099,-1.1111,-1.1111,-1.1111,-1.1111,-1.126,-1.1558,-1.126,-1.1632,-1.29,-1.2599,-1.2886,-1.3833,-1.376,-1.4003,-1.4456,-1.4328,-1.4736,-1.562,-1.5732,-1.5572,-1.5323,0.0,-1.5318,-1.4734,-1.5068,0.0,-1.5733,-1.6402,-1.673,-1.673,-1.673,-1.673,-1.673,-1.673,-1.6484,0.0,0.0,-1.6235,-1.6106,0.0,-1.5752,-1.5839,0.0,0.0,0.0,-1.7923,0.0,0.0,0.0,-1.7699,-1.7138,0.0,0.0,0.0,0.0,0.0,0.0,0.0,0.0,0.0,0.0,0.0,0.0,0.0,0.0,0.0,0.0,0.0,-2.1265,-2.2119,-2.2444,-2.2731,-2.2848,-2.3048,-2.324,-2.3538,-2.3739,-2.395,-2.4152,-2.4152,-2.4152,-2.4152,-2.4152,-2.4152,-2.4152,-2.4152,-2.4152,-2.4152,-2.4152,-2.4152,-2.4152,-2.4152,-2.4152,-2.4152,-2.4152,-2.4152,-2.4152,-2.4152,-2.4152,-2.4152,-1.2436,-1.2436,-1.2267,-1.1821,-1.1924,-1.1985,-1.1584,-1.1316,-1.1184,-1.1096,-1.1016,-1.1022,-1.1236,-1.1409,-1.1484,-1.1484,-1.1552,-1.1477,-1.126,-1.1477,-1.1552,-1.1484,-1.1484,-1.1929,-1.3039,-1.3022,-1.3271,-1.393,-1.4363,-1.4615,-1.4577,-1.4645,-1.5427,-1.6768,-1.5958,-1.5894,-1.6394,0.0,0.0,-1.5235,0.0,-1.5899,-1.5816,-1.6566,-1.6812,-1.682,-1.6894,-1.6976,-1.6976,-1.6902,0.0,-1.6794,-1.6461,-1.6586,0.0,0.0,0.0,0.0,0.0,0.0,0.0,0.0,0.0,-1.8064,0.0,0.0,0.0,-1.7785,0.0,0.0,0.0,0.0,0.0,0.0,0.0,0.0,0.0,0.0,0.0,0.0,0.0,0.0,0.0,0.0,-2.1401,-2.2099,-2.2208,-2.2364,-2.261,-2.2701,-2.2884,-2.3299,-2.3391,-2.362,-2.4033,-2.4033,-2.4079,-2.4152,-2.4152,-2.4152,-2.4152,-2.4152,-2.4152,-2.4152,-2.4152,-2.4152,-2.4152,-2.4152,-2.4152,-2.4152,-2.4152,-2.4152,-2.4152,-2.4152,-2.4152,-2.4152,-1.1872,-1.1872,-1.1829,-1.1467,-1.1558,-1.1744,-1.1885,-1.17,-1.1403,-1.1138,-1.1569,-1.189,-1.1922,-1.2378,-1.2673,-1.2673,-1.3032,0.0,-1.1929,0.0,-1.3098,-1.2673,-1.2673,-1.3039,-1.3688,-1.3443,-1.3661,-1.4276,-1.4576,-1.5042,-1.5549,-1.5858,-1.6126,-1.6301,-1.6451,-1.6617,-1.6648,0.0,-1.6812,0.0,-1.7147,-1.6566,0.0,-1.6894,-1.731,-1.7392,-1.7708,-1.7878,-1.7797,0.0,-1.731,-1.7294,0.0,-1.7472,0.0,0.0,0.0,0.0,0.0,0.0,0.0,0.0,-1.9212,0.0,0.0,0.0,-1.8542,-1.8635,0.0,-1.9363,-1.9363,0.0,0.0,0.0,0.0,0.0,0.0,0.0,0.0,0.0,0.0,0.0,0.0,0.0,0.0,-2.1796,-2.1805,-2.1823,-2.1869,-2.2208,-2.2419,-2.2465,-2.2823,-2.3112,-2.3611,-2.3611,-2.3794,-2.4152,-2.4152,-2.4152,-2.4152,-2.4152,-2.4152,-2.4152,-2.4152,-2.4152,-2.4152,-2.4152,-2.4152,-2.4152,-2.4152,-2.4152,-2.4152,-2.4152,-2.4152,-2.4152,-1.1568,-1.1568,-1.1474,-1.1249,-1.1723,-1.1888,-1.1313,-1.1285,-1.1353,-1.162,-1.1855,-1.2003,-1.2003,0.0,0.0,0.0,0.0,-1.3317,0.0,0.0,-1.3592,-1.3227,-1.3016,-1.3348,-1.4336,-1.3858,-1.4154,-1.5072,-1.5219,-1.5552,-1.5983,-1.6134,-1.6477,-1.6927,-1.6748,0.0,-1.7383,0.0,-1.673,0.0,0.0,0.0,0.0,-1.7302,-1.7716,-1.7797,-1.7959,-1.804,-1.7951,0.0,-1.7554,0.0,0.0,0.0,0.0,0.0,0.0,0.0,0.0,0.0,0.0,0.0,0.0,0.0,0.0,0.0,-1.9371,0.0,0.0,0.0,0.0,0.0,0.0,0.0,0.0,0.0,0.0,0.0,0.0,0.0,0.0,0.0,0.0,0.0,0.0,0.0,0.0,-2.1741,-2.1741,-2.1896,-2.2089,-2.2318,-2.2492,-2.2786,-2.3198,-2.3103,-2.34,-2.3794,-2.3794,-2.3923,-2.4152,-2.4152,-2.4152,-2.4152,-2.4152,-2.4152,-2.4152,-2.4152,-2.4152,-2.4152,-2.4152,-2.4152,-2.4152,-2.4152,-2.4152,-2.4152,-1.1471,-1.1489,-1.1464,-1.1076,-1.1794,-1.2104,-1.1178,-1.1359,-1.1706,-1.1929,-1.215,0.0,-1.2445,-1.2966,0.0,0.0,-1.389,-1.4186,0.0,0.0,-1.4463,-1.4006,-1.3783,0.0,0.0,-1.468,-1.4881,-1.5825,-1.592,-1.6103,-1.6349,-1.6349,-1.6653,-1.7229,-1.6812,-1.7139,-1.7797,0.0,0.0,-1.7049,-1.7554,-1.7546,-1.7286,-1.7951,-1.8282,-1.8353,-1.8353,-1.8353,-1.8353,-1.8201,-1.7959,0.0,-1.7959,0.0,0.0,0.0,0.0,0.0,-1.9348,0.0,0.0,0.0,0.0,0.0,0.0,0.0,0.0,0.0,0.0,0.0,0.0,0.0,-2.115,-2.1034,0.0,0.0,0.0,0.0,0.0,0.0,0.0,0.0,0.0,0.0,0.0,0.0,-2.1741,-2.1741,-2.1741,-2.1741,-2.1869,-2.2153,-2.2162,-2.2364,-2.2777,-2.2786,-2.2988,-2.3382,-2.3492,-2.3703,-2.3987,-2.4106,-2.4152,-2.4152,-2.4152,-2.4152,-2.4152,-2.4152,-2.4152,-2.4152,-2.4152,-2.4152,-2.4152,-2.4152,-2.4152,-2.4152,-1.1642,-1.1818,-1.1716,0.0,0.0,-1.24,-1.2024,-1.2445,0.0,0.0,0.0,0.0,0.0,0.0,0.0,0.0,0.0,-1.5833,-1.4903,0.0,-1.5953,0.0,0.0,-1.5827,0.0,0.0,-1.6111,-1.619,-1.6532,-1.6706,-1.6714,-1.6714,-1.6722,-1.673,-1.6738,-1.6984,-1.7392,-1.7392,-1.7887,-1.862,-1.862,-1.8843,-1.9143,0.0,-1.8922,-1.9222,-1.9222,0.0,0.0,-1.8772,-1.87,0.0,0.0,0.0,0.0,0.0,0.0,0.0,0.0,0.0,0.0,-2.0198,0.0,0.0,0.0,0.0,-2.0292,0.0,0.0,0.0,0.0,-2.1365,-2.1514,-2.119,-2.1377,0.0,0.0,0.0,0.0,0.0,0.0,0.0,0.0,0.0,0.0,-2.1741,-2.1741,-2.1741,-2.1741,-2.1741,-2.1741,-2.175,-2.1759,-2.1942,-2.2346,-2.2346,-2.2557,-2.2884,-2.3268,-2.3547,-2.3574,-2.3969,-2.4152,-2.4152,-2.4152,-2.4152,-2.4152,-2.4152,-2.4152,-2.4152,-2.4152,-2.4152,-2.4152,-2.4152,-2.4152,-2.4152,0.0,-1.1998,0.0,0.0,0.0,0.0,0.0,-1.2746,0.0,0.0,0.0,0.0,0.0,0.0,-1.543,0.0,0.0,-1.6676,-1.6629,-1.7168,0.0,0.0,0.0,-1.6453,0.0,0.0,0.0,0.0,-1.6919,-1.7147,-1.7147,-1.7473,-1.7546,-1.7546,-1.731,-1.7554,0.0,0.0,0.0,0.0,0.0,-1.8922,-1.9301,0.0,0.0,-1.9301,-1.9301,-1.9301,0.0,-1.9152,-1.8922,-1.8692,-1.8834,-1.877,-1.8763,-1.9306,-1.927,0.0,0.0,0.0,-1.9809,-1.9918,0.0,0.0,0.0,0.0,0.0,0.0,0.0,0.0,0.0,-2.1553,-2.1695,-2.1548,-2.164,-2.1686,0.0,0.0,0.0,0.0,0.0,0.0,0.0,0.0,0.0,-2.1741,-2.1741,-2.1741,0.0,-2.1741,-2.1741,-2.1741,-2.1741,-2.1805,-2.1933,-2.1933,-2.2135,-2.2538,-2.2676,-2.3015,-2.3547,-2.3684,-2.3895,-2.4152,-2.4152,-2.4152,-2.4152,-2.4152,-2.4152,-2.4152,-2.4152,-2.4152,-2.4152,-2.4152,-2.4152,-2.4152,-1.1749,0.0,0.0,0.0,0.0,0.0,0.0,0.0,0.0,0.0,-1.441,0.0,-1.5378,0.0,-1.6096,0.0,-1.704,-1.7458,-1.771,-1.7952,0.0,-1.7934,-1.7338,0.0,0.0,0.0,0.0,0.0,0.0,-1.7635,-1.7635,-1.7878,-1.804,-1.7959,-1.7716,-1.8049,-1.87,0.0,-1.8282,0.0,0.0,-1.9073,0.0,0.0,-1.9301,-1.9301,0.0,-1.9301,-1.9301,-1.9301,-1.9152,-1.8922,-1.9222,-1.9075,-1.8956,-1.9543,-1.947,-1.9195,-1.9512,-1.9724,0.0,-1.9791,-2.0052,0.0,-2.0961,0.0,0.0,0.0,0.0,0.0,0.0,0.0,-2.1686,-2.1539,-2.1511,-2.1465,0.0,-2.13,0.0,0.0,0.0,0.0,0.0,0.0,-2.1741,-2.1741,-2.1741,-2.1741,0.0,0.0,-2.1741,-2.1741,-2.1741,-2.1741,-2.1741,-2.1741,-2.1869,-2.2116,-2.2254,-2.2602,-2.3116,-2.3263,-2.3556,-2.3932,-2.3932,-2.4024,-2.4152,-2.4152,-2.4152,-2.4152,-2.4152,-2.4152,-2.4152,-2.4152,-2.4152,-2.4152,0.0,0.0,0.0,0.0,-1.2592,0.0,0.0,0.0,-1.4346,0.0,-1.4784,-1.5353,-1.6383,-1.6336,-1.6555,-1.7477,-1.7913,0.0,-1.8183,-1.815,0.0,0.0,-1.8241,-1.8201,-1.87,0.0,0.0,0.0,0.0,-1.804,-1.804,-1.8031,-1.804,-1.804,-1.804,0.0,-1.87,-1.87,-1.8922,-1.9301,-1.9301,-1.9301,-1.9301,-1.9301,-1.9301,-1.9301,-1.9301,-1.9301,-1.9301,-1.9301,-1.9301,-1.9301,-1.9301,-1.9301,-1.9301,-1.9301,-1.9301,-1.9304,-1.9199,-1.9561,-1.9834,-1.9813,0.0,0.0,0.0,0.0,-2.119,0.0,0.0,0.0,0.0,0.0,0.0,-2.1145,-2.108,-2.0943,-2.0567,-2.0521,0.0,0.0,0.0,0.0,0.0,-2.1695,-2.1704,-2.1704,-2.1722,-2.1741,0.0,0.0,-2.1741,-2.1741,-2.1741,-2.1741,-2.1741,-2.1741,-2.1741,-2.1741,-2.2116,-2.23,-2.2337,-2.274,-2.3134,-2.3519,-2.3519,-2.3739,-2.4125,-2.4125,-2.4134,-2.4152,-2.4152,-2.4152,-2.4152,-2.4152,-2.4152,-2.4152,-1.3039,-1.3046,-1.3404,0.0,-1.3905,-1.3769,0.0,0.0,0.0,0.0,-1.6327,-1.6587,-1.7126,-1.7478,-1.7812,-1.8361,-1.8483,0.0,0.0,0.0,0.0,-1.9146,-1.8709,-1.8612,-1.87,-1.8201,0.0,-1.804,0.0,-1.8531,-1.8531,-1.8834,-1.8984,-1.8984,-1.8683,-1.8763,-1.9152,-1.8851,-1.8922,-1.9301,-1.9301,-1.9301,0.0,0.0,-1.9301,-1.9301,-1.9301,-1.9301,-1.9301,-1.9301,-1.9301,-1.9301,-1.9301,-1.9301,-1.9301,-1.9301,-1.9301,-1.9329,-1.9261,-1.9377,-1.9478,-1.9816,-1.9998,-2.0191,0.0,0.0,0.0,0.0,0.0,0.0,0.0,0.0,0.0,-2.0686,-2.0668,-2.064,0.0,0.0,0.0,-2.0521,0.0,0.0,0.0,-2.1099,-2.1273,-2.1273,-2.1557,-2.1741,0.0,0.0,0.0,-2.1741,-2.1741,-2.1741,-2.1741,-2.1741,-2.1741,-2.1741,-2.1841,-2.2043,-2.2327,-2.2437,-2.2712,-2.3012,-2.3012,-2.3327,-2.3703,-2.3703,-2.3877,-2.4152,-2.4152,-2.4152,-2.4152,-2.4152,-2.4152,-2.4152,-1.3905,0.0,0.0,-1.5563,0.0,0.0,-1.5243,0.0,0.0,-1.6828,-1.7215,0.0,-1.8009,-1.8238,-1.854,-1.8935,-1.8971,0.0,0.0,0.0,0.0,-1.9301,-1.9073,-1.8922,-1.8922,-1.8674,0.0,-1.8585,0.0,-1.8922,-1.9002,-1.9222,-1.9301,-1.9301,-1.9073,-1.9073,-1.9301,-1.9073,-1.9073,-1.9301,-1.9301,0.0,0.0,-1.9301,-1.9301,-1.9301,-1.9301,-1.9301,-1.9301,-1.9301,-1.9301,-1.9301,-1.9301,-1.9301,-1.9301,-1.9301,-1.9301,-1.9301,-1.9301,-1.9301,-1.9356,-1.9595,-1.9659,-1.976,-2.0163,-2.0264,-2.031,0.0,0.0,0.0,0.0,0.0,0.0,-2.0292,-2.0108,0.0,0.0,0.0,0.0,0.0,0.0,0.0,0.0,-2.0512,-2.0851,-2.0851,-2.1071,-2.1282,0.0,0.0,0.0,-2.1731,-2.1741,-2.1741,-2.1741,-2.1741,-2.1741,-2.1741,-2.1741,-2.1851,-2.2071,-2.2071,-2.2291,-2.2685,-2.2685,-2.2914,-2.329,-2.329,-2.3419,-2.3648,-2.3822,-2.3996,-2.4152,-2.4152,-2.4152,-2.4152,0.0,0.0,0.0,0.0,0.0,0.0,0.0,-1.6925,0.0,-1.7097,0.0,-1.833,-1.8678,-1.876,-1.8926,-1.9265,0.0,-1.9301,-1.9381,-1.946,-1.946,-1.946,-1.946,-1.9381,-1.9301,-1.9301,0.0,0.0,0.0,-1.9301,-1.9301,-1.9301,-1.9301,-1.9301,-1.9301,0.0,0.0,-1.9301,-1.9301,-1.9301,-1.9301,-1.9301,-1.9301,-1.9301,-1.9301,-1.9301,-1.9381,-1.9381,-1.9301,-1.9301,-1.9301,-1.9301,-1.9301,-1.9301,-1.9301,-1.9301,-1.9301,-1.9301,-1.9301,-1.9301,-1.9301,-1.9301,-1.9301,-1.9393,-1.976,-1.9842,-1.9943,-2.0366,-2.0439,-2.0699,0.0,0.0,0.0,0.0,0.0,0.0,0.0,0.0,0.0,0.0,0.0,0.0,0.0,0.0,-2.0438,-2.0438,-2.0493,-2.0668,0.0,0.0,0.0,-2.1566,-2.1575,0.0,-2.1649,0.0,-2.1686,-2.1741,-2.1741,-2.1741,-2.1741,-2.1741,-2.1924,-2.2245,-2.2245,-2.2483,-2.2774,-2.2774,-2.2811,-2.2893,-2.324,-2.3712,-2.4079,-2.4079,-2.4106,-2.4152,0.0,0.0,0.0,0.0,0.0,-1.6756,-1.8253,-1.7633,-1.7251,-1.7824,-1.8282,-1.8641,-1.8705,-1.8999,-1.9228,-1.9292,-1.9301,0.0,0.0,0.0,0.0,-2.001,-2.001,-1.9775,-1.9301,-1.9301,-1.9301,0.0,0.0,-1.9301,-1.9301,-1.9301,-1.9301,-1.9301,-1.9301,0.0,-1.9301,-1.9301,0.0,-1.9301,-1.9301,-1.9301,-1.9301,-1.9301,-1.9301,-1.9381,-1.9854,-1.9696,-1.9301,-1.9301,-1.9301,-1.9301,-1.9301,-1.9301,-1.9301,-1.9301,-1.9301,-1.9301,-1.9301,-1.9301,-1.9301,-1.9301,-1.9301,-1.932,-1.9393,-1.9412,-1.9589,-2.0131,-2.0229,-2.0466,-2.1173,0.0,0.0,0.0,0.0,0.0,0.0,0.0,0.0,0.0,0.0,0.0,0.0,0.0,0.0,0.0,0.0,0.0,0.0,0.0,0.0,0.0,-2.0732,0.0,0.0,0.0,-2.1392,-2.1741,-2.1741,-2.1741,-2.1741,-2.1741,-2.1777,-2.1841,-2.1841,-2.2071,-2.2437,-2.2437,-2.2639,-2.2866,-2.2939,-2.3299,-2.3648,-2.3648,-2.3868,-2.4152,0.0,0.0,0.0,0.0,0.0,0.0,0.0,-1.9456,0.0,-1.9358,-1.945,-1.9629,-1.9937,-1.9887,-2.0001,-2.0518,-2.0518,-2.0595,-2.0692,-2.0692,-2.0459,-1.9942,-2.0255,0.0,-1.9775,-2.0079,-2.0157,-1.9775,0.0,-1.9618,-1.9301,-1.9301,-1.9301,-1.9301,-1.9618,-1.9775,0.0,0.0,0.0,-1.9775,-1.946,-1.9301,-1.9301,-1.9301,-1.946,-1.9766,-2.0089,-2.0235,-2.0235,-1.9844,-1.9775,-1.9696,-1.9381,-1.9301,-1.9301,-1.9301,-1.9539,-1.9775,-1.9775,-1.9775,-1.9775,-1.9775,-1.9539,-1.9381,-1.9696,-1.9775,-1.9932,-2.0624,-2.0702,-2.0857,-2.1165,-2.1165,0.0,0.0,0.0,0.0,0.0,0.0,0.0,0.0,0.0,0.0,0.0,0.0,0.0,0.0,0.0,0.0,0.0,0.0,0.0,0.0,0.0,0.0,0.0,0.0,0.0,-2.141,-2.163,-2.1741,-2.1741,-2.1741,-2.1741,-2.1741,-2.1741,-2.1841,-2.2016,-2.2016,-2.2263,-2.263,-2.263,-2.2878,-2.314,-2.314,-2.3363,-2.3593,0.0,-1.7418,0.0,0.0,-1.9292,0.0,-2.1169,-2.1394,-2.1293,-2.0862,-2.0721,-2.0847,-2.1385,-2.0991,-2.0991,-2.1735,-2.18,-2.1735,-2.1583,-2.1593,-2.1145,-2.0333,-2.0789,-2.0867,-2.0391,-2.0934,-2.0934,0.0,0.0,-1.9885,-1.9321,-1.9335,-1.9381,-1.9539,0.0,0.0,0.0,0.0,-2.0313,-2.0157,-1.9696,-1.9381,-1.9301,-1.946,-1.9775,-2.0245,-2.0469,-2.0934,-2.1318,-2.0779,-2.0391,-2.0089,-1.9618,-1.9381,-1.9301,-1.945,-1.9854,-2.0235,-2.0391,-2.0391,-2.0391,-2.0391,-2.0079,-1.9844,-2.0313,-2.0391,-2.0624,-2.1242,-2.1471,-2.1548,-2.1395,-2.1471,0.0,0.0,0.0,0.0,0.0,0.0,0.0,0.0,0.0,0.0,0.0,0.0,0.0,0.0,0.0,-1.9448,-1.9778,-1.9797,0.0,0.0,0.0,-2.0301,-2.0393,0.0,-2.1025,0.0,-2.1539,-2.1741,-2.1741,-2.1741,-2.1741,-2.1741,-2.1741,-2.1741,-2.1741,-2.1741,-2.1924,-2.2199,-2.2199,-2.2456,-2.2729,-2.2729,-2.2878,-2.3043,0.0,0.0,0.0,0.0,0.0,0.0,0.0,-2.2694,-2.2215,-2.1688,-2.1882,-2.2103,-2.2178,-2.2103,-2.2103,-2.2253,-2.2253,-2.2489,-2.3021,-2.3095,-2.2883,-2.2392,-2.2467,-2.208,-2.1165,-2.1165,-2.1165,0.0,0.0,-1.9956,-1.9573,-1.9353,-1.9618,0.0,0.0,0.0,0.0,-2.1088,-2.0779,-2.0167,-2.0157,-1.9775,-1.9381,-1.9932,-2.0167,-2.0313,-2.1482,-2.1949,-2.2025,-2.1949,-2.1175,-2.0167,-2.0167,-1.9775,-1.9381,-1.9932,-2.0157,-2.0313,-2.0934,-2.1088,-2.1088,-2.1088,-2.1088,-2.1011,-2.1088,-2.1088,-2.1242,-2.1873,-2.2478,-2.2692,-2.2101,-2.2478,-2.2467,0.0,0.0,0.0,0.0,0.0,0.0,0.0,0.0,0.0,0.0,-2.0079,0.0,0.0,0.0,-1.932,-1.9356,-1.9356,-1.9375,-1.9412,0.0,-1.9604,-1.998,-2.0374,-2.075,-2.1108,-2.1539,-2.1741,-2.1741,-2.1741,-2.1741,-2.1741,-2.1741,-2.1741,-2.1741,-2.1741,-2.1759,-2.1796,-2.1796,-2.2034,-2.2382,-2.2382,-2.2621,-2.2875,0.0,0.0,0.0,0.0,0.0,0.0,0.0,-2.393,-2.3927,-2.3881,-2.3329,-2.3021,-2.3412,-2.3106,-2.3169,-2.3717,-2.379,-2.3779,-2.3756,-2.3756,-2.3463,-2.266,-2.3065,-2.299,-2.251,-2.282,-2.282,0.0,0.0,-2.0814,-2.0273,-1.9993,-2.0157,0.0,0.0,-2.1482,-2.1711,-2.1711,-2.1558,-2.1252,-2.0469,-2.0313,-2.0391,-2.0235,-2.0712,-2.1405,-2.1949,-2.2327,-2.2628,-2.2628,-2.209,-2.1252,-2.0934,-2.0624,-2.0469,-2.0702,-2.1098,-2.1405,-2.1634,-2.1711,-2.1711,-2.1711,-2.1471,-2.1318,-2.1634,-2.1711,-2.1939,-2.2553,-2.2852,-2.2927,-2.2703,-2.2553,-2.2402,0.0,0.0,0.0,0.0,0.0,0.0,0.0,0.0,0.0,0.0,0.0,-2.0934,0.0,0.0,-1.9854,-1.9854,-1.9854,-1.9854,-1.9854,0.0,-1.9929,-2.0108,-2.0847,-2.1506,-2.1923,-2.2368,-2.2457,-2.2353,-2.2353,-2.2087,-2.1741,-2.1741,-2.1741,-2.1741,-2.1741,-2.1741,-2.1741,-2.1741,-2.1832,-2.197,-2.197,-2.208,-2.2254,-2.0563,0.0,-2.1677,0.0,-2.3372,-2.3916,-2.4644,-2.4885,-2.5052,-2.5241,-2.4504,-2.407,-2.4467,-2.4154,-2.4143,-2.4921,-2.4921,-2.4826,-2.4492,-2.448,-2.412,-2.3316,-2.3728,0.0,-2.3559,-2.3959,-2.3959,-2.3559,-2.2649,0.0,-2.1312,-2.0725,0.0,0.0,-2.2014,-2.2327,-2.2402,-2.2478,-2.2402,-2.2025,-2.1098,-2.0944,-2.1165,-2.1011,-2.1395,-2.2101,-2.2402,-2.2777,-2.3001,-2.3001,-2.2703,-2.2252,-2.1634,-2.1318,-2.1242,-2.1395,-2.1797,-2.2101,-2.2327,-2.2327,-2.2327,-2.2327,-2.2014,-2.1852,-2.2252,-2.2327,-2.2478,-2.2927,-2.3001,-2.3001,-2.3001,-2.2628,-2.2478,-2.2703,0.0,0.0,0.0,0.0,0.0,0.0,0.0,-2.2628,-2.2402,0.0,0.0,0.0,0.0,0.0,-2.0469,-2.0469,0.0,0.0,0.0,0.0,0.0,-2.1382,-2.2,-2.2301,-2.2802,-2.2998,-2.2872,-2.2989,-2.2784,-2.2344,-2.2344,-2.2167,-2.1998,-2.1998,-2.1909,-2.1741,-2.1741,-2.1741,-2.1741,-2.1741,-2.1741,-2.1777,-2.1429,-2.198,-2.2856,-2.4205,-2.445,-2.4642,-2.5216,-2.53,-2.5312,-2.5312,-2.5312,-2.5312,-2.5312,-2.53,-2.53,-2.5312,-2.5312,-2.5312,-2.5312,-2.5312,-2.5111,0.0,0.0,-2.4574,-2.42,-2.42,-2.42,-2.42,0.0,0.0,-2.2523,0.0,-2.1416,-2.2101,-2.2478,-2.2777,-2.3001,-2.3446,-2.3001,-2.2101,-2.2101,-2.1711,-2.1318,-2.2317,-2.2402,-2.2252,-2.3224,-2.3298,-2.3001,-2.3001,-2.3001,-2.2852,-2.2252,-2.1711,-2.1318,-2.1939,-2.2101,-2.2252,-2.2852,-2.3001,-2.3001,-2.3001,-2.3001,-2.3001,-2.3001,-2.3001,-2.3001,-2.3001,-2.3001,-2.3001,-2.3001,-2.3001,-2.2777,-2.2176,0.0,0.0,0.0,0.0,0.0,0.0,-2.2478,-2.2327,-2.2927,0.0,0.0,0.0,0.0,0.0,0.0,0.0,0.0,-2.1165,-2.1165,0.0,-2.1165,-2.1617,-2.1769,-2.1789,-2.2671,-2.3092,-2.3102,-2.3609,-2.379,-2.38,-2.38,-2.3377,-2.2803,-2.2803,-2.2353,-2.1741,-2.1741,-2.1741,-2.1741,-2.1741,-2.1741,-2.1741,-2.3447,-2.3727,-2.408,-2.4893,-2.5059,-2.5107,-2.5288,-2.5312,-2.5312,-2.5312,-2.5624,-2.5841,-2.5841,-2.5841,-2.5997,0.0,-2.6069,-2.5841,0.0,-2.5504,-2.5241,-2.5182,-2.5111,-2.5111,-2.4957,-2.4969,-2.4969,-2.4969,0.0,0.0,0.0,-2.2444,-2.2689,-2.353,-2.3372,-2.3519,-2.3824,-2.397,-2.3824,-2.3519,-2.3054,-2.3054,-2.3213,-2.3128,-2.3276,-2.3519,-2.3593,-2.3519,-2.3372,-2.3075,-2.3001,-2.3001,-2.3075,-2.2767,-2.2467,-2.2628,-2.2703,-2.2777,-2.2927,-2.3001,-2.3075,-2.3372,-2.3224,-2.3075,-2.3372,-2.3224,-2.3001,-2.3001,-2.3224,-2.3372,-2.3372,-2.3372,-2.3446,-2.3519,-2.3224,0.0,0.0,0.0,0.0,0.0,0.0,-2.2777,0.0,-2.2617,0.0,0.0,0.0,0.0,0.0,0.0,0.0,0.0,-2.1787,0.0,-2.1787,-2.1942,-2.2401,-2.3115,-2.3322,-2.3691,-2.4302,-2.3998,-2.38,-2.38,-2.38,-2.3714,-2.3464,-2.3464,-2.3377,-2.3105,-2.3105,-2.3105,-2.3115,-2.2608,-2.2441,-2.2353,-2.4458,-2.4675,-2.4927,-2.5252,-2.5312,-2.5312,-2.5312,-2.548,-2.5612,-2.5612,-2.6081,-2.649,-2.6683,-2.6707,0.0,-2.6923,-2.661,-2.6322,-2.6105,-2.5793,-2.5516,-2.5312,-2.5312,-2.5312,-2.5312,0.0,0.0,-2.5312,-2.4636,-2.4204,-2.3875,-2.3593,-2.374,-2.42,-2.4127,-2.4116,-2.42,-2.4345,-2.4345,-2.42,-2.3801,-2.3875,-2.4189,-2.3948,-2.402,-2.42,-2.4127,-2.397,-2.3824,-2.3519,-2.3446,-2.3519,-2.3751,-2.3666,-2.3446,-2.3446,-2.3446,-2.3446,-2.3446,-2.3446,-2.3519,-2.3751,-2.3677,-2.353,-2.3751,-2.3604,-2.3446,-2.3446,-2.3677,-2.3824,-2.3824,-2.3824,-2.3897,-2.4127,-2.3751,-2.3519,-2.3824,0.0,0.0,0.0,0.0,0.0,0.0,-2.3446,0.0,0.0,0.0,0.0,0.0,0.0,0.0,-2.2478,-2.2478,0.0,-2.2478,-2.2478,-2.2778,-2.346,-2.3734,-2.4378,-2.5295,-2.4765,-2.4413,-2.4241,-2.4498,-2.4317,-2.38,-2.4059,-2.4059,-2.38,-2.38,-2.38,-2.3714,-2.3299,-2.3057,-2.2715,-2.4578,-2.4975,0.0,0.0,-2.5312,0.0,-2.536,-2.5781,-2.6105,-2.6154,-2.6635,-2.7176,-2.7669,-2.7753,-2.7572,-2.7079,0.0,0.0,0.0,-2.6142,-2.5877,-2.5384,-2.5324,-2.5312,-2.5312,-2.5312,-2.5312,-2.5312,-2.5312,-2.5111,-2.4861,-2.479,-2.4646,-2.4261,-2.4646,-2.4646,-2.4261,-2.4718,-2.4634,-2.4273,-2.4273,-2.4273,-2.4345,-2.4718,-2.4562,-2.4345,-2.4646,-2.4574,-2.4273,-2.42,-2.42,-2.42,-2.42,-2.4273,-2.4273,-2.42,-2.42,-2.42,-2.42,-2.42,-2.42,-2.42,-2.4273,-2.42,-2.42,-2.42,-2.42,-2.42,-2.42,-2.4273,-2.4273,-2.4273,-2.4261,-2.4261,-2.4261,-2.42,-2.4273,0.0,0.0,0.0,0.0,0.0,0.0,-2.42,-2.42,0.0,0.0,0.0,0.0,0.0,-2.3446,-2.3001,-2.3001,-2.3001,-2.3001,-2.2927,-2.2938,-2.2981,-2.4028,-2.4967,-2.5852,-2.5801,-2.5464,-2.4946,-2.5549,-2.502,-2.3887,-2.4594,-2.4509,-2.3887,-2.3973,-2.3973,-2.3963,-2.38,-2.3387,-2.2882,0.0,0.0,-2.5312,-2.5312,-2.5312,-2.5444,-2.5853,-2.6021,-2.625,-2.6683,-2.72,-2.7584,-2.7705,-2.8089,-2.827,-2.815,-2.7765,-2.7476,-2.7344,-2.6562,-2.6045,-2.5913,-2.5528,-2.5312,-2.5312,-2.5312,-2.5312,-2.5312,-2.5312,-2.5241,-2.5182,-2.4921,-2.4921,-2.5028,-2.4849,-2.4921,-2.5028,-2.5111,-2.5111,-2.5028,-2.5028,-2.5028,-2.5028,-2.5182,-2.5111,-2.504,-2.4849,-2.4718,-2.4646,-2.4273,-2.42,-2.4261,-2.4574,-2.4646,-2.4574,-2.4273,-2.42,-2.42,-2.42,-2.42,-2.4273,-2.4574,-2.4646,-2.4574,-2.4273,-2.42,-2.42,-2.42,-2.4418,-2.4646,-2.4646,-2.4646,-2.4706,-2.5028,-2.4539,-2.4345,-2.4646,-2.4418,0.0,0.0,-2.42,-2.42,-2.42,-2.42,-2.4345,0.0,0.0,0.0,0.0,-2.4189,-2.3751,-2.3001,-2.3001,-2.3001,-2.3001,-2.2553,-2.2497,-2.2847,-2.3946,-2.4792,-2.536,-2.5209,-2.5031,-2.4861,-2.4498,-2.4145,-2.3887,-2.4594,-2.4775,-2.468,-2.52,-2.5369,-2.5285,-2.4231,-2.3714,-2.3377,-2.5312,-2.5312,-2.5312,-2.5312,-2.5312,-2.5492,-2.6021,-2.6322,-2.6683,-2.7224,-2.7753,-2.8089,-2.8089,-2.8342,-2.851,-2.851,-2.8246,-2.7981,-2.7741,-2.6947,-2.637,-2.6105,-2.5588,-2.5312,-2.5312,-2.5312,-2.5312,-2.5312,-2.5312,-2.5312,-2.5312,-2.5111,-2.5111,-2.5312,-2.5111,-2.5111,-2.5312,-2.5312,-2.5312,-2.5312,-2.5312,-2.5312,-2.5312,-2.5312,-2.5312,-2.5312,-2.5123,-2.5052,-2.4981,-2.4754,-2.4683,-2.4754,-2.4981,-2.5052,-2.4981,-2.4754,-2.4683,-2.4683,-2.4683,-2.4683,-2.4754,-2.4981,-2.5052,-2.4981,-2.4754,-2.4683,-2.4683,-2.4683,-2.4909,-2.5052,-2.5052,-2.5052,-2.5123,-2.5241,-2.4957,-2.4754,-2.4981,-2.4838,0.0,-2.4683,-2.4683,-2.4683,-2.4683,-2.4683,-2.4754,-2.4981,0.0,0.0,-2.479,-2.4418,-2.3897,-2.3298,-2.3075,-2.3001,-2.3001,-2.2703,-2.2788,-2.3249,-2.4078,-2.4727,-2.5185,-2.5333,-2.5211,-2.4861,-2.4765,-2.4594,-2.4327,-2.5031,-2.5211,-2.4946,-2.5644,-2.5549,-2.485,-2.4498,-2.3897,-2.3212,-2.5453,-2.5382,-2.5312,-2.5453,-2.5443,-2.5612,-2.6142,-2.6695,-2.7236,-2.7765,-2.8234,-2.851,-2.851,-2.851,-2.851,-2.851,-2.851,-2.8318,-2.7873,-2.7344,-2.6803,-2.625,-2.5709,-2.5384,-2.5312,-2.5312,-2.5312,-2.5312,-2.5312,-2.5312,-2.5312,-2.5312,-2.5312,-2.5312,-2.5312,-2.5312,-2.5312,-2.5312,-2.5312,-2.5312,-2.5312,-2.5312,-2.5312,-2.5312,-2.5312,-2.5312,-2.5312,-2.5312,-2.5312,-2.5312,-2.5312,-2.5312,-2.5312,-2.5312,-2.5312,-2.5312,-2.5312,-2.5312,-2.5312,-2.5312,-2.5312,-2.5312,-2.5312,-2.5312,-2.5312,-2.5312,-2.5312,-2.5312,-2.5312,-2.5312,-2.5312,-2.5312,-2.5312,-2.5312,-2.5312,-2.5312,-2.5312,0.0,-2.5312,-2.5312,-2.5312,-2.5312,-2.5312,-2.5312,-2.5312,-2.5312,-2.5312,-2.5182,-2.4861,-2.449,-2.4116,-2.3824,-2.3298,-2.3001,-2.3001,-2.3001,-2.3209,-2.3624,-2.4213,-2.4694,-2.5087,-2.5561,-2.5464,-2.4946,-2.538,-2.5285,-2.4775,-2.5464,-2.538,-2.4946,-2.5644,-2.52,-2.4145,-2.468,-2.4176,-2.3144,-2.5943,-2.5664,-2.5453,-2.5943,-2.6029,-2.6166,-2.6719,-2.726,-2.7789,-2.8318,-2.8462,-2.851,-2.851,-2.851,-2.851,-2.851,-2.851,-2.8474,-2.839,-2.7897,-2.7368,-2.6827,-2.6274,-2.5769,-2.5312,-2.5312,-2.5312,-2.5312,-2.5312,-2.5312,-2.5312,-2.5312,-2.5312,-2.5312,-2.5312,-2.5312,-2.5312,-2.5312,-2.5312,-2.5312,-2.5312,-2.5312,-2.5312,-2.5312,-2.5312,-2.5312,-2.5312,-2.5312,-2.5312,-2.5312,-2.5312,-2.5312,-2.5312,-2.5312,-2.5312,-2.5312,-2.5312,-2.5312,-2.5312,-2.5312,-2.5312,-2.5312,-2.5312,-2.5312,-2.5312,-2.5312,-2.5312,-2.5312,-2.5312,-2.5312,-2.5312,-2.5312,-2.5312,-2.5312,-2.5312,-2.5312,-2.5312,0.0,-2.5312,-2.5312,-2.5312,-2.5312,-2.5312,-2.5312,-2.5312,-2.5312,-2.5312,-2.5312,-2.5241,-2.4921,-2.4646,-2.4646,-2.3593,-2.3001,-2.3001,-2.3001,-2.3045,-2.3121,-2.405,-2.453,-2.4628,-2.4911,-2.5031,-2.4861,-2.4327,-2.4059,-2.4059,-2.4765,-2.5031,-2.4946,-2.5644,-2.5728,-2.5549,-2.5031,-2.4775,-2.4509,-2.6812,-2.6346,-2.607,-2.6564,-2.6362,-2.6525,-2.7667,-2.7792,-2.802,-2.8851,-2.8961,-2.8895,-2.851,-2.851,-2.851,-2.851,-2.851,-2.851,-2.851,-2.8017,-2.7488,-2.6959,-2.6394,-2.5853,-2.5312,-2.5312,-2.5312,-2.5312,-2.5312,-2.5312,-2.5312,-2.5312,-2.5312,-2.5312,-2.5312,-2.5312,-2.5312,-2.5312,-2.5312,-2.5312,-2.5312,-2.5312,-2.5312,-2.5312,-2.5312,-2.5312,-2.5312,-2.5312,-2.5312,-2.5312,-2.5312,-2.5312,-2.5312,-2.5312,-2.5312,-2.5312,-2.5312,-2.5312,-2.5312,-2.5312,-2.5312,-2.5312,-2.5312,-2.5312,-2.5312,-2.5312,-2.5312,-2.5312,-2.5312,-2.5312,-2.5312,-2.5312,-2.5312,-2.5312,-2.5312,0.0,0.0,-2.5312,-2.5312,-2.5312,-2.5312,-2.5312,-2.5312,-2.5312,-2.5312,-2.5312,-2.5312,-2.5312,-2.5312,-2.4992,-2.479,-2.479,-2.3824,-2.3298,-2.3298,-2.3075,-2.3132,-2.3405,-2.4137,-2.4618,-2.488,-2.5474,-2.5779,-2.5779,-2.5663,-2.5663,-2.5663,-2.6008,-2.5768,-2.5263,-2.5957,-2.579,-2.5115,-2.4946,-2.4775,-2.4584,-2.7736,-2.7271,-2.6879,-2.7229,-2.6939,-2.7151,-2.8426,-2.8331,-2.855,-2.9514,-2.9639,-2.9419,-2.8816,-2.8736,-2.8657,-2.851,-2.851,-2.851,-2.851,-2.8017,-2.7488,-2.6959,-2.6274,-2.5721,-2.5312,-2.5312,-2.5312,-2.5312,-2.5312,-2.5312,-2.5312,-2.5312,-2.5312,-2.5312,-2.5312,-2.5312,-2.5312,-2.5312,-2.5312,-2.5312,-2.5312,-2.5312,-2.5312,-2.5312,-2.5312,-2.5312,-2.5312,-2.5312,-2.5312,-2.5312,-2.5312,-2.5312,-2.5312,-2.5312,-2.5312,-2.5312,-2.5312,-2.5312,-2.5312,-2.5312,-2.5312,-2.5312,-2.5312,-2.5312,-2.5312,-2.5312,-2.5312,-2.5312,-2.5312,-2.5312,-2.5312,-2.5312,-2.5312,-2.5312,0.0,0.0,0.0,-2.5312,-2.5312,-2.5312,-2.5312,-2.5312,-2.5312,-2.5312,-2.5312,-2.5312,-2.5312,-2.5312,-2.5312,-2.5052,-2.4921,-2.4921,-2.4116,-2.3751,-2.3751,-2.3568,-2.3663,-2.4039,-2.467,-2.5145,-2.551,-2.6304,-2.6682,-2.6693,-2.7021,-2.7185,-2.7185,-2.7185,-2.667,-2.5913,-2.6434,-2.5935,-2.5009,-2.5348,-2.5263,-2.4914,-2.8597,-2.826,-2.7934,-2.8157,-2.8198,-2.8283,-2.8549,-2.9027,-2.9489,-3.0164,-3.0241,-3.0012,-2.9419,-2.9341,-2.9118,-2.859,-2.851,-2.851,-2.851,-2.8017,-2.7488,-2.6959,-2.5925,-2.5348,-2.5312,-2.5312,-2.5312,-2.5312,-2.5312,-2.5312,-2.5312,-2.5312,-2.5312,-2.5312,-2.5312,-2.5312,-2.5312,-2.5312,-2.5312,-2.5312,-2.5312,-2.5312,-2.5312,-2.5312,-2.5312,-2.5312,-2.5312,-2.5312,-2.5312,-2.5312,-2.5312,-2.5312,-2.5312,-2.5312,-2.5312,-2.5312,-2.5312,-2.5312,-2.5312,-2.5312,-2.5312,-2.5312,-2.5312,-2.5312,-2.5312,-2.5312,-2.5312,-2.5312,-2.5312,-2.5312,-2.5312,-2.5312,-2.5312,-2.5312,0.0,0.0,-2.5312,-2.5312,-2.5312,-2.5312,-2.5312,-2.5312,-2.5312,-2.5312,-2.5312,-2.5312,-2.5312,-2.5312,-2.5312,-2.5312,-2.5241,-2.5241,-2.4539,-2.4127,-2.4127,-2.4585,-2.4837,-2.4883,-2.5867,-2.6348,-2.6405,-2.6886,-2.7185,-2.7185,-2.7185,-2.7185,-2.7185,-2.7185,-2.7174,-2.7092,-2.7103,-2.6857,-2.6445,-2.6857,-2.6764,-2.6434,-2.9526,-2.9135,-2.8753,-2.9085,-2.8852,-2.8811,-2.9349,-2.9342,-2.9421,-2.9751,-2.9803,-2.9572,-2.8897,-2.8823,-2.8612,-2.8047,-2.7971,-2.7819,-2.7536,-2.7636,-2.7271,-2.6442,-2.5709,-2.5312,-2.5312,-2.5312,-2.5312,-2.5312,-2.5312,-2.5312,-2.5312,-2.5312,-2.5312,-2.5312,-2.5312,-2.5312,-2.5312,-2.5312,-2.5312,-2.5312,-2.5312,-2.5312,-2.5312,-2.5312,-2.5312,-2.5312,-2.5312,-2.5312,-2.5312,-2.5312,-2.5312,-2.5312,-2.5312,-2.5312,-2.5312,-2.5312,-2.5312,-2.5312,-2.5312,-2.5312,-2.5312,-2.5312,-2.5312,-2.5312,-2.5312,-2.5312,-2.5312,-2.5312,-2.5312,-2.5312,-2.5312,-2.5312,-2.5312,-2.5312,0.0,-2.5312,-2.5312,-2.5312,-2.5312,-2.5312,-2.5312,-2.5312,-2.5312,-2.5312,-2.5312,-2.5312,-2.5312,-2.5312,-2.5312,-2.5312,-2.5312,-2.5312,-2.5349,-2.5236,-2.5016,-2.4992,-2.5344,-2.5888,-2.6357,-2.6622,-2.6909,-2.7441,-2.7615,-2.7626,-2.7938,-2.8007,-2.8007,-2.8007,-2.7857,-2.7615,-2.7615,-2.7545,-2.7371,-2.7278,-2.7278,-2.7371,-3.0219,-2.9913,-2.9588,-2.9741,-2.9463,-2.9406,-3.003,-2.9852,-2.9659,-2.9883,-2.9937,-2.9631,-2.8912,-2.8841,-2.8567,-2.7986,-2.7925,-2.7717,-2.7223,-2.7336,-2.7138,-2.6396,-2.566,-2.5312,-2.5312,-2.5312,-2.5312,-2.5312,-2.5312,-2.5312,-2.5312,-2.5312,-2.5312,-2.5312,-2.5312,-2.5312,-2.5312,-2.5312,-2.5312,-2.5312,-2.5312,-2.5312,-2.5312,-2.5312,-2.5312,-2.5312,-2.5312,-2.5312,-2.5312,-2.5312,-2.5312,-2.5312,-2.5312,-2.5312,-2.5312,-2.5312,-2.5312,-2.5312,-2.5312,-2.5312,-2.5312,-2.5312,-2.5312,-2.5312,-2.5312,-2.5312,-2.5312,-2.5312,-2.5312,-2.5312,-2.5312,-2.5312,-2.5312,-2.5312,-2.5312,-2.5312,-2.5312,-2.5312,-2.5312,-2.5312,-2.5312,-2.5312,-2.5312,-2.5312,-2.5312,-2.5312,-2.5312,-2.5312,-2.5312,-2.5312,-2.5384,-2.5552,-2.5913,-2.6115,-2.6174,-2.5948,-2.6147,-2.6823,-2.7009,-2.7277,-2.7603,-2.795,-2.8122,-2.8122,-2.8351,-2.851,-2.851,-2.851,-2.8363,-2.8122,-2.8122,-2.8042,-2.7881,-2.7696,-2.7696,-2.7881,-3.0568,-3.0568,-3.0522,-3.0172,-3.0111,-3.0202,-3.0495,-3.0516,-3.0597,-3.0879,-3.0881,-3.0542,-2.9631,-2.9517,-2.9222,-2.8528,-2.8515,-2.8252,-2.7705,-2.7172,-2.6934,-2.6934,-2.5861,-2.5312,-2.5312,-2.5312,-2.5312,-2.5312,-2.5312,-2.5312,-2.5312,-2.5312,-2.5312,-2.5312,-2.5312,-2.5312,-2.5312,-2.5312,-2.5312,-2.5312,-2.5312,-2.5312,-2.5312,-2.5312,-2.5312,-2.5312,-2.5312,-2.5312,-2.5312,-2.5312,-2.5312,-2.5312,-2.5312,-2.5312,-2.5312,-2.5312,-2.5312,-2.5312,-2.5312,-2.5312,-2.5312,-2.5312,-2.5312,-2.5312,-2.5312,-2.5312,-2.5312,-2.5312,-2.5312,-2.5312,-2.5312,-2.5312,-2.5312,-2.5312,-2.5312,-2.5312,-2.5312,-2.5312,-2.5312,-2.5312,-2.5312,-2.5312,-2.5312,-2.5312,-2.5312,-2.5312,-2.5312,-2.5312,-2.5312,-2.5312,-2.5552,-2.6081,-2.6105,-2.6635,-2.7717,-2.7717,-2.7603,-2.7389,-2.8143,-2.851,-2.851,-2.851,-2.851,-2.851,-2.851,-2.851,-2.851,-2.851,-2.851,-2.851,-2.851,-2.8283,-2.7973,-2.8351,-2.8283,-2.7962,-3.0568,-3.0568,-3.0582,-3.0462,-3.0462,-3.0413,-3.023,-3.0211,-3.0142,-3.0009,-2.9959,-2.9895,-2.9624,-2.9559,-2.9351,-2.8784,-2.8532,-2.8197,-2.7816,-2.7237,-2.6942,-2.6942,-2.6308,-2.5734,-2.5312,-2.5312,-2.5312,-2.5312,-2.5312,-2.5312,-2.5312,-2.5312,-2.5312,-2.5312,-2.5312,-2.5312,-2.5312,-2.5312,-2.5312,-2.5312,-2.5312,-2.5312,-2.5312,-2.5312,-2.5312,-2.5312,-2.5312,-2.5312,-2.5312,-2.5312,-2.5312,-2.5312,-2.5312,-2.5312,-2.5312,-2.5312,-2.5312,-2.5312,-2.5312,-2.5312,-2.5312,-2.5312,-2.5312,-2.5312,-2.5312,-2.5312,-2.5312,-2.5312,-2.5312,-2.5312,-2.5312,-2.5312,-2.5312,-2.5312,-2.5312,-2.5312,-2.5312,-2.5312,-2.5312,-2.5312,-2.5312,-2.5312,-2.5312,-2.5312,-2.5312,-2.5312,-2.5312,-2.5312,-2.5312,-2.5661,-2.5925,-2.6093,-2.6839,-2.7392,-2.7717,-2.7717,-2.7819,-2.8167,-2.8426,-2.851,-2.851,-2.851,-2.851,-2.851,-2.851,-2.851,-2.851,-2.851,-2.851,-2.851,-2.851,-2.8431,-2.8363,-2.8431,-2.8431,-2.8351,-3.0568,-3.0568,-3.0568,-3.0568,-3.0568,-3.0522,-3.0355,-3.028,-3.0158,-2.9851,-2.9803,-2.9741,-2.9602,-2.9602,-2.9477,-2.9135,-2.8739,-2.8481,-2.8495,-2.8026,-2.7683,-2.7683,-2.7417,-2.6744,-2.5664,-2.5861,-2.5861,-2.5664,-2.5664,-2.5523,-2.5312,-2.5312,-2.5312,-2.5312,-2.5312,-2.5453,-2.5664,-2.5382,-2.5453,-2.5664,-2.5382,-2.5312,-2.5312,-2.5312,-2.5312,-2.5312,-2.5312,-2.5453,-2.5664,-2.5664,-2.5804,-2.5931,-2.5721,-2.5664,-2.5594,-2.5382,-2.5312,-2.5312,-2.5312,-2.5312,-2.5312,-2.5312,-2.5312,-2.5312,-2.5312,-2.5312,-2.5312,-2.5312,-2.5312,-2.5312,-2.5312,-2.5312,-2.5312,-2.5312,-2.5312,-2.5312,-2.5312,-2.5312,-2.5312,-2.5312,-2.5312,-2.5312,-2.5312,-2.5312,-2.5312,-2.5312,-2.5504,-2.5624,-2.5624,-2.6142,-2.6526,-2.6731,-2.738,-2.7825,-2.8029,-2.8041,-2.8198,-2.851,-2.851,-2.851,-2.851,-2.851,-2.851,-2.851,-2.851,-2.851,-2.851,-2.851,-2.851,-2.851,-2.851,-2.851,-2.851,-2.851,-2.851,-2.851,-3.0568,-3.0568,-3.0568,-3.0568,-3.0568,-3.0568,-3.0568,-3.0568,-3.0522,-3.0172,-3.0111,-3.005,-2.9727,-2.9665,-2.9665,-2.9665,-2.9198,-2.9135,-2.954,-2.9135,-2.8867,-2.8803,-2.8867,-2.8143,-2.6496,-2.6824,-2.6824,-2.6358,-2.6358,-2.6082,-2.5511,-2.5441,-2.5441,-2.5441,-2.53,-2.5664,-2.6164,-2.5594,-2.5734,-2.622,-2.5652,-2.5441,-2.5441,-2.5441,-2.5441,-2.5441,-2.5441,-2.5804,-2.6233,-2.6233,-2.6564,-2.6892,-2.6427,-2.6302,-2.6151,-2.5581,-2.5441,-2.5441,-2.5441,-2.5453,-2.5382,-2.5382,-2.5312,-2.5312,-2.5312,-2.5312,-2.5312,-2.5312,-2.5312,-2.5382,-2.5382,-2.5441,-2.5453,-2.5382,-2.5382,-2.5382,-2.5312,-2.5312,-2.5312,-2.5312,-2.5312,-2.5312,-2.5312,-2.5348,-2.5384,-2.5384,-2.5877,-2.6178,-2.6178,-2.6695,-2.7136,-2.7693,-2.7765,-2.8029,-2.851,-2.851,-2.851,-2.851,-2.851,-2.851,-2.851,-2.851,-2.851,-2.851,-2.851,-2.851,-2.851,-2.851,-2.851,-2.851,-2.851,-2.851,-2.851,-2.851,-2.851,-2.851,-3.0568,-3.0568,-3.0568,-3.0568,-3.0568,-3.0568,-3.0568,-3.0568,-3.0568,-3.0522,-3.0522,-3.0462,-3.0387,-3.0387,-3.0387,-3.0387,-3.0036,-2.9727,-2.9602,-2.9477,-2.9275,-2.8803,-2.9198,-2.9071,-2.826,-2.7934,-2.7736,-2.7591,-2.7591,-2.7524,-2.7378,-2.6637,-2.6296,-2.6296,-2.5569,-2.5664,-2.6164,-2.6082,-2.6289,-2.6837,-2.6688,-2.662,-2.662,-2.662,-2.662,-2.662,-2.662,-2.6427,-2.6233,-2.6233,-2.6564,-2.6973,-2.6837,-2.6837,-2.6837,-2.6688,-2.662,-2.662,-2.662,-2.6346,-2.6013,-2.6013,-2.5664,-2.5312,-2.5312,-2.5312,-2.5312,-2.5312,-2.5664,-2.6013,-2.6013,-2.6358,-2.6483,-2.6082,-2.6013,-2.5873,-2.5382,-2.5312,-2.5312,-2.5312,-2.5312,-2.5312,-2.5312,-2.5685,-2.5925,-2.5925,-2.6442,-2.6755,-2.6755,-2.7048,-2.7358,-2.7478,-2.8011,-2.839,-2.851,-2.851,-2.851,-2.851,-2.851,-2.851,-2.851,-2.851,-2.851,-2.851,-2.851,-2.851,-2.851,-2.851,-2.851,-2.851,-2.851,-2.851,-2.851,-2.851,-2.851,-2.851,-3.0568,-3.0568,-3.0568,-3.0568,-3.0568,-3.0568,-3.0568,-3.0568,-3.0568,-3.0568,-3.0568,-3.0568,-3.0568,-3.0568,-3.0568,-3.0568,-3.0462,-3.028,-3.0097,-3.0097,-2.996,-2.9685,-2.996,-2.996,-2.9685,-2.9407,-2.8967,-2.839,-2.839,-2.826,-2.7986,-2.7511,-2.7245,-2.7232,-2.665,-2.6676,-2.7162,-2.6769,-2.6905,-2.7377,-2.7108,-2.6973,-2.6973,-2.6973,-2.6973,-2.6973,-2.6973,-2.6973,-2.6973,-2.7242,-2.751,-2.7709,-2.7443,-2.7377,-2.731,-2.7108,-2.6973,-2.6973,-2.6973,-2.6769,-2.6564,-2.6564,-2.6346,-2.607,-2.5804,-2.5523,-2.5382,-2.5664,-2.5734,-2.5804,-2.5804,-2.6,-2.607,-2.5804,-2.6013,-2.6094,-2.5804,-2.5734,-2.5734,-2.5734,-2.5453,-2.5408,-2.5661,-2.5937,-2.6214,-2.6478,-2.7007,-2.722,-2.7107,-2.7675,-2.7885,-2.7885,-2.8263,-2.851,-2.851,-2.851,-2.851,-2.851,-2.851,-2.851,-2.851,-2.851,-2.851,-2.851,-2.851,-2.851,-2.851,-2.851,-2.851,-2.851,-2.851,-2.851,-2.851,-2.851,-2.851,-2.851,-3.0747,-3.0687,-3.0687,-3.0628,-3.0568,-3.0568,-3.0568,-3.0568,-3.0568,-3.0568,-3.0568,-3.0568,-3.0568,-3.0568,-3.0568,-3.0568,-3.0568,-3.0568,-3.0568,-3.0568,-3.0568,-3.0568,-3.0568,-3.0568,-3.0568,-3.0568,-3.0129,-2.9107,-2.9107,-2.8903,-2.8441,-2.8312,-2.8247,-2.8182,-2.7802,-2.7881,-2.8352,-2.763,-2.7564,-2.7973,-2.751,-2.7297,-2.7242,-2.7242,-2.7242,-2.7242,-2.7242,-2.7577,-2.7987,-2.8314,-2.8522,-2.8522,-2.8052,-2.7921,-2.7855,-2.7377,-2.7242,-2.7242,-2.7242,-2.7242,-2.7108,-2.7108,-2.704,-2.6905,-2.6564,-2.6013,-2.5721,-2.622,-2.6013,-2.5721,-2.5721,-2.5791,-2.5779,-2.5652,-2.6013,-2.6302,-2.6082,-2.6025,-2.6025,-2.6025,-2.5667,-2.5661,-2.619,-2.6322,-2.6562,-2.7031,-2.756,-2.7747,-2.761,-2.8167,-2.851,-2.851,-2.851,-2.851,-2.851,-2.851,-2.851,-2.851,-2.851,-2.851,-2.851,-2.851,-2.851,-2.851,-2.851,-2.851,-2.851,-2.851,-2.851,-2.851,-2.851,-2.851,-2.851,-2.851,-2.851,-2.851,-3.1278,-3.1234,-3.1102,-3.0687,-3.0568,-3.0568,-3.0568,-3.0568,-3.0568,-3.0568,-3.0568,-3.0568,-3.0568,-3.0568,-3.0568,-3.0568,-3.0568,-3.0568,-3.0568,-3.0568,-3.0568,-3.0568,-3.0568,-3.0568,-3.0568,-3.0568,-3.0507,-3.0387,-3.0387,-3.0312,-3.0237,-2.9484,-2.9107,-2.9107,-2.8325,-2.826,-2.8725,-2.8597,-2.8688,-2.8908,-2.883,-2.8638,-2.8392,-2.8392,-2.8392,-2.8392,-2.8392,-2.8457,-2.8457,-2.8052,-2.8197,-2.8587,-2.8522,-2.8522,-2.8457,-2.8392,-2.8392,-2.8392,-2.8392,-2.8052,-2.7709,-2.7709,-2.731,-2.7108,-2.751,-2.7162,-2.6756,-2.6905,-2.7175,-2.743,-2.743,-2.7842,-2.7842,-2.6892,-2.6837,-2.6564,-2.5594,-2.5453,-2.5453,-2.5453,-2.578,-2.6202,-2.6767,-2.7236,-2.7536,-2.7609,-2.8114,-2.8402,-2.839,-2.8462,-2.851,-2.851,-2.851,-2.851,-2.851,-2.851,-2.851,-2.851,-2.851,-2.851,-2.851,-2.851,-2.851,-2.851,-2.851,-2.851,-2.851,-2.851,-2.851,-2.851,-2.851,-2.851,-2.851,-2.851,-2.851,-2.851,-3.1667,-3.1667,-3.1552,-3.1364,-3.1146,-3.0984,-3.0984,-3.0747,-3.0568,-3.0568,-3.0568,-3.0568,-3.0568,-3.0568,-3.0568,-3.0568,-3.0568,-3.0568,-3.0568,-3.0568,-3.0568,-3.0568,-3.0568,-3.0568,-3.0568,-3.0568,-3.0568,-3.0568,-3.0568,-3.0568,-3.0568,-3.019,-3.0007,-3.0007,-2.9435,-2.931,-2.9512,-2.9338,-2.9275,-2.9352,-2.9352,-2.9289,-2.9162,-2.9162,-2.9035,-2.8844,-2.8651,-2.8587,-2.8587,-2.8327,-2.8392,-2.8587,-2.8587,-2.8587,-2.8587,-2.8587,-2.8587,-2.8587,-2.8587,-2.8457,-2.8249,-2.8249,-2.8052,-2.7987,-2.8183,-2.8052,-2.7776,-2.751,-2.7377,-2.7377,-2.7377,-2.7577,-2.7577,-2.7108,-2.7242,-2.7297,-2.6756,-2.6688,-2.6584,-2.6267,-2.6723,-2.7127,-2.732,-2.7584,-2.7849,-2.8138,-2.8378,-2.851,-2.851,-2.851,-2.851,-2.851,-2.851,-2.851,-2.851,-2.851,-2.851,-2.851,-2.851,-2.851,-2.851,-2.851,-2.851,-2.851,-2.851,-2.851,-2.851,-2.851,-2.851,-2.851,-2.851,-2.851,-2.851,-2.851,-2.851,-2.851]},{"header":{"parameterUnit":"m.s-1","parameterCategory":1,"la1":30.6,"la2":28.766,"lo1":-90.7593,"lo2":-88.6598,"dy":0.0162,"dx":0.0183,"nx":116,"ny":114,"refTime":"2023-06-01T12:00:00:Z","depth":0,"parameterNumber":3,"parameterNumberName":"V-component_of_WINDS"},"data":[0.0,0.0,0.0,0.0,0.0,0.0,0.0,0.0,0.0,0.0,0.0,0.0,0.0,0.0,0.0,0.0,0.0,0.0,0.0,0.0,0.0,0.0,0.0,0.0,0.0,0.0,0.0,0.0,0.0,0.0,0.0,0.0,0.0,0.0,0.0,0.0,0.0,0.0,0.0,0.0,0.0,0.0,0.0,0.0,0.0,0.0,0.0,0.0,0.0,0.0,0.0,0.0,0.0,0.0,0.0,0.0,0.0,0.0,0.0,0.0,0.0,0.0,0.0,0.0,0.0,0.0,0.0,0.0,0.0,0.0,0.0,0.0,0.0,0.0,0.0,0.0,0.0,0.0,0.0,0.0,0.0,0.0,0.0,0.0,0.0,0.0,0.0,0.0,0.0,0.0,0.0,0.0,0.0,0.0,0.0,0.0,0.0,0.0,0.0,0.0,0.0,0.0,0.0,0.0,0.0,0.0,0.0,0.0,0.0,0.0,0.0,0.0,0.0,0.0,0.0,0.0,0.0,0.0,0.0,0.0,0.0,0.0,0.0,0.0,0.0,0.0,0.0,0.0,0.0,0.0,0.0,0.0,0.0,0.0,0.0,0.0,0.0,0.0,0.0,0.0,0.0,0.0,0.0,0.0,0.0,0.0,0.0,0.0,0.0,0.0,0.0,0.0,0.0,0.0,0.0,0.0,0.0,0.0,0.0,0.0,0.0,0.0,0.0,0.0,0.0,0.0,0.0,0.0,0.0,0.0,0.0,0.0,0.0,0.0,0.0,0.0,0.0,0.0,0.0,0.0,0.0,0.0,0.0,0.0,0.0,0.0,0.0,0.0,0.0,0.0,0.0,0.0,0.0,0.0,0.0,0.0,0.0,0.0,0.0,0.0,0.0,0.0,0.0,0.0,0.0,0.0,0.0,0.0,0.0,0.0,0.0,0.0,0.0,0.0,0.0,0.0,0.0,0.0,0.0,0.0,0.0,0.0,0.0,0.0,0.0,0.0,0.0,0.0,0.0,0.0,0.0,0.0,0.0,0.0,0.0,0.0,0.0,0.0,0.0,0.0,0.0,0.0,0.0,0.0,0.0,0.0,0.0,0.0,0.0,0.0,0.0,0.0,0.0,0.0,0.0,0.0,0.0,0.0,0.0,0.0,0.0,0.0,0.0,0.0,0.0,0.0,0.0,0.0,0.0,0.0,0.0,0.0,0.0,0.0,0.0,0.0,0.0,0.0,0.0,0.0,0.0,0.0,0.0,0.0,0.0,0.0,0.0,0.0,0.0,0.0,0.0,0.0,0.0,0.0,0.0,0.0,0.0,0.0,0.0,0.0,0.0,0.0,0.0,0.0,0.0,0.0,0.0,0.0,0.0,0.0,0.0,0.0,0.0,0.0,0.0,0.0,0.0,0.0,0.0,0.0,0.0,0.0,0.0,0.0,0.0,0.0,0.0,0.0,0.0,0.0,0.0,0.0,0.0,0.0,0.0,0.0,0.0,0.0,0.0,0.0,0.0,0.0,0.0,0.0,0.0,0.0,0.0,0.0,0.0,0.0,0.0,0.0,0.0,0.0,0.0,0.0,0.0,0.0,0.0,0.0,0.0,0.0,0.0,0.0,0.0,0.0,0.0,0.0,0.0,0.0,0.0,0.0,0.0,0.0,0.0,0.0,0.0,0.0,0.0,0.0,0.0,0.0,0.0,0.0,0.0,0.0,0.0,0.0,0.0,0.0,0.0,0.0,0.0,0.0,0.0,0.0,0.0,0.0,0.0,0.0,0.0,0.0,0.0,0.0,0.0,0.0,0.0,0.0,0.0,0.0,0.0,0.0,0.0,0.0,0.0,0.0,0.0,0.0,0.0,0.0,0.0,0.0,0.0,0.0,0.0,0.0,0.0,0.0,0.0,0.0,0.0,0.0,0.0,0.0,0.0,0.0,0.0,0.0,0.0,0.0,0.0,0.0,0.0,0.0,0.0,0.0,0.0,0.0,0.0,0.0,0.0,0.0,0.0,0.0,0.0,0.0,0.0,0.0,0.0,0.0,0.0,0.0,0.0,0.0,0.0,0.0,0.0,0.0,0.0,0.0,0.0,0.0,0.0,0.0,0.0,0.0,0.0,0.0,0.0,0.0,0.0,0.0,0.0,0.0,0.0,0.0,0.0,0.0,0.0,0.0,0.0,0.0,0.0,0.0,0.0,0.0,0.0,0.0,0.0,0.0,0.0,0.0,0.0,0.0,0.0,0.0,0.0,0.0,0.0,0.0,0.0,0.0,0.0,0.0,0.0,0.0,0.0,0.0,0.0,0.0,0.0,0.0,0.0,0.0,0.0,0.0,0.0,0.0,0.0,0.0,0.0,0.0,0.0,0.0,0.0,0.0,0.0,0.0,0.0,0.0,0.0,0.0,0.0,0.0,0.0,0.0,0.0,0.0,0.0,0.0,0.0,0.0,0.0,0.0,0.0,0.0,0.0,0.0,0.0,0.0,0.0,0.0,0.0,0.0,0.0,0.0,0.0,0.0,0.0,0.0,0.0,0.0,0.0,0.0,0.0,0.0,0.0,0.0,0.0,0.0,0.0,0.0,0.0,0.0,0.0,0.0,0.0,0.0,0.0,0.0,0.0,0.0,0.0,0.0,0.0,0.0,0.0,0.0,0.0,0.0,0.0,0.0,0.0,0.0,0.0,0.0,0.0,0.0,0.0,0.0,0.0,0.0,0.0,0.0,0.0,0.0,0.0,0.0,0.0,0.0,0.0,0.0,0.0,0.0,0.0,0.0,0.0,0.0,0.0,0.0,0.0,0.0,0.0,0.0,0.0,0.0,0.0,0.0,0.0,0.0,0.0,0.0,0.0,0.0,0.0,0.0,0.0,0.0,0.0,0.0,0.0,0.0,0.0,0.0,0.0,0.0,0.0,0.0,0.0,0.0,0.0,0.0,0.0,0.0,0.0,0.0,0.0,0.0,0.0,0.0,0.0,0.0,0.0,0.0,0.0,0.0,0.0,0.0,0.0,0.0,0.0,0.0,0.0,0.0,0.0,0.0,0.0,0.0,0.0,0.0,0.0,0.0,0.0,0.0,0.0,0.0,0.0,0.0,0.0,0.0,0.0,0.0,0.0,0.0,0.0,0.0,0.0,0.0,0.0,0.0,0.0,0.0,0.0,0.0,0.0,0.0,0.0,0.0,0.0,0.0,0.0,0.0,0.0,0.0,0.0,0.0,0.0,0.0,0.0,0.0,0.0,0.0,0.0,0.0,0.0,0.0,0.0,0.0,0.0,0.0,0.0,0.0,0.0,0.0,0.0,0.0,0.0,0.0,0.0,0.0,0.0,0.0,0.0,0.0,0.0,0.0,0.0,0.0,0.0,0.0,0.0,0.0,0.0,0.0,0.0,0.0,0.0,0.0,0.0,0.0,0.0,0.0,0.0,0.0,0.0,0.0,0.0,0.0,0.0,0.0,0.0,0.0,0.0,0.0,0.0,0.0,0.0,0.0,0.0,0.0,0.0,0.0,0.0,0.0,0.0,0.0,0.0,0.0,0.0,0.0,0.0,0.0,0.0,0.0,0.0,0.0,0.0,0.0,0.0,0.0,0.0,0.0,0.0,0.0,0.0,0.0,0.0,0.0,0.0,0.0,0.0,0.0,0.0,0.0,0.0,0.0,0.0,0.0,0.0,0.0,0.0,0.0,0.0,0.0,0.0,0.0,0.0,0.0,0.0,0.0,0.0,0.0,0.0,0.0,0.0,0.0,0.0,0.0,0.0,0.0,0.0,0.0,0.0,0.0,0.0,0.0,0.0,0.0,0.0,0.0,0.0,0.0,0.0,0.0,0.0,0.0,0.0,0.0,0.0,0.0,0.0,0.0,0.0,0.0,0.0,0.0,0.0,0.0,0.0,0.0,0.0,0.0,0.0,0.0,0.0,0.0,0.0,0.0,0.0,0.0,0.0,0.0,0.0,0.0,0.0,0.0,0.0,0.0,0.0,0.0,0.0,0.0,0.0,0.0,0.0,0.0,0.0,0.0,0.0,0.0,0.0,0.0,0.0,0.0,0.0,0.0,0.0,0.0,0.0,0.0,0.0,0.0,0.0,0.0,0.0,0.0,0.0,0.0,0.0,0.0,0.0,0.0,0.0,0.0,0.0,0.0,0.0,0.0,0.0,0.0,0.0,0.0,0.0,0.0,0.0,0.0,0.0,0.0,0.0,0.0,0.0,0.0,0.0,0.0,0.0,0.0,0.0,0.0,0.0,0.0,0.0,0.0,0.0,0.0,0.0,0.0,0.0,0.0,0.0,0.0,0.0,0.0,0.0,0.0,0.0,0.0,0.0,0.0,0.0,0.0,0.0,0.0,0.0,0.0,0.0,0.0,0.0,0.0,0.0,0.0,0.0,0.0,0.0,0.0,0.0,0.0,0.0,0.0,0.0,0.0,0.0,0.0,0.0,0.0,0.0,0.0,0.0,0.0,0.0,0.0,0.0,0.0,0.0,0.0,0.0,0.0,0.0,0.0,0.0,0.0,0.0,0.0,0.0,0.0,0.0,0.0,0.0,0.0,0.0,0.0,0.0,0.0,0.0,0.0,0.0,0.0,0.0,0.0,0.0,0.0,0.0,0.0,0.0,0.0,0.0,0.0,0.0,0.0,0.0,0.0,0.0,0.0,0.0,0.0,0.0,0.0,0.0,0.0,0.0,0.0,0.0,0.0,0.0,0.0,0.0,0.0,0.0,0.0,0.0,0.0,0.0,0.0,0.0,0.0,0.0,0.0,0.0,0.0,0.0,0.0,0.0,0.0,0.0,0.0,0.0,0.0,0.0,0.0,0.0,0.0,0.0,0.0,0.0,0.0,0.0,0.0,0.0,0.0,0.0,0.0,0.0,0.0,0.0,0.0,0.0,0.0,0.0,0.0,0.0,0.0,0.0,0.0,0.0,0.0,0.0,0.0,0.0,0.0,0.0,0.0,0.0,0.0,0.0,0.0,0.0,0.0,0.0,0.0,0.0,0.0,0.0,0.0,0.0,0.0,0.0,0.0,0.0,0.0,0.0,0.0,0.0,0.0,0.0,0.0,0.0,0.0,0.0,0.0,0.0,0.0,0.0,0.0,0.0,0.0,0.0,0.0,0.0,0.0,0.0,0.0,0.0,0.0,0.0,0.0,0.0,0.0,0.0,0.0,0.0,0.0,0.0,0.0,0.0,0.0,0.0,0.0,0.0,0.0,0.0,0.0,0.0,0.0,0.0,0.0,0.0,0.0,0.0,0.0,0.0,0.0,0.0,0.0,0.0,0.0,0.0,0.0,0.0,0.0,0.0,0.0,0.0,0.0,0.0,0.0,0.0,0.0,0.0,0.0,0.0,0.0,0.0,0.0,0.0,0.0,0.0,0.0,0.0,0.0,0.0,0.0,0.0,0.0,0.0,0.0,0.0,0.0,0.0,0.0,0.0,0.0,0.0,0.0,0.0,0.0,0.0,0.0,0.0,0.0,0.0,0.0,0.0,0.0,0.0,0.0,0.0,0.0,0.0,0.0,0.0,0.0,0.0,0.0,0.0,0.0,0.0,0.0,0.0,0.0,0.0,0.0,0.0,0.0,0.0,0.0,0.0,0.0,0.0,0.0,0.0,0.0,0.0,0.0,0.0,0.0,0.0,0.0,0.0,0.0,0.0,0.0,0.0,0.0,0.0,0.0,0.0,0.0,0.0,0.0,0.0,0.0,0.0,0.0,0.0,0.0,0.0,0.0,0.0,0.0,0.0,0.0,0.0,0.0,0.0,0.0,0.0,0.0,0.0,0.0,0.0,0.0,0.0,0.0,0.0,0.0,0.0,0.0,0.0,0.0,0.0,0.0,0.0,0.0,0.0,0.0,0.0,0.0,0.0,0.0,0.0,0.0,0.0,0.0,0.0,0.0,0.0,0.0,0.0,0.0,0.0,0.0,0.0,0.0,0.0,0.0,0.0,0.0,0.0,0.0,0.0,0.0,0.0,0.0,0.0,0.0,0.0,0.0,0.0,0.0,0.0,0.0,0.0,0.0,0.0,0.0,0.0,0.0,0.0,0.0,0.0,0.0,0.0,0.0,0.0,0.0,0.0,0.0,0.0,0.0,0.0,0.0,-3.7897,0.0,0.0,0.0,0.0,0.0,0.0,0.0,0.0,0.0,0.0,0.0,0.0,0.0,0.0,0.0,0.0,0.0,0.0,0.0,0.0,0.0,0.0,0.0,0.0,0.0,0.0,0.0,0.0,0.0,0.0,0.0,0.0,0.0,0.0,0.0,0.0,0.0,0.0,-3.0691,-3.0698,-3.073,-3.0796,-3.0794,-3.0791,-3.0791,0.0,0.0,0.0,0.0,0.0,0.0,0.0,0.0,0.0,0.0,0.0,0.0,0.0,0.0,0.0,0.0,0.0,0.0,0.0,0.0,0.0,0.0,0.0,0.0,0.0,0.0,0.0,0.0,0.0,0.0,0.0,0.0,0.0,0.0,0.0,0.0,0.0,0.0,0.0,0.0,0.0,0.0,0.0,0.0,0.0,0.0,0.0,0.0,0.0,0.0,0.0,0.0,0.0,0.0,0.0,0.0,0.0,0.0,0.0,0.0,0.0,0.0,0.0,0.0,0.0,0.0,0.0,0.0,0.0,0.0,0.0,-3.8682,0.0,0.0,0.0,0.0,0.0,0.0,0.0,0.0,0.0,0.0,0.0,0.0,0.0,0.0,0.0,0.0,0.0,0.0,0.0,0.0,0.0,0.0,0.0,-2.9991,-3.0057,-3.0102,-3.0161,-3.0171,0.0,0.0,0.0,0.0,0.0,0.0,0.0,-3.0329,-3.0453,-3.0672,-3.0716,-3.0755,-3.0794,-3.0798,-3.0798,-3.0794,-3.0798,0.0,0.0,0.0,0.0,0.0,0.0,0.0,0.0,0.0,0.0,0.0,0.0,0.0,0.0,0.0,0.0,0.0,0.0,0.0,0.0,0.0,0.0,0.0,0.0,0.0,0.0,0.0,0.0,0.0,0.0,0.0,0.0,0.0,0.0,0.0,0.0,0.0,0.0,0.0,0.0,0.0,0.0,0.0,0.0,0.0,0.0,0.0,0.0,0.0,0.0,0.0,0.0,0.0,0.0,0.0,0.0,0.0,0.0,0.0,0.0,0.0,0.0,0.0,-3.968,-4.0037,-4.0042,-4.0713,-4.1056,-4.1022,-3.958,-3.9365,-4.0018,0.0,0.0,0.0,0.0,0.0,0.0,0.0,0.0,0.0,0.0,0.0,0.0,0.0,0.0,0.0,0.0,0.0,0.0,0.0,0.0,0.0,0.0,-2.9805,-2.9857,-3.0087,-3.0102,-3.0098,-3.0109,0.0,0.0,0.0,0.0,0.0,-3.0297,-3.0472,-3.0571,-3.062,-3.073,-3.079,-3.0808,-3.0798,-3.0798,-3.0808,-3.081,-3.0798,-3.0856,0.0,0.0,0.0,0.0,0.0,0.0,0.0,0.0,0.0,0.0,0.0,0.0,0.0,0.0,0.0,0.0,0.0,0.0,0.0,0.0,0.0,0.0,0.0,0.0,0.0,0.0,0.0,0.0,0.0,0.0,0.0,0.0,0.0,0.0,0.0,0.0,0.0,0.0,0.0,0.0,0.0,-3.5866,-3.5852,0.0,0.0,0.0,0.0,0.0,0.0,0.0,0.0,0.0,0.0,0.0,0.0,0.0,0.0,-3.9616,-3.9624,-4.0004,-4.076,-4.0877,-4.0925,-4.0925,-4.1042,-4.1085,-4.1085,-4.087,0.0,-4.0935,-4.0911,0.0,0.0,0.0,0.0,0.0,0.0,0.0,0.0,0.0,0.0,0.0,0.0,0.0,0.0,0.0,0.0,0.0,0.0,0.0,0.0,0.0,-2.9822,-2.9924,-3.0038,-3.0083,-3.0098,-3.0098,-3.0098,0.0,0.0,0.0,-3.0194,-3.0188,-3.0348,-3.049,-3.0593,-3.0735,-3.0798,-3.0799,-3.0798,-3.0798,-3.0818,-3.1304,-3.1523,-3.1582,-3.2459,0.0,0.0,0.0,0.0,0.0,0.0,0.0,0.0,0.0,0.0,0.0,0.0,0.0,0.0,0.0,0.0,0.0,0.0,0.0,0.0,0.0,0.0,0.0,0.0,0.0,0.0,0.0,0.0,0.0,0.0,0.0,0.0,0.0,0.0,0.0,0.0,0.0,0.0,0.0,-3.5904,-3.589,-3.589,-3.5908,-3.6073,0.0,0.0,0.0,0.0,0.0,0.0,0.0,0.0,0.0,-3.9229,-3.9716,-4.0131,-4.0539,-4.1013,-4.1451,-4.1841,-4.2339,-4.2557,-4.2558,-4.2557,-4.2557,-4.2558,-4.2558,-4.2558,-4.2496,-4.1504,-4.1062,-4.1007,0.0,0.0,0.0,0.0,-4.1032,-4.105,0.0,0.0,0.0,0.0,0.0,0.0,0.0,0.0,0.0,0.0,0.0,0.0,-2.9681,-2.9805,-2.994,-3.0053,-3.0049,-3.0064,-3.0132,-3.0083,-3.0049,-3.0038,-3.0072,-3.0083,-3.0123,-3.0292,-3.0463,-3.0659,-3.0745,-3.0799,-3.0799,-3.0799,-3.0916,-3.1154,-3.1817,-3.2094,-3.2172,-3.3239,-3.4057,-3.4681,0.0,0.0,0.0,0.0,0.0,0.0,0.0,0.0,0.0,0.0,0.0,0.0,0.0,0.0,0.0,0.0,0.0,0.0,0.0,0.0,0.0,0.0,0.0,0.0,0.0,0.0,0.0,0.0,0.0,0.0,0.0,0.0,0.0,0.0,0.0,0.0,0.0,-3.6107,-3.6243,-3.6239,-3.6436,-3.6805,0.0,0.0,0.0,0.0,0.0,0.0,-3.8824,-3.9858,-4.0442,-4.0467,-4.1306,-4.178,-4.1769,-4.2401,-4.2734,-4.2734,-4.3395,-4.3702,-4.3702,-4.3702,-4.3702,-4.3702,-4.3702,-4.3698,-4.3581,-4.2285,-4.1737,-4.1679,-4.1673,-4.1673,-4.1677,-4.1668,-4.1665,-4.167,0.0,0.0,0.0,0.0,0.0,0.0,0.0,0.0,0.0,0.0,0.0,-2.9474,-2.9839,-2.9716,-2.9769,-3.0157,-3.0019,-3.0003,-3.0171,-3.0019,-2.9905,-2.9905,-2.9972,-3.0068,-3.0185,-3.0451,-3.0656,-3.0799,-3.0799,-3.0799,-3.0799,-3.0799,-3.1232,-3.2036,-3.2075,-3.2094,-3.2211,-3.3843,-3.4564,-3.4681,-3.5558,0.0,0.0,0.0,0.0,0.0,0.0,0.0,0.0,0.0,0.0,0.0,0.0,0.0,0.0,0.0,0.0,0.0,0.0,0.0,0.0,0.0,0.0,0.0,0.0,0.0,0.0,0.0,0.0,0.0,0.0,0.0,0.0,0.0,0.0,0.0,0.0,0.0,0.0,-3.7136,-3.7878,0.0,0.0,0.0,0.0,-3.8486,-3.9265,-3.9726,-3.9732,-4.1294,-4.2203,-4.2261,-4.3118,-4.3567,-4.3567,-4.3605,-4.3624,-4.3644,-4.3683,-4.3702,-4.3702,-4.3702,-4.3702,-4.3702,-4.3702,-4.3651,-4.3591,-4.3579,-4.3531,-4.3476,-4.3537,-4.3528,-4.3476,-4.3478,-4.347,-4.3473,0.0,0.0,0.0,0.0,0.0,0.0,0.0,0.0,-2.9048,-2.9206,-2.9375,-2.957,-2.982,-2.9886,-3.0015,-3.024,-3.0188,-3.0161,-3.0142,-3.0113,-3.0034,-2.9924,-3.0003,-3.018,-3.0383,-3.0492,-3.0599,-3.0749,-3.0748,-3.0748,-3.0749,-3.1306,-3.1734,-3.2091,-3.3154,-3.364,-3.3686,-3.4333,-3.4915,-3.546,-3.5772,-3.5908,0.0,0.0,0.0,0.0,0.0,0.0,0.0,0.0,0.0,0.0,0.0,0.0,0.0,0.0,0.0,0.0,0.0,0.0,0.0,0.0,0.0,0.0,0.0,0.0,0.0,0.0,0.0,0.0,0.0,0.0,0.0,0.0,0.0,0.0,0.0,0.0,0.0,-3.8038,-3.8307,0.0,0.0,-3.9345,-3.9774,-4.0867,-4.126,-4.1718,-4.2284,-4.287,-4.3201,-4.3234,-4.4032,-4.4462,-4.4462,-4.5581,-4.616,-4.616,-4.6704,-4.6986,-4.6986,-4.6986,-4.6986,-4.6986,-4.6986,-4.6975,-4.6943,-4.6975,-4.5645,-4.3602,-4.3621,-4.3612,-4.3591,-4.361,-4.3604,-4.3602,0.0,0.0,0.0,0.0,0.0,0.0,0.0,0.0,-2.9026,-2.9097,-2.9395,-2.9662,-2.982,-2.9953,-3.0094,-3.0226,-3.0188,-3.0161,-3.0109,-3.0094,-3.0049,-2.9969,-3.0118,-3.0292,-3.0491,-3.052,-3.0582,-3.069,-3.0698,-3.0847,-3.1156,-3.1721,-3.2298,-3.2897,-3.4004,-3.4664,-3.4944,-3.4996,-3.5327,-3.5879,-3.5879,-3.5879,-3.5879,0.0,0.0,0.0,0.0,0.0,0.0,0.0,0.0,0.0,0.0,0.0,0.0,0.0,0.0,0.0,0.0,0.0,0.0,0.0,0.0,0.0,0.0,0.0,0.0,0.0,0.0,0.0,0.0,0.0,0.0,0.0,0.0,0.0,0.0,0.0,-3.899,-3.8944,-3.9454,-4.004,-4.059,-4.0928,-4.1581,-4.2694,-4.3065,-4.3505,-4.4064,-4.4667,-4.4976,-4.4988,-4.5785,-4.6214,-4.6214,-4.7362,-4.7936,-4.7956,-4.8509,-4.8806,-4.8806,-4.8806,-4.8806,-4.8806,-4.8806,-4.8806,-4.8806,-4.8806,-4.7443,-4.5358,-4.5358,-4.5358,-4.5358,-4.5358,-4.5358,-4.5319,0.0,0.0,0.0,0.0,0.0,0.0,0.0,-2.8929,-2.9052,-2.9272,-2.9474,-2.9681,-2.9888,-2.9905,-2.9953,-3.0094,-3.0003,-2.9972,-3.0094,-2.9969,-2.9969,-3.0109,-3.0292,-3.0419,-3.0491,-3.0567,-3.0645,-3.0729,-3.0749,-3.1176,-3.2023,-3.2062,-3.2936,-3.4509,-3.4528,-3.5014,-3.5791,-3.5791,-3.5791,-3.5791,-3.5791,-3.5799,-3.5799,0.0,0.0,0.0,0.0,0.0,0.0,0.0,0.0,0.0,0.0,0.0,0.0,0.0,0.0,0.0,0.0,0.0,0.0,0.0,0.0,0.0,0.0,0.0,0.0,0.0,0.0,0.0,0.0,0.0,0.0,0.0,0.0,0.0,-3.8691,-3.9335,-3.9882,-3.9883,-4.1404,-4.2417,-4.2382,-4.3198,-4.3759,-4.3818,-4.4538,-4.4998,-4.5031,-4.6626,-4.7546,-4.754,-4.8378,-4.8845,-4.8845,-4.8865,-4.8884,-4.8884,-4.8884,-4.8884,-4.8884,-4.8884,-4.8884,-4.8884,-4.8884,-4.8884,-4.8884,-4.8884,-4.8884,-4.8865,-4.8826,-4.8806,-4.8806,-4.8806,-4.8806,-4.867,0.0,0.0,0.0,0.0,0.0,0.0,0.0,-2.8791,-2.9052,-2.9272,-2.9474,-2.9716,-3.0,-3.0049,-3.0109,-3.024,-3.0213,-3.0166,-3.0109,-3.0152,-3.0234,-3.0316,-3.0364,-3.0449,-3.0569,-3.0588,-3.0896,-3.1505,-3.154,-3.1986,-3.2803,-3.3431,-3.3993,-3.4449,-3.5088,-3.5494,-3.5727,-3.5727,-3.5727,-3.5737,-3.5793,-3.5799,-3.5799,0.0,0.0,0.0,0.0,0.0,0.0,0.0,0.0,0.0,0.0,0.0,0.0,0.0,0.0,0.0,0.0,0.0,0.0,0.0,0.0,0.0,0.0,0.0,0.0,0.0,0.0,0.0,0.0,0.0,0.0,0.0,0.0,-4.138,-4.0505,-4.115,-4.1696,-4.1696,-4.2669,-4.3566,-4.4134,-4.4413,-4.5082,-4.6351,-4.666,-4.7067,-4.7697,-4.8185,-4.8431,-4.8436,-4.9235,-4.9664,-4.9664,-5.0307,-5.0618,-5.0618,-5.0618,-5.0618,-5.0618,-5.0618,-5.0618,-5.0618,-5.0618,-5.0618,-5.0618,-5.0618,-5.0618,-5.0482,-4.9274,-4.8806,-4.8806,-4.8806,-4.8806,-4.8768,0.0,0.0,0.0,0.0,0.0,0.0,0.0,-2.8845,-2.9163,-2.9353,-2.9589,-2.9786,-2.9984,-3.0019,-3.0049,-3.0123,-3.0138,-3.0109,-3.0015,-3.018,-3.033,-3.0386,-3.0449,-3.051,-3.0598,-3.0926,-3.1333,-3.1797,-3.2193,-3.2832,-3.3654,-3.4168,-3.4594,-3.4969,-3.5472,-3.5704,-3.5704,-3.5704,-3.5704,-3.5695,-3.5737,-3.5757,-3.5757,-3.5756,-3.5765,-3.5754,-3.5791,-3.5799,-3.5818,-3.585,0.0,0.0,0.0,0.0,0.0,0.0,0.0,0.0,0.0,0.0,0.0,0.0,0.0,0.0,0.0,0.0,0.0,0.0,0.0,0.0,0.0,0.0,0.0,0.0,-4.2334,-4.2854,-4.2721,-4.2806,-4.3043,-4.3404,-4.422,-4.5078,-4.5913,-4.6323,-4.6955,-4.7969,-4.8353,-4.8768,-4.9274,-4.9644,-4.9859,-4.9859,-5.0307,-5.0541,-5.0541,-5.1047,-5.13,-5.13,-5.13,-5.13,-5.13,-5.13,-5.13,0.0,-5.13,-5.13,-5.13,-5.13,-5.13,0.0,0.0,0.0,0.0,0.0,-4.9625,-4.9294,0.0,0.0,0.0,0.0,0.0,0.0,0.0,-2.8943,-2.923,-2.9414,-2.9699,-2.9907,-2.9907,-2.9907,-2.9888,-2.9888,-2.9888,-2.9905,-2.9937,-3.018,-3.0336,-3.0428,-3.054,-3.0598,-3.0598,-3.1391,-3.1855,-3.1952,-3.2822,-3.3692,-3.4543,-3.4543,-3.4949,-3.5704,-3.5704,-3.5704,-3.5704,-3.5704,-3.5684,-3.5673,-3.5673,-3.5693,-3.5695,-3.5698,-3.5699,-3.5708,-3.5765,-3.5782,-3.5782,-3.5782,0.0,0.0,0.0,0.0,0.0,0.0,0.0,0.0,0.0,0.0,0.0,0.0,0.0,0.0,0.0,0.0,0.0,0.0,0.0,0.0,0.0,0.0,0.0,0.0,-4.3254,-4.4169,-4.4922,-4.4551,-4.4421,-4.5105,-4.5955,-4.6812,-4.7681,-4.8468,-4.8962,-4.9052,-4.9742,-5.0151,-5.0151,0.0,0.0,0.0,0.0,-5.13,-5.13,-5.13,-5.13,-5.13,-5.13,-5.13,-5.13,-5.13,-5.13,-5.13,-5.13,-5.13,-5.13,-5.13,-5.13,-5.13,-5.13,-5.13,-5.13,-5.13,-5.0813,-5.0151,0.0,0.0,0.0,0.0,0.0,0.0,0.0,-2.8737,-2.906,-2.9082,-2.9513,-2.9806,-2.9806,-2.9874,-2.9888,-2.9888,-2.9888,-2.9984,-3.0213,-3.0323,-3.0428,-3.055,-3.0588,-3.0598,-3.0598,-3.1391,-3.2135,-3.285,-3.3712,-3.4582,-3.5452,-3.5452,-3.553,-3.5704,-3.5704,-3.5704,-3.5704,-3.5704,-3.5651,-3.554,-3.554,-3.5608,-3.5704,-3.5695,-3.5706,-3.5706,-3.5716,-3.5716,-3.5727,-3.5728,-3.5718,-3.5727,-3.5782,-3.5799,0.0,0.0,0.0,0.0,0.0,0.0,0.0,0.0,0.0,0.0,0.0,0.0,0.0,0.0,0.0,0.0,0.0,0.0,0.0,-4.3227,-4.4676,-4.5733,-4.5857,-4.6928,-4.752,-4.6978,-4.7678,-4.8516,-4.9273,-4.9603,-5.0038,-5.0685,-5.0925,-5.1047,-5.1047,-5.1203,0.0,-5.13,-5.13,-5.13,-5.13,-5.13,-5.13,-5.13,0.0,0.0,-5.13,-5.13,-5.13,-5.13,-5.13,-5.13,-5.13,-5.13,-5.13,-5.13,-5.13,-5.13,-5.13,-5.13,-5.1183,-5.1047,0.0,0.0,0.0,0.0,0.0,0.0,0.0,-2.8664,-2.8929,-2.9166,-2.9456,-2.9698,-2.9841,-2.9891,-2.9888,-2.9888,-2.9888,-3.0003,-3.0199,-3.0215,-3.0311,-3.0436,-3.0455,-3.0455,-3.0455,-3.1733,-3.2604,-3.3048,-3.4386,-3.5259,-3.5704,-3.5704,-3.5704,-3.5704,-3.562,-3.5596,-3.5596,-3.5528,-3.5457,-3.5402,-3.5402,-3.543,-3.5502,-3.5565,-3.5651,-3.5704,-3.5704,-3.5704,-3.5695,-3.5697,-3.5707,-3.5707,-3.5737,-3.5747,-3.5842,0.0,0.0,0.0,0.0,0.0,0.0,0.0,0.0,0.0,0.0,0.0,0.0,0.0,0.0,-4.1968,0.0,0.0,-4.4384,-4.4832,-4.6352,-4.7622,-4.7942,-4.8711,-4.9079,-4.8651,-4.8982,-4.9573,-5.0367,-5.0519,-5.0714,-5.1111,-5.1171,-5.1211,-5.1211,-5.1211,-5.1211,-5.1211,-5.1211,-5.1211,-5.1211,-5.1211,-5.1211,-5.1211,-5.1211,-5.1211,-5.1211,-5.1211,-5.1211,-5.1211,-5.1211,-5.1211,-5.1211,-5.1211,-5.1211,-5.1211,-5.1211,-5.1239,-5.13,-5.13,-5.13,-5.13,0.0,0.0,0.0,0.0,0.0,0.0,0.0,-2.8583,-2.8832,-2.9206,-2.9377,-2.957,-2.9787,-2.9855,-2.9888,-2.9888,-2.9921,-2.9984,-3.0094,-3.0123,-3.0199,-3.0312,-3.0292,-3.0292,-3.0292,-3.2076,-3.3003,-3.3003,-3.4778,-3.5662,-3.5662,-3.562,-3.5608,-3.5628,-3.5515,-3.5457,-3.5457,-3.536,-3.5281,-3.5251,-3.5251,-3.5251,-3.5266,-3.5388,-3.5528,-3.5662,-3.5662,-3.5673,-3.5704,-3.5704,-3.5704,-3.5704,-3.5704,-3.5813,-3.6057,-3.6784,-3.7288,0.0,0.0,0.0,0.0,0.0,0.0,0.0,0.0,0.0,-4.1578,-4.2377,-4.2552,-4.2864,-4.3916,-4.5241,-4.6313,-4.6637,-4.7993,-4.9223,-4.9799,-4.997,-5.0021,-5.0008,-5.0021,-5.0305,-5.0991,-5.1081,-5.1093,-5.1081,-5.1093,-5.1105,-5.1105,-5.1105,-5.1183,-5.1358,-5.1358,-5.1435,-5.161,-5.161,-5.161,-5.161,-5.161,-5.161,-5.161,-5.1435,-5.1358,-5.1338,-5.1183,-5.1105,-5.1105,-5.1105,-5.1105,-5.1105,-5.1105,-5.1161,-5.1256,-5.1256,-5.1248,-5.121,0.0,0.0,0.0,0.0,0.0,0.0,0.0,0.0,-2.8619,-2.8669,-2.9119,-2.9414,-2.9454,-2.9717,-2.9888,-2.9888,-3.0019,-3.0094,-3.0109,-3.0213,-3.0279,-3.0312,-3.0292,-3.0292,-3.0292,-3.2076,-3.3003,-3.3003,-3.4699,-3.5528,-3.5528,-3.5402,-3.5345,-3.5345,-3.533,-3.5311,-3.533,-3.5315,-3.5219,-3.5122,-3.5122,-3.5122,-3.5122,-3.5138,-3.5296,-3.5528,-3.5528,-3.5596,-3.5704,-3.5704,-3.5704,-3.5704,-3.5704,-3.6187,-3.6809,-3.6948,-3.8093,-3.9355,-3.9513,-4.0198,-4.0879,-4.0984,-4.1003,-4.1206,0.0,0.0,-4.2416,-4.3286,-4.3442,-4.3955,-4.5611,-4.6059,-4.6695,-4.8184,-4.9177,-4.978,-4.9821,-5.0416,-5.0835,-5.0782,-5.084,-5.0893,-5.0917,-5.103,-5.1081,-5.1017,-5.1069,-5.1105,-5.1105,-5.1105,-5.1455,-5.222,-5.2239,-5.2627,-5.3397,-5.3417,-5.3417,-5.3417,-5.3417,-5.3417,-5.3378,-5.2608,-5.2239,-5.22,-5.1435,-5.1105,-5.1105,-5.1105,-5.1105,-5.1105,-5.1105,-5.1105,-5.1128,-5.1128,-5.1049,-5.0932,0.0,0.0,0.0,0.0,0.0,0.0,0.0,0.0,0.0,-2.8583,-2.8902,-2.9212,-2.9436,-2.9716,-2.9888,-2.9888,-2.9937,-2.9969,-2.9969,-3.0049,-3.0079,-3.0079,-3.0079,-3.0079,-3.0079,-3.141,-3.234,-3.2771,-3.4103,-3.4962,-3.5388,-3.533,-3.5315,-3.53,-3.5219,-3.5187,-3.5171,-3.5105,-3.5035,-3.4982,-3.4982,-3.4982,-3.4982,-3.4982,-3.5105,-3.5281,-3.5443,-3.554,0.0,-3.5584,-3.5639,-3.577,-3.6207,-3.6586,-3.7085,-3.8054,-3.8846,-3.9547,-4.0076,-4.0518,-4.0975,0.0,-4.1693,-4.1926,-4.2799,-4.3,-4.323,-4.4061,-4.4681,-4.5437,-4.6672,-4.7659,-4.8526,0.0,-5.0072,-5.0561,-5.0513,-5.079,-5.0976,-5.0906,-5.0917,-5.0937,-5.0906,-5.0947,-5.0961,-5.0932,-5.0961,-5.1208,-5.1707,-5.1746,-5.2153,-5.301,-5.303,-5.3204,-5.3587,-5.3587,-5.3587,-5.3587,-5.3587,-5.3587,-5.3567,-5.3204,-5.2758,-5.2269,-5.1901,-5.1412,-5.0887,-5.0887,-5.08,-5.0694,-5.0694,-5.0694,-5.0731,-5.0992,-5.1062,-5.1011,0.0,0.0,0.0,0.0,0.0,0.0,0.0,0.0,0.0,0.0,-2.8772,-2.9067,-2.9533,-2.977,-2.9891,-2.9888,-2.9888,-2.9888,-2.9888,-2.9888,-2.9888,-2.9888,-2.9888,-2.9888,-2.9888,-3.0939,-3.1723,-3.2279,-3.3283,-3.4021,-3.4561,-3.4764,-3.4863,-3.4863,-3.4992,-3.5053,-3.5035,-3.4926,-3.4908,-3.4908,-3.4908,-3.4908,-3.4908,-3.4908,-3.4963,-3.507,-3.5311,-3.5416,-3.5443,-3.5443,-3.5515,-3.5707,-3.6491,-3.6922,-3.7424,-3.8825,-3.958,-4.0048,-4.0453,-4.0965,-4.1485,-4.2042,-4.2354,-4.2761,-4.3636,-4.3821,-4.4132,-4.521,-4.5969,-4.6766,-4.7865,-4.901,-4.9881,-5.0167,-5.0697,-5.1056,-5.0976,-5.0961,-5.0947,-5.0906,-5.0906,-5.089,-5.0858,-5.0874,-5.0987,-5.1151,-5.117,-5.152,-5.2354,-5.2447,-5.2887,-5.3756,-5.3829,-5.3962,-5.4194,-5.4194,-5.4194,-5.4194,-5.4194,-5.4177,-5.4124,-5.3819,-5.3222,-5.2373,-5.2161,-5.1644,-5.0952,-5.0721,-5.0527,-5.0404,-5.0404,-5.0404,-5.0427,-5.0778,-5.0874,-5.0844,0.0,0.0,0.0,0.0,0.0,0.0,0.0,0.0,0.0,0.0,0.0,0.0,0.0,-2.9808,-2.9823,-2.9888,-2.9888,-2.9888,-2.9888,-2.9888,-2.9888,-2.9888,-2.9888,-2.9888,-2.9888,-3.0902,-3.1401,-3.144,-3.2241,-3.2661,-3.2699,-3.3406,-3.3751,-3.3789,-3.4548,-3.4908,-3.4908,-3.4889,-3.4908,-3.4908,-3.4908,-3.4908,-3.4908,-3.4908,-3.4889,-3.4908,-3.507,-3.5187,-3.5315,-3.5315,-3.5315,-3.545,-3.6259,-3.7099,-3.7942,-3.8827,-4.0293,-4.145,-4.0708,-4.1731,-4.2878,-4.2257,-4.2745,-4.359,-4.4471,-4.4656,-4.5142,-4.6871,-4.724,-4.7764,-4.9415,-4.9784,-5.0072,-5.0843,-5.0984,-5.0976,-5.0921,-5.0906,-5.0906,-5.0906,-5.0906,-5.0858,0.0,-5.0825,-5.117,-5.1818,-5.1857,-5.2164,-5.2839,-5.3047,-5.3571,-5.4438,-5.4666,-5.5142,-5.5915,-5.5915,-5.5915,-5.5915,-5.5915,-5.5864,-5.569,-5.4655,-5.3702,-5.2839,-5.2053,-5.1689,-5.1593,-5.0749,-5.0404,-5.0404,-5.0404,-5.0404,-5.0404,-5.0425,-5.0336,-5.0236,0.0,0.0,0.0,0.0,0.0,0.0,0.0,0.0,0.0,0.0,0.0,0.0,0.0,0.0,0.0,0.0,-2.9681,-2.9751,-2.9888,-2.9888,-2.9888,-2.9888,-2.9888,-2.9888,-2.9888,-3.0316,-3.0769,-3.126,-3.1626,-3.2026,-3.2495,-3.3315,-3.3695,-3.3733,-3.4548,-3.4908,-3.4908,-3.4908,-3.4908,-3.4908,-3.4908,-3.4908,-3.4908,-3.4908,-3.4908,-3.4908,0.0,-3.5053,-3.5171,-3.5171,-3.5583,-3.6224,-3.6984,-3.7879,-3.8925,-4.0252,-4.1036,-4.1552,-4.1819,-4.2427,-4.303,-4.3352,-4.3657,-4.4267,-4.5819,-4.6187,-4.6577,-4.7785,-4.8542,-4.913,-4.9705,-5.0195,-5.0632,-5.0951,-5.0961,-5.0937,-5.0906,-5.0825,-5.0773,-5.0773,-5.0644,0.0,0.0,0.0,0.0,-5.1755,-5.2252,-5.2965,-5.3913,-5.4032,-5.4477,-5.5344,-5.5442,-5.5538,-5.5665,-5.5665,-5.5665,-5.5665,-5.5665,-5.5643,-5.5596,-5.5221,-5.4603,-5.3717,-5.2916,-5.2158,-5.1448,-5.0608,-5.0193,-5.007,-5.007,-5.007,-5.007,-5.007,-5.0044,-5.0012,0.0,0.0,0.0,0.0,0.0,0.0,0.0,0.0,0.0,0.0,0.0,0.0,0.0,0.0,0.0,0.0,0.0,-2.9608,-2.9872,-2.9839,-2.9822,-2.9888,-2.9888,-2.9888,-2.9888,-2.9984,-3.0269,-3.0739,-3.082,-3.107,-3.1482,-3.2334,-3.2901,-3.3223,-3.4036,-3.4547,-3.485,-3.4811,-3.4811,-3.485,-3.485,-3.487,-3.4908,-3.4908,-3.4908,0.0,-3.4908,-3.4964,-3.5035,-3.5035,-3.564,-3.6532,-3.7281,-3.8594,-3.9967,-4.067,-4.1525,-4.2212,-4.2177,-4.2928,-4.379,-4.4095,-4.44,-4.5049,-4.661,-4.697,-4.7314,-4.8508,-4.92,-4.9663,-4.9953,-5.0455,-5.0822,-5.0784,-5.0822,-5.0789,-5.0735,-5.0644,-5.0606,-5.0606,-5.0486,0.0,0.0,0.0,0.0,-5.2058,-5.28,-5.3666,-5.4575,-5.4703,-5.4998,-5.5577,-5.566,-5.5618,-5.5504,-5.5504,-5.5504,-5.5504,-5.5432,-5.5389,-5.5389,-5.5333,-5.4976,-5.4403,-5.3601,-5.2666,-5.1706,-5.0907,-5.0297,-4.9898,-4.9898,-4.9898,-4.9898,-4.9898,-4.9898,-4.9925,0.0,0.0,0.0,0.0,0.0,0.0,0.0,0.0,0.0,0.0,0.0,0.0,0.0,0.0,0.0,0.0,0.0,0.0,-2.9839,-2.9698,-2.9681,-2.9872,-2.9888,-2.9888,-2.9888,-2.9888,-2.9888,-2.9888,-2.9888,-2.9874,-2.9827,-3.0619,-3.1449,-3.2317,-3.3067,-3.3934,-3.4788,-3.4645,-3.4666,-3.4788,-3.4788,-3.483,-3.4908,-3.4908,-3.4908,-3.4908,-3.4908,-3.4908,-3.4908,-3.4908,-3.5514,-3.6405,-3.7258,-3.9191,-4.0991,-4.0252,-4.1749,-4.335,-4.1965,-4.3361,-4.5067,-4.4493,-4.4985,-4.5902,-4.6916,-4.705,-4.7468,-4.9103,-4.9355,-4.9503,0.0,0.0,-5.0625,-5.0425,-5.0547,-5.0625,-5.0425,-5.0404,-5.0383,0.0,0.0,0.0,0.0,0.0,0.0,-5.2679,0.0,-5.4229,-5.4874,-5.5094,-5.5183,-5.5183,-5.5383,-5.548,-5.548,-5.548,-5.548,-5.548,-5.5281,-5.5183,-5.5176,-5.5,-5.4901,-5.4863,-5.4048,-5.3233,-5.24,-5.1566,-5.0713,-4.9955,-4.9917,-4.9898,-4.9898,-4.9898,-4.9898,-4.9898,0.0,0.0,0.0,0.0,0.0,0.0,0.0,0.0,0.0,0.0,0.0,0.0,0.0,0.0,0.0,0.0,0.0,0.0,-2.9357,-2.9532,-2.9626,-2.9681,-2.9822,-2.9888,-2.9888,-2.9888,-2.9888,-2.9888,-2.9888,-2.9874,-2.9827,-3.0619,-3.1412,-3.2182,-3.3026,-3.3874,-3.4645,-3.4604,-3.4666,-3.4788,-3.4788,-3.483,-3.4908,-3.4908,-3.4908,-3.4908,-3.4908,-3.4908,-3.4908,-3.4908,-3.5874,-3.7353,-3.8812,-3.9721,-4.0419,-4.1465,-4.2313,-4.3104,-4.3814,-4.4585,-4.5135,-4.4821,-4.5392,-4.6294,-4.7331,-4.7982,-4.8728,-4.9909,-5.0119,-5.0155,0.0,0.0,0.0,-5.0404,-5.0446,0.0,-5.0404,-5.0313,0.0,-5.024,0.0,-5.0019,-4.9986,-5.1497,0.0,0.0,-5.3832,-5.48,-5.5121,-5.5176,-5.5183,-5.5183,-5.5236,-5.5183,-5.5038,-5.5057,-5.5057,-5.5057,-5.5,-5.4971,-5.4971,-5.4931,-5.4901,-5.4863,-5.4048,-5.3575,-5.3271,-5.1812,-5.1073,-5.0808,-5.0144,-4.9898,-4.9898,-4.9898,-4.9898,-4.9898,0.0,0.0,0.0,0.0,0.0,0.0,0.0,0.0,0.0,0.0,0.0,0.0,0.0,0.0,0.0,0.0,0.0,0.0,0.0,-2.9355,-2.9494,-2.9608,-2.9698,-2.9822,-2.9888,-2.9803,-2.9822,-2.9888,-2.9888,-2.9874,-2.9808,-3.0133,-3.0753,-3.1598,-3.2257,-3.3097,-3.4011,-3.43,-3.4495,0.0,0.0,-3.4769,-3.4869,-3.4889,-3.4908,-3.4908,-3.4908,-3.4908,-3.5003,-3.5742,0.0,-3.7694,-3.938,-4.0154,-4.0669,-4.1598,0.0,-4.3327,-4.4142,-4.4702,-4.5061,-4.5057,-4.5394,-4.613,-4.7474,-4.7796,-4.8151,-4.9468,-4.9385,0.0,-4.909,0.0,0.0,0.0,0.0,0.0,-5.0197,-5.012,-5.0063,0.0,-4.9959,0.0,-4.9898,-5.1414,-5.24,0.0,-5.3954,-5.4941,-5.5066,-5.5066,-5.5066,-5.5066,-5.5066,-5.5028,-5.4901,-5.4901,-5.4901,-5.4901,-5.4901,-5.4901,-5.4901,-5.4901,-5.4901,-5.4863,0.0,-5.4029,-5.3613,-5.2267,-5.1528,-5.1111,-5.0239,-4.9898,-4.9898,-4.9898,-4.9898,-4.9898,0.0,0.0,0.0,0.0,0.0,0.0,0.0,0.0,0.0,0.0,0.0,0.0,0.0,0.0,0.0,0.0,0.0,0.0,0.0,0.0,-2.9293,-2.9513,-2.957,-2.9662,-2.9822,-2.9681,-2.9681,-2.9839,-2.9872,-2.9841,-2.9736,-2.9493,-2.9882,-3.0824,-3.1168,-3.1977,-3.3119,-3.3733,-3.4152,-3.4363,-3.4517,-3.4666,-3.4809,0.0,-3.4889,-3.4908,-3.4908,-3.4908,-3.5154,-3.6822,-3.739,-3.7694,-3.938,-4.0423,-4.1086,-4.1294,-4.2393,-4.3587,-4.3796,-4.4364,-4.4943,-4.5125,-4.5265,-4.5726,-4.731,-4.7092,-4.6938,-4.841,0.0,-4.7397,-4.7397,-4.8099,-4.868,-4.8719,0.0,-4.9974,-4.9906,-4.9898,-4.9898,-4.9898,-4.9898,-4.9898,-4.9898,-5.1414,-5.24,-5.24,-5.3954,-5.4901,-5.4901,-5.4901,-5.4901,-5.4901,-5.4901,-5.4901,-5.4901,-5.4901,-5.4901,-5.4901,-5.4901,-5.4901,-5.4901,-5.4901,-5.4901,-5.4901,0.0,0.0,-5.3783,-5.293,-5.2096,-5.1282,-5.041,-4.9993,-4.9898,-4.9898,-4.9898,-4.9898,0.0,0.0,0.0,0.0,0.0,0.0,0.0,0.0,0.0,0.0,-2.8182,-2.8209,0.0,0.0,0.0,0.0,0.0,0.0,0.0,0.0,0.0,-2.9097,-2.9435,-2.9551,-2.9415,-2.9532,-2.9589,-2.957,-2.9736,-2.9718,-2.9551,-2.9314,-2.9654,-3.0401,-3.0301,-3.1126,-3.2543,-3.2827,-3.342,-3.4173,-3.4363,-3.4583,-3.4788,-3.4809,0.0,0.0,-3.4908,-3.4908,-3.5154,-3.6822,-3.739,-3.7694,-3.938,-3.9984,-4.0382,-4.1806,-4.2412,-4.2943,-4.4326,-4.4781,-4.4895,-4.4943,-4.5494,-4.6125,-4.6415,-4.6865,0.0,0.0,-4.7517,-4.7397,-4.7397,-4.7536,-4.7884,-4.8598,0.0,0.0,0.0,0.0,-4.9898,0.0,0.0,0.0,0.0,0.0,0.0,0.0,0.0,0.0,-5.4901,-5.4901,-5.4901,-5.4901,-5.4901,-5.4901,-5.4901,-5.4901,-5.4901,-5.4901,-5.4901,-5.4901,-5.4901,-5.4901,-5.4901,-5.4901,0.0,0.0,-5.4636,-5.3821,-5.2968,-5.2115,-5.13,-5.0523,-4.9898,-4.9898,-4.9898,-4.9898,0.0,0.0,0.0,0.0,0.0,0.0,0.0,-2.8182,-2.8182,-2.8182,-2.8182,-2.8182,-2.8182,-2.8182,-2.8182,0.0,0.0,0.0,0.0,0.0,0.0,0.0,-2.9166,-2.9293,-2.9293,-2.9293,-2.9353,-2.9492,0.0,-2.9645,-2.9589,-2.9332,-2.9388,-2.9751,-2.9923,-3.0421,-3.1206,-3.2151,-3.2849,-3.3414,-3.4006,-3.4386,-3.4602,0.0,0.0,0.0,-3.4632,-3.4693,-3.496,-3.6308,-3.7049,-3.7694,-3.938,-3.9889,-4.0135,-4.1427,-4.2071,-4.2678,-4.3929,-4.4573,-4.4895,-4.4895,-4.5217,-4.5634,-4.6089,0.0,0.0,0.0,-4.6411,-4.6108,-4.6108,0.0,0.0,0.0,0.0,0.0,0.0,0.0,0.0,0.0,0.0,0.0,0.0,0.0,0.0,0.0,0.0,0.0,-5.4901,-5.4901,-5.4901,-5.4901,-5.4901,-5.4901,-5.4901,-5.4901,-5.4901,-5.4901,-5.4901,-5.4901,-5.4901,-5.4901,-5.4901,-5.4901,-5.4901,0.0,-5.4844,-5.4029,-5.3196,-5.2324,-5.1528,-5.0675,-4.9898,-4.9898,-4.9898,-4.9898,0.0,0.0,0.0,0.0,0.0,0.0,0.0,-2.8182,-2.8182,-2.8182,-2.8182,-2.8182,-2.8182,-2.8182,-2.8182,0.0,0.0,0.0,0.0,0.0,0.0,0.0,0.0,0.0,0.0,0.0,0.0,0.0,-2.9394,0.0,0.0,0.0,0.0,0.0,-2.9527,-2.9787,-3.0024,-3.1273,-3.2135,0.0,0.0,-3.403,0.0,0.0,0.0,0.0,0.0,-3.4461,-3.4736,-3.5834,-3.6727,-3.7656,-3.9172,-3.9778,-4.006,-4.0953,-4.1654,-4.2375,-4.3417,-4.4156,-4.4687,-4.4857,-4.4895,-4.5085,-4.5767,-4.5388,0.0,-4.5786,-4.5388,-4.4895,-4.4895,0.0,-4.5975,0.0,-4.7434,0.0,0.0,0.0,0.0,0.0,0.0,0.0,0.0,0.0,0.0,0.0,0.0,0.0,-5.4901,-5.4901,-5.4901,-5.4901,-5.4901,-5.4901,-5.4901,-5.4901,-5.4901,-5.4901,-5.4901,-5.4901,-5.4901,-5.4901,-5.4901,-5.4901,-5.4901,0.0,0.0,-5.4219,-5.3347,-5.2314,-5.167,-5.0789,-4.9841,-4.9803,-4.9784,-4.9784,0.0,0.0,0.0,0.0,0.0,0.0,0.0,-2.8182,-2.8182,-2.8182,-2.8182,-2.8182,-2.8182,-2.8182,-2.8182,0.0,0.0,0.0,0.0,0.0,0.0,0.0,0.0,0.0,0.0,0.0,0.0,0.0,0.0,0.0,0.0,0.0,0.0,0.0,0.0,0.0,-2.9728,-2.9881,0.0,0.0,0.0,0.0,0.0,0.0,0.0,0.0,0.0,-3.4401,-3.4595,-3.5795,0.0,-3.7561,-3.8509,-3.9304,-4.006,-4.0953,0.0,0.0,-4.3265,-4.3758,-4.3985,-4.4724,-4.4895,-4.4914,-4.5009,0.0,-4.4914,-4.5009,-4.4952,-4.4895,-4.4895,-4.4971,-4.5274,-4.607,-4.6942,-4.7795,0.0,0.0,0.0,0.0,0.0,0.0,0.0,0.0,0.0,0.0,0.0,0.0,0.0,-5.4901,-5.4901,-5.4901,-5.4901,-5.4901,-5.4901,-5.4901,-5.4901,-5.4901,-5.4901,-5.4901,-5.4901,-5.4901,-5.4901,-5.4901,0.0,0.0,0.0,-5.4825,-5.3848,-5.238,-5.2191,-5.114,-4.9709,-4.9519,-4.9435,-4.9435,0.0,0.0,0.0,0.0,0.0,0.0,-2.8154,-2.8182,-2.8182,-2.8182,-2.8182,-2.8182,-2.8182,-2.8182,-2.8209,-2.8264,0.0,0.0,0.0,0.0,0.0,0.0,0.0,0.0,0.0,0.0,-2.8569,-2.8587,-2.8887,0.0,0.0,0.0,0.0,0.0,0.0,0.0,0.0,-2.9313,0.0,0.0,0.0,0.0,0.0,0.0,0.0,0.0,0.0,0.0,-3.4279,0.0,0.0,0.0,-3.7807,-3.8831,0.0,0.0,-4.0802,-4.1351,-4.2014,-4.2564,-4.3133,-4.3966,-4.4175,-4.4308,-4.4781,0.0,-4.4895,-4.4895,-4.4895,-4.4895,-4.4895,-4.4895,-4.5009,-4.5369,-4.6525,-4.751,-4.787,0.0,0.0,0.0,0.0,0.0,0.0,0.0,0.0,0.0,0.0,0.0,0.0,-5.4901,-5.4901,-5.4901,-5.4901,-5.4901,-5.4901,-5.4901,-5.4901,-5.4901,-5.4901,-5.4901,-5.4901,-5.4901,-5.4822,-5.4711,0.0,0.0,0.0,-5.4578,-5.3629,-5.2088,-5.2019,-5.1007,-4.9519,-4.9416,-4.9409,-4.9396,0.0,0.0,0.0,0.0,0.0,-2.7922,-2.8154,-2.8182,-2.8182,-2.8182,-2.8209,-2.8237,-2.8237,-2.8237,-2.8291,-2.8353,-2.8327,0.0,0.0,0.0,0.0,0.0,0.0,0.0,0.0,0.0,-2.8398,-2.8484,-2.8669,-2.8767,0.0,0.0,0.0,0.0,0.0,0.0,0.0,0.0,0.0,0.0,0.0,0.0,0.0,0.0,0.0,0.0,0.0,0.0,0.0,0.0,0.0,-3.739,-3.739,-3.8546,-3.9889,-3.9889,-4.0347,-4.0877,-4.1143,-4.1616,-4.2261,-4.3095,-4.3512,-4.3853,0.0,0.0,-4.4895,-4.4895,-4.4895,-4.4895,-4.4895,-4.4895,-4.4895,-4.4895,-4.6108,-4.7131,-4.7359,0.0,0.0,0.0,0.0,0.0,0.0,0.0,0.0,0.0,0.0,0.0,0.0,-5.4901,-5.4901,-5.4901,-5.4901,-5.4901,-5.4901,-5.4901,-5.4901,-5.4901,-5.4901,-5.4901,-5.4901,-5.4822,-5.4742,-5.4597,0.0,0.0,0.0,-5.4411,-5.3408,-5.1895,-5.1838,-5.0789,-4.9332,-4.9276,-4.9246,-4.9259,0.0,0.0,0.0,0.0,0.0,0.0,-2.8182,-2.8182,-2.8182,-2.8182,-2.8264,-2.83,-2.83,-2.8353,-2.8432,-2.8492,-2.838,0.0,0.0,0.0,0.0,0.0,0.0,0.0,0.0,0.0,-2.8209,-2.8209,-2.8406,-2.8492,-2.8492,-2.8718,-2.8797,0.0,0.0,0.0,0.0,0.0,0.0,0.0,0.0,0.0,0.0,0.0,0.0,0.0,0.0,0.0,0.0,0.0,0.0,0.0,0.0,-3.8546,-3.9889,-3.9889,-3.9908,-4.0097,-4.0972,-4.1219,-4.1408,-4.2223,-4.3057,-4.3701,0.0,-4.4326,-4.4895,-4.4895,-4.4895,-4.4895,-4.4895,-4.4895,-4.4895,-4.4895,-4.5634,-4.6487,-4.7283,0.0,0.0,0.0,0.0,0.0,0.0,0.0,0.0,0.0,0.0,0.0,0.0,-5.4901,-5.4901,-5.4901,-5.4901,-5.4901,-5.4901,-5.4901,-5.4901,-5.4901,-5.4901,-5.4901,-5.4901,-5.4711,-5.4597,0.0,0.0,0.0,0.0,-5.4406,-5.3415,-5.1884,-5.1665,-5.0603,-4.9185,-4.8964,-4.8909,-4.8909,0.0,0.0,0.0,0.0,0.0,0.0,0.0,-2.8053,-2.8182,-2.8182,-2.8209,-2.8237,-2.8237,-2.8237,-2.8291,-2.8353,-2.8406,0.0,0.0,0.0,0.0,0.0,0.0,0.0,0.0,-2.8237,-2.8182,-2.8182,-2.8406,-2.8432,-2.8318,-2.8492,-2.8518,-2.838,0.0,0.0,0.0,0.0,0.0,0.0,0.0,0.0,0.0,0.0,0.0,0.0,0.0,0.0,0.0,0.0,0.0,0.0,0.0,0.0,0.0,-3.9889,-3.9889,-3.9946,-4.023,-4.0328,-4.0669,-4.2052,-4.2621,-4.3114,-4.427,-4.4724,-4.4895,-4.4895,-4.4895,-4.4895,-4.4895,-4.4895,-4.4895,-4.4895,-4.5634,-4.6468,0.0,0.0,0.0,0.0,0.0,0.0,0.0,0.0,0.0,0.0,0.0,0.0,0.0,0.0,-5.4901,-5.4901,-5.4901,-5.4901,-5.4901,-5.4742,-5.4711,-5.4711,-5.4603,-5.4557,-5.4557,-5.4472,0.0,0.0,0.0,0.0,0.0,-5.3981,-5.3012,-5.1542,-5.1488,-5.0434,-4.8983,-4.8927,-4.8909,-4.8909,0.0,0.0,0.0,0.0,0.0,0.0,0.0,-2.8053,-2.8182,-2.8182,-2.8209,-2.8237,-2.8237,-2.8264,-2.8291,-2.8327,-2.8406,0.0,0.0,0.0,0.0,0.0,0.0,0.0,-2.8246,-2.8209,-2.8182,-2.8182,-2.8345,-2.8327,-2.8209,-2.8327,-2.83,-2.8182,-2.8182,-2.8182,0.0,0.0,0.0,0.0,0.0,0.0,-3.3086,0.0,0.0,0.0,0.0,0.0,0.0,0.0,0.0,0.0,0.0,0.0,0.0,0.0,-3.9889,-3.9889,-3.9889,-3.9889,-4.0211,-4.1616,-4.2185,0.0,-4.4137,-4.4687,-4.4895,-4.4895,-4.4895,-4.4895,-4.4895,-4.4895,-4.4895,-4.4895,-4.5634,-4.6468,0.0,0.0,0.0,0.0,0.0,0.0,0.0,0.0,0.0,0.0,0.0,0.0,0.0,0.0,-5.4901,-5.4901,-5.4901,-5.4852,-5.4791,-5.4661,-5.4565,-5.4519,-5.4458,-5.4409,-5.4409,-5.4321,0.0,0.0,0.0,0.0,0.0,-5.3813,-5.2826,-5.1378,-5.1394,-5.0387,-4.8909,-4.8909,-4.8909,-4.8909,0.0,0.0,0.0,0.0,0.0,0.0,0.0,-2.8182,-2.8182,-2.8182,-2.8246,-2.83,-2.83,-2.8353,-2.8398,-2.8398,0.0,0.0,0.0,0.0,0.0,0.0,0.0,0.0,-2.8182,-2.8182,-2.8182,-2.8182,-2.8182,-2.8182,-2.8182,-2.8182,-2.8182,-2.8182,-2.8182,-2.8182,0.0,0.0,0.0,0.0,0.0,0.0,0.0,0.0,0.0,0.0,0.0,0.0,0.0,0.0,0.0,0.0,0.0,0.0,0.0,0.0,0.0,0.0,0.0,-3.9889,-4.0116,-4.1067,0.0,0.0,-4.3568,-4.4364,0.0,-4.4895,-4.4895,-4.4895,-4.4895,-4.4895,-4.4895,-4.4895,-4.5634,0.0,0.0,0.0,0.0,0.0,0.0,0.0,0.0,0.0,0.0,0.0,0.0,0.0,0.0,0.0,-5.4901,-5.4901,-5.4901,-5.4791,-5.4597,-5.4597,-5.4519,-5.4356,-5.4356,-5.4375,-5.4356,-5.4163,0.0,0.0,0.0,0.0,0.0,-5.3738,-5.2808,-5.1398,-5.132,-5.0331,-4.8909,-4.8909,-4.8909,-4.8909,0.0,0.0,0.0,0.0,0.0,0.0,0.0,0.0,0.0,0.0,-2.8209,-2.8209,-2.8209,-2.8237,-2.8237,0.0,0.0,0.0,0.0,0.0,0.0,0.0,0.0,0.0,-2.8182,-2.8182,-2.8182,-2.8182,-2.8182,-2.8182,-2.8182,-2.8182,-2.8182,-2.8182,-2.8182,-2.8182,0.0,0.0,0.0,0.0,0.0,0.0,0.0,0.0,0.0,0.0,-3.4062,-3.4439,0.0,0.0,0.0,0.0,0.0,0.0,0.0,0.0,-3.9889,-3.9889,-3.9889,0.0,-4.0249,-4.1749,-4.2261,-4.2791,0.0,-4.4762,-4.4895,-4.4895,-4.4895,-4.4895,-4.4895,-4.4895,-4.4895,-4.4895,-4.5634,0.0,0.0,0.0,0.0,0.0,0.0,0.0,0.0,0.0,0.0,0.0,0.0,0.0,0.0,0.0,-5.4901,-5.4901,-5.4742,-5.4629,-5.4597,-5.4505,-5.4337,-5.4163,-5.4018,-5.3944,-5.3963,-5.387,0.0,0.0,0.0,0.0,-5.3757,-5.3163,-5.2308,-5.1343,-5.0652,-4.9777,-4.8909,-4.8909,-4.8909,-4.8855,0.0,0.0,0.0,0.0,0.0,0.0,0.0,0.0,0.0,0.0,0.0,0.0,0.0,0.0,0.0,0.0,0.0,0.0,0.0,0.0,0.0,0.0,0.0,-2.8182,-2.8182,-2.8182,-2.8182,-2.8182,-2.8182,-2.8182,-2.8182,-2.8182,-2.8182,-2.8182,-2.8182,-2.8396,0.0,0.0,0.0,0.0,-3.2384,0.0,0.0,0.0,0.0,0.0,-3.4068,-3.4461,0.0,-3.5912,-3.6727,-3.7542,0.0,0.0,0.0,0.0,-3.9889,-3.9889,-3.9889,-3.9889,-4.0287,-4.1996,-4.2412,-4.2848,-4.4516,-4.4895,-4.4895,-4.4895,-4.4895,-4.4895,-4.4895,-4.4895,-4.4895,0.0,0.0,0.0,0.0,0.0,0.0,0.0,0.0,0.0,0.0,0.0,0.0,0.0,0.0,0.0,0.0,0.0,-5.4871,-5.4791,-5.4661,-5.4565,-5.4486,-5.4337,-5.4163,-5.3944,-5.3832,-5.3813,-5.3813,-5.3813,-5.3813,0.0,0.0,0.0,-5.32,-5.2772,-5.1917,-5.0819,-5.0282,-4.9612,-4.8874,-4.8715,-4.8679,-4.8642,0.0,0.0,0.0,0.0,0.0,0.0,0.0,0.0,0.0,0.0,0.0,0.0,0.0,0.0,0.0,0.0,0.0,0.0,0.0,0.0,0.0,0.0,-2.8182,-2.8182,-2.8182,-2.8182,-2.8182,-2.8182,-2.8182,-2.8182,-2.8182,-2.8182,-2.8182,-2.82,-2.8352,-2.8762,0.0,0.0,0.0,0.0,-3.2563,0.0,0.0,0.0,0.0,0.0,0.0,0.0,0.0,-3.6045,-3.6841,-3.7561,-3.8565,0.0,0.0,0.0,0.0,0.0,-3.9889,-3.9984,-4.0457,-4.2014,-4.2412,-4.2848,-4.4516,-4.4895,-4.4895,-4.4895,0.0,0.0,0.0,-4.4895,0.0,0.0,0.0,0.0,0.0,0.0,0.0,0.0,0.0,0.0,0.0,0.0,0.0,0.0,0.0,0.0,0.0,0.0,0.0,-5.4578,-5.4565,-5.4486,-5.4356,-5.4198,-5.3981,-5.3813,-5.3813,-5.3813,-5.3813,-5.3813,-5.3738,0.0,0.0,0.0,-5.2419,-5.2271,-5.1416,-5.0184,-4.9986,-4.9486,-4.8785,-4.8494,-4.8379,-4.8302,0.0,0.0,0.0,0.0,0.0,0.0,0.0,0.0,0.0,0.0,0.0,0.0,0.0,0.0,0.0,0.0,0.0,0.0,0.0,0.0,0.0,-2.8182,-2.8182,-2.8182,-2.8182,-2.8182,-2.8182,-2.8182,-2.8182,-2.8182,-2.8182,-2.8182,-2.8182,-2.8217,-2.8923,-2.928,-2.9494,-3.0903,-3.1581,-3.176,-3.2563,0.0,0.0,0.0,0.0,0.0,0.0,0.0,0.0,-3.6689,-3.7296,-3.7675,-3.9229,0.0,0.0,0.0,0.0,0.0,-3.9889,-4.0442,-4.1237,-4.2185,-4.2412,-4.2848,-4.4516,-4.4895,-4.4895,-4.4895,0.0,0.0,0.0,-4.4895,0.0,0.0,0.0,0.0,0.0,0.0,0.0,0.0,0.0,0.0,0.0,0.0,0.0,0.0,0.0,0.0,0.0,0.0,0.0,-5.456,-5.4505,-5.4356,-5.4163,-5.4127,-5.3981,-5.3813,-5.3813,-5.3813,-5.3813,-5.3813,-5.3441,0.0,0.0,-5.2327,-5.1528,-5.0785,-5.0339,-5.0042,-4.9355,-4.8861,-4.8458,-4.8439,-4.8267,-4.7992,0.0,0.0,0.0,0.0,0.0,0.0,0.0,0.0,0.0,0.0,0.0,0.0,0.0,0.0,0.0,0.0,0.0,0.0,0.0,0.0,-2.8182,-2.8182,-2.8182,-2.8182,-2.8182,-2.8182,-2.8182,-2.8182,-2.8182,-2.8182,-2.8182,-2.8182,-2.8182,-2.8245,-2.9048,-2.9619,-3.0083,-3.1207,-3.1938,-3.2367,0.0,0.0,0.0,0.0,0.0,0.0,0.0,0.0,0.0,0.0,-3.739,-3.7694,-3.938,0.0,0.0,0.0,0.0,0.0,-3.9889,-4.0555,-4.1389,-4.2204,-4.2683,-4.3321,-4.4605,-4.4846,-4.4796,-4.4889,0.0,0.0,0.0,0.0,0.0,0.0,0.0,0.0,0.0,0.0,0.0,0.0,0.0,0.0,0.0,0.0,0.0,0.0,0.0,0.0,0.0,0.0,0.0,0.0,-5.2986,-5.28,-5.2641,-5.2641,-5.3051,-5.3794,-5.3367,-5.3144,-5.3144,-5.2698,-5.2308,-5.1955,0.0,-5.1472,-5.0673,-5.0283,-4.9837,-4.9394,-4.8844,-4.855,-4.8345,-4.8035,-4.7728,-4.745,0.0,0.0,0.0,0.0,0.0,0.0,0.0,0.0,0.0,0.0,0.0,0.0,0.0,0.0,0.0,0.0,0.0,0.0,0.0,-2.8182,-2.8182,-2.8182,-2.8182,-2.8182,-2.8182,-2.8182,-2.8182,-2.8182,-2.8182,-2.8182,-2.8182,-2.8182,-2.8289,-2.853,-2.9315,-3.0083,-3.0832,-3.1635,-3.2331,-3.2916,0.0,0.0,0.0,0.0,0.0,0.0,0.0,0.0,0.0,0.0,0.0,0.0,0.0,0.0,0.0,-3.9889,-3.9889,-3.9927,-4.0135,-4.084,-4.1692,-4.2507,-4.3137,-4.3788,-4.47,-4.4821,-4.4789,-4.487,-4.4895,0.0,0.0,0.0,0.0,0.0,0.0,0.0,0.0,0.0,0.0,0.0,0.0,0.0,0.0,0.0,0.0,0.0,0.0,0.0,0.0,0.0,0.0,0.0,-5.169,-5.1537,-5.1398,-5.1398,-5.2029,-5.3237,-5.2605,-5.2327,-5.2289,-5.1695,-5.1286,-5.1101,-5.1101,-5.0618,-4.9819,-4.9748,-4.9341,-4.875,-4.8421,-4.8269,-4.8114,-4.7578,-4.7205,-4.6998,0.0,0.0,0.0,0.0,0.0,0.0,0.0,0.0,0.0,0.0,0.0,0.0,0.0,0.0,0.0,0.0,0.0,0.0,0.0,-2.8182,-2.8182,-2.8182,-2.8182,-2.8182,-2.8182,-2.8182,-2.8182,-2.8182,-2.8182,-2.8182,-2.8182,-2.8182,-2.862,-2.9351,-3.0101,-3.0868,-3.1671,-3.2456,-3.2862,-3.2916,-3.3099,0.0,0.0,0.0,0.0,0.0,0.0,0.0,0.0,0.0,0.0,0.0,0.0,0.0,-3.9889,-3.9889,-3.9889,-4.0079,-4.0896,-4.1711,-4.2526,-4.3398,-4.3663,-4.3886,-4.4706,-4.4895,-4.487,-4.4895,-4.4895,0.0,0.0,0.0,0.0,0.0,0.0,0.0,0.0,0.0,0.0,0.0,0.0,0.0,0.0,0.0,0.0,0.0,0.0,0.0,0.0,0.0,0.0,0.0,0.0,-5.1537,-5.1398,-5.1398,-5.1454,-5.1565,-5.1509,-5.1491,-5.1491,-5.1417,-5.0971,-5.0192,-5.0209,-4.9745,-4.8948,-4.8661,-4.8476,-4.8421,-4.8132,-4.7829,-4.7493,-4.716,-4.7025,-4.6998,0.0,0.0,0.0,0.0,0.0,0.0,0.0,0.0,0.0,0.0,0.0,0.0,0.0,0.0,0.0,0.0,0.0,0.0,0.0,-2.8182,-2.8182,-2.8182,-2.8182,-2.8182,-2.8182,-2.8182,-2.8182,-2.8182,-2.8182,-2.8182,-2.82,-2.8727,-2.9119,-2.9458,-3.0689,-3.1421,-3.1742,-3.2545,-3.2961,-3.3099,-3.316,-3.3379,0.0,0.0,0.0,0.0,0.0,0.0,0.0,0.0,-3.7978,-3.8831,-3.9665,-3.9889,-3.9889,-3.9889,-3.9889,-4.01,-4.0972,-4.1806,-4.2621,-4.3474,-4.408,-4.4535,-4.4838,-4.484,-4.4796,-4.487,-4.4895,0.0,0.0,0.0,0.0,0.0,0.0,0.0,0.0,0.0,0.0,0.0,0.0,0.0,0.0,0.0,0.0,0.0,0.0,0.0,0.0,0.0,0.0,0.0,0.0,-4.9889,-4.9856,-4.9856,-4.9856,-4.9856,-5.0358,-5.0582,-5.0545,-5.0043,-4.967,-4.9373,-4.9355,-4.9187,-4.8855,-4.855,-4.8383,-4.8345,-4.7852,-4.7493,-4.716,-4.7043,-4.6998,-4.6998,0.0,0.0,0.0,0.0,0.0,0.0,0.0,0.0,0.0,0.0,0.0,0.0,0.0,0.0,0.0,0.0,0.0,0.0,-2.8182,-2.8182,-2.8182,-2.8182,-2.8182,-2.8182,-2.8182,-2.8182,-2.8182,-2.8182,-2.8182,-2.8182,-2.8217,-2.903,-2.953,-2.9797,-3.1118,-3.1831,-3.2099,-3.2729,-3.3068,-3.322,-3.335,-3.3569,0.0,0.0,0.0,0.0,0.0,0.0,0.0,0.0,-3.8336,-3.9172,-3.974,-3.9889,-3.9889,-3.9889,-3.9889,-4.0135,-4.1275,-4.1996,-4.2678,-4.3796,-4.4497,-4.4895,-4.4895,-4.4821,-4.477,-4.487,-4.5312,-4.6026,-4.7136,0.0,0.0,0.0,0.0,0.0,0.0,0.0,0.0,0.0,0.0,0.0,0.0,0.0,0.0,0.0,0.0,0.0,0.0,0.0,0.0,0.0,0.0,-4.8909,-4.8909,-4.8909,-4.8909,-4.8909,-4.9485,-4.9709,-4.9691,-4.915,-4.8909,-4.8909,-4.8909,-4.882,-4.8714,-4.8383,-4.8153,-4.7915,-4.7475,-4.7205,-4.6998,-4.6998,-4.6998,-4.6998,0.0,0.0,0.0,0.0,0.0,0.0,0.0,0.0,0.0,0.0,0.0,0.0,0.0,0.0,0.0,0.0,0.0,0.0,-2.8182,-2.8182,-2.8182,-2.8209,-2.8209,-2.8209,-2.8209,-2.8182,-2.8182,-2.8182,-2.8209,-2.82,-2.8217,-2.9048,-2.9815,-3.0564,-3.135,-3.2152,-3.2916,-3.3117,-3.322,-3.325,-3.3689,-3.378,-3.3671,0.0,0.0,0.0,0.0,0.0,0.0,0.0,-3.9123,-3.9889,-3.9889,-3.9889,-3.9889,-3.9889,-3.9908,-4.0268,-4.1958,-4.2412,-4.281,-4.4478,-4.4895,-4.4895,-4.4895,-4.4895,-4.4895,-4.4914,-4.6241,-4.7345,-4.7248,0.0,0.0,0.0,0.0,0.0,0.0,0.0,0.0,0.0,0.0,0.0,0.0,0.0,0.0,0.0,0.0,0.0,0.0,0.0,0.0,0.0,0.0,0.0,-4.8909,-4.8909,-4.8909,-4.8909,-4.8909,-4.8909,-4.8909,-4.8909,-4.8909,-4.8909,-4.8909,-4.8714,-4.8383,-4.8093,-4.7621,-4.6998,-4.6998,-4.6998,-4.6998,-4.6998,-4.6998,-4.6998,0.0,0.0,0.0,0.0,0.0,0.0,0.0,0.0,0.0,0.0,0.0,0.0,0.0,0.0,0.0,0.0,0.0,0.0,-2.8182,-2.8182,-2.8264,-2.8406,-2.8406,-2.8406,-2.8406,-2.8264,-2.8182,-2.8182,-2.8327,-2.8613,-2.9066,-2.9968,-3.0729,-3.1385,-3.217,-3.2746,-3.3099,-3.316,-3.3379,-3.3689,-3.3842,-3.3947,-3.4049,0.0,0.0,0.0,0.0,0.0,0.0,0.0,0.0,0.0,-3.9889,-3.9889,-3.9889,-3.9889,-4.0347,-4.1067,-4.2109,-4.2848,0.0,-4.463,0.0,0.0,-4.4895,-4.4895,-4.5041,-4.55,-4.642,-4.7278,-4.7803,0.0,0.0,0.0,0.0,0.0,0.0,0.0,0.0,0.0,0.0,0.0,0.0,0.0,0.0,0.0,0.0,0.0,0.0,0.0,0.0,0.0,0.0,0.0,-4.8909,-4.8909,-4.8909,-4.8909,-4.8651,-4.867,-4.8909,-4.8909,-4.8779,-4.8558,-4.8569,-4.8383,-4.8084,-4.7775,-4.7363,-4.6998,-4.6998,-4.6998,-4.6998,-4.6998,-4.6998,-4.6998,0.0,0.0,0.0,0.0,0.0,0.0,0.0,0.0,0.0,0.0,-2.8182,-2.8182,0.0,0.0,0.0,0.0,0.0,0.0,0.0,-2.8182,-2.8291,-2.8492,-2.8492,-2.8492,-2.8492,-2.8318,-2.8237,-2.83,-2.8458,-2.882,-2.9423,-3.0366,-3.1168,-3.1876,-3.2665,-3.3147,-3.3368,-3.3455,-3.3634,-3.3895,-3.3998,-3.4049,-3.4099,0.0,0.0,0.0,0.0,0.0,0.0,0.0,0.0,0.0,-3.9889,-3.9889,-3.9889,-3.9889,-4.0536,-4.1389,-4.2185,-4.3038,0.0,-4.4632,-4.4821,-4.4815,-4.4745,0.0,0.0,0.0,0.0,-4.7188,0.0,0.0,0.0,0.0,0.0,0.0,0.0,0.0,0.0,0.0,0.0,0.0,0.0,0.0,0.0,0.0,0.0,0.0,0.0,0.0,0.0,0.0,0.0,0.0,-4.8695,-4.8695,-4.8641,-4.8531,-4.8365,-4.8362,-4.854,-4.854,-4.8453,-4.8218,-4.8096,-4.7955,-4.7806,-4.7457,-4.716,-4.6998,-4.6998,-4.6998,-4.6998,-4.6998,-4.6934,-4.6842,0.0,0.0,0.0,0.0,0.0,0.0,0.0,0.0,0.0,0.0,-2.8182,-2.8182,0.0,0.0,0.0,0.0,0.0,0.0,0.0,-2.8182,-2.8318,-2.8518,-2.8518,-2.8518,-2.8518,-2.83,-2.8318,-2.8492,-2.8492,-2.8856,-2.954,-3.0402,-3.1307,-3.2238,-3.2913,-3.3368,-3.3643,-3.3815,-3.3895,-3.3947,-3.4148,-3.4124,-3.3972,-3.4247,0.0,0.0,0.0,0.0,0.0,0.0,0.0,0.0,-3.9889,-3.9889,-3.9908,-3.9984,-4.0609,-4.148,-4.2276,-4.3128,-4.3913,-4.4523,-4.4685,0.0,-4.4496,-4.4578,-4.4877,-4.566,0.0,0.0,0.0,0.0,0.0,0.0,0.0,0.0,0.0,0.0,0.0,0.0,0.0,0.0,0.0,0.0,0.0,0.0,0.0,0.0,0.0,0.0,0.0,0.0,0.0,0.0,-4.8383,-4.8345,-4.8234,0.0,-4.7954,-4.7941,-4.794,-4.799,-4.7997,-4.7947,-4.7597,-4.7468,-4.7425,-4.7116,-4.6998,-4.6934,-4.6934,-4.6934,-4.6934,-4.6934,-4.6778,-4.659,0.0,0.0,0.0,0.0,0.0,0.0,0.0,0.0,0.0,0.0,0.0,0.0,0.0,0.0,0.0,0.0,0.0,0.0,0.0,-2.8182,-2.8353,-2.8718,-2.8743,-2.8743,-2.8743,-2.838,-2.8318,-2.8492,-2.8492,-2.9188,-3.0502,-3.072,-3.1578,-3.2967,-3.3148,-3.3455,-3.386,-3.3868,-3.3998,-3.4148,-3.4293,-3.4316,-3.4391,-3.5165,-3.5548,0.0,0.0,0.0,0.0,0.0,0.0,0.0,-3.9889,-3.9889,-4.0022,-4.0726,-4.143,-4.217,-4.302,-4.3773,0.0,0.0,-4.4524,-4.4515,-4.4373,-4.4373,-4.4784,0.0,0.0,0.0,0.0,0.0,0.0,0.0,0.0,0.0,0.0,0.0,0.0,0.0,0.0,0.0,0.0,0.0,0.0,0.0,0.0,0.0,0.0,0.0,0.0,0.0,0.0,-4.8132,-4.8111,-4.8111,-4.8053,0.0,-4.774,-4.7629,-4.7619,-4.7886,-4.7864,-4.7599,-4.725,-4.7116,-4.7116,-4.7043,-4.6888,-4.6684,-4.6684,-4.6542,-4.6381,-4.6381,-4.6332,-4.6284,0.0,0.0,0.0,0.0,0.0,0.0,0.0,0.0,0.0,0.0,0.0,0.0,0.0,0.0,0.0,0.0,0.0,0.0,0.0,0.0,-2.8518,-2.891,-2.8863,-2.8797,-2.8797,-2.8406,-2.8353,-2.8644,-2.8837,-2.9575,-3.0792,-3.0792,-3.1743,-3.3386,-3.3386,-3.3625,-3.4049,-3.4049,-3.4148,-3.4293,-3.4363,-3.4674,-3.5117,-3.5615,-3.6295,-3.7145,-3.8124,0.0,0.0,0.0,0.0,0.0,0.0,0.0,-4.006,-4.0953,-4.1722,-4.2484,-4.3278,0.0,0.0,-4.443,0.0,-4.4218,-4.4177,-4.4147,0.0,0.0,0.0,0.0,0.0,0.0,0.0,0.0,0.0,0.0,0.0,0.0,0.0,0.0,0.0,0.0,0.0,0.0,0.0,0.0,0.0,0.0,0.0,0.0,0.0,0.0,-4.7911,-4.7911,-4.7747,-4.7747,-4.7663,-4.7536,-4.7331,-4.7248,-4.7285,-4.7451,-4.7422,-4.724,-4.7051,-4.6934,-4.6795,-4.6795,-4.6637,-4.6381,-4.6381,-4.6332,-4.6186,-4.6186,-4.6137,-4.5988,0.0,0.0,0.0,0.0,0.0,0.0,0.0,0.0,0.0,0.0,0.0,0.0,0.0,0.0,0.0,0.0,0.0,0.0,0.0,0.0,0.0,-2.9134,-2.9003,-2.8868,-2.8821,-2.8466,-2.844,-2.8797,-2.9197,-2.9922,-3.0848,-3.0964,-3.1944,-3.3605,-3.3633,-3.386,-3.4197,-3.4197,-3.4269,-3.4404,-3.4577,-3.5117,-3.5866,-3.6171,-3.7171,-3.8395,-3.8659,-3.9173,-3.9739,-3.9848,0.0,0.0,0.0,0.0,-4.0097,-4.1124,-4.1859,-4.255,-4.3473,0.0,-4.4578,-4.4296,-4.4097,0.0,-4.4005,-4.4005,0.0,0.0,0.0,0.0,0.0,0.0,0.0,0.0,0.0,0.0,0.0,0.0,0.0,0.0,0.0,0.0,0.0,0.0,0.0,0.0,0.0,0.0,0.0,0.0,-4.7425,-4.7425,-4.7663,-4.7705,-4.7425,-4.7425,-4.7232,-4.6926,-4.689,-4.6852,-4.6855,-4.6877,-4.6888,-4.6924,-4.6877,-4.672,-4.6542,-4.6542,-4.6381,-4.6137,-4.6137,-4.6087,-4.6038,-4.6038,-4.5938,-4.5752,0.0,0.0,0.0,0.0,0.0,0.0,0.0,0.0,0.0,0.0,-2.8456,-2.8621,0.0,0.0,0.0,0.0,0.0,0.0,-2.9038,0.0,0.0,-2.9351,-2.9332,-2.9188,-2.8906,-2.867,-2.8615,-2.8797,-2.9197,-2.996,-3.1056,-3.1645,-3.2534,-3.3605,-3.378,-3.3998,-3.4197,-3.4197,-3.4269,-3.4483,-3.5289,-3.5757,-3.6147,-3.7726,-3.8469,-3.8731,-3.9472,-3.9794,-3.9889,-3.9889,-3.9889,0.0,0.0,0.0,-4.0214,-4.1787,-4.2224,-4.2561,-4.4127,0.0,-4.4296,0.0,-4.4005,-4.4005,0.0,0.0,0.0,0.0,0.0,0.0,0.0,0.0,0.0,0.0,0.0,0.0,0.0,0.0,0.0,0.0,0.0,0.0,0.0,0.0,0.0,0.0,0.0,0.0,0.0,-4.7088,-4.7088,-4.7088,-4.7116,-4.7116,-4.7088,-4.7088,-4.6936,-4.6649,-4.6407,-4.6336,-4.6308,-4.633,-4.6416,-4.6648,-4.6411,-4.6277,-4.6235,-4.6235,-4.6087,-4.5837,-4.5837,-4.5701,-4.5528,-4.5528,-4.5459,-4.5459,0.0,0.0,0.0,0.0,0.0,0.0,0.0,0.0,0.0,0.0,0.0,-2.8772,0.0,0.0,0.0,-2.9433,-2.9212,-2.9148,-2.9251,-2.9373,-2.9492,-2.9569,-2.9453,-2.9251,-2.8952,-2.8819,-2.9028,-2.9521,-2.9963,-3.073,-3.1783,-3.2565,-3.3174,-3.3605,-3.3807,-3.4023,-3.4197,-3.4197,-3.453,-3.5114,-3.5521,-3.6237,-3.7159,-3.8112,-3.8704,-3.9096,-3.9607,-3.9826,-3.9889,-3.9889,-3.9889,-3.9889,-3.9889,0.0,0.0,0.0,-4.2366,-4.2654,-4.418,-4.4364,-4.4097,0.0,-4.4005,-4.4005,-4.4005,0.0,0.0,0.0,0.0,0.0,0.0,0.0,0.0,0.0,0.0,0.0,0.0,0.0,0.0,0.0,0.0,0.0,0.0,0.0,0.0,0.0,0.0,0.0,-4.6998,-4.6998,-4.6998,-4.6998,-4.6998,-4.6934,-4.6795,-4.6795,-4.6637,-4.6381,-4.6256,-4.6197,-4.6203,-4.6047,-4.613,-4.6379,-4.6259,-4.609,-4.5988,-4.5988,-4.5803,-4.5563,-4.5563,-4.5511,-4.5423,-4.5423,-4.5423,-4.5423,0.0,0.0,0.0,0.0,0.0,0.0,0.0,0.0,0.0,0.0,0.0,0.0,0.0,0.0,0.0,0.0,-2.9474,-2.9377,-2.9513,-2.957,-2.9645,-2.9756,-2.9608,-2.9375,-2.906,-2.9222,-2.9554,-3.002,-3.0767,-3.1518,-3.2256,-3.3176,-3.3559,-3.3502,-3.3842,-3.4074,-3.4197,-3.4197,-3.4734,-3.5619,-3.5843,-3.6708,-3.7944,-3.8384,-3.8858,-3.932,-3.9508,-3.967,-3.9804,0.0,0.0,0.0,0.0,0.0,0.0,0.0,0.0,0.0,0.0,0.0,-4.4067,-4.4005,-4.4005,-4.4005,0.0,0.0,0.0,0.0,0.0,0.0,0.0,0.0,0.0,0.0,0.0,0.0,0.0,0.0,0.0,0.0,0.0,0.0,0.0,0.0,0.0,0.0,0.0,0.0,-4.6998,-4.6998,-4.6998,-4.6998,-4.6934,-4.6795,-4.659,-4.6477,-4.6319,-4.6093,-4.6014,-4.5979,-4.5977,-4.5788,-4.5823,-4.6011,-4.6007,-4.5887,-4.5701,-4.5701,-4.5598,-4.5423,-4.5423,-4.5423,-4.5423,-4.5423,-4.5423,-4.5423,0.0,0.0,0.0,0.0,0.0,0.0,0.0,0.0,0.0,0.0,0.0,0.0,-2.9472,-2.9717,-2.9872,-2.9888,-2.9872,-2.9855,-2.9872,-2.9872,-2.9872,-2.9888,-2.9872,0.0,-2.9209,-3.0055,-3.0282,-2.9826,-3.1309,-3.2029,-3.2036,-3.3092,-3.3473,-3.325,-3.3902,-3.4197,-3.4197,-3.4197,-3.4734,-3.5675,-3.6502,-3.7275,-3.8,-3.8827,-3.9163,-3.92,-3.92,0.0,0.0,0.0,0.0,0.0,0.0,0.0,0.0,0.0,0.0,0.0,0.0,-4.4285,0.0,-4.4036,-4.4005,0.0,0.0,0.0,0.0,0.0,0.0,0.0,0.0,0.0,0.0,0.0,0.0,0.0,0.0,0.0,0.0,0.0,0.0,0.0,0.0,0.0,0.0,0.0,0.0,0.0,-4.6998,-4.6998,-4.6998,-4.6998,-4.6731,-4.6637,-4.659,-4.6084,-4.583,-4.5789,-4.5546,-4.5441,-4.5423,-4.5441,-4.5441,-4.5423,-4.5423,-4.5423,-4.5423,-4.5423,-4.5423,-4.5423,-4.5423,-4.5423,-4.5423,-4.5423,-4.5423,-4.5423,0.0,0.0,0.0,0.0,0.0,0.0,0.0,0.0,0.0,0.0,0.0,0.0,0.0,-2.9717,-2.9888,-2.9888,-2.9888,-2.9888,-2.9888,-2.9888,-2.9888,-2.9888,-2.9787,-2.9795,-2.9965,-3.033,-3.0793,-3.1347,-3.1964,-3.2462,-3.2775,-3.3346,-3.3473,-3.325,-3.3902,-3.4124,-3.406,-3.4742,-3.5522,-3.6347,-3.7015,-3.7645,-3.8283,-3.8762,-3.8884,0.0,0.0,0.0,0.0,0.0,0.0,0.0,0.0,0.0,0.0,0.0,0.0,0.0,0.0,0.0,0.0,-4.4005,-4.4005,0.0,0.0,0.0,0.0,0.0,0.0,0.0,0.0,0.0,0.0,0.0,0.0,0.0,0.0,0.0,0.0,0.0,0.0,0.0,0.0,0.0,0.0,0.0,0.0,0.0,-4.6998,-4.6842,-4.6731,-4.6731,-4.6477,-4.6235,-4.6087,-4.5735,-4.5546,-4.5545,-4.5441,-4.5423,-4.5423,-4.5423,-4.5423,-4.5423,-4.5423,-4.5423,-4.5423,-4.5423,-4.5423,-4.5423,-4.5423,-4.5423,-4.5423,-4.5423,-4.5423,-4.5423,0.0,0.0,0.0,0.0,0.0,0.0,0.0,0.0,0.0,-2.8773,0.0,0.0,0.0,0.0,-2.9891,-2.9888,-2.9888,-2.9888,-2.9874,-3.012,-3.0273,-3.0239,-3.0358,-3.0558,-3.0861,-3.0884,-3.1317,-3.2198,-3.2282,-3.2607,-3.322,-3.3368,-3.3386,-3.322,-3.3823,-3.4171,-3.4363,-3.5162,-3.611,-3.7124,-3.7386,-3.793,-3.8541,-3.8621,0.0,0.0,0.0,0.0,0.0,0.0,0.0,0.0,0.0,0.0,0.0,0.0,0.0,0.0,-4.4207,0.0,0.0,0.0,0.0,0.0,0.0,0.0,0.0,0.0,0.0,0.0,0.0,0.0,0.0,0.0,0.0,0.0,0.0,0.0,0.0,0.0,0.0,0.0,0.0,0.0,0.0,0.0,0.0,0.0,-4.6749,-4.659,-4.6429,-4.6332,-4.6137,-4.5938,-4.5649,-4.5459,-4.5423,-4.5423,-4.5423,-4.5423,-4.5423,-4.5423,-4.5423,-4.5423,-4.5423,-4.5423,-4.5423,-4.5423,-4.5423,-4.5423,-4.5423,-4.5423,-4.5423,-4.5423,-4.5423,-4.5423,0.0,0.0,0.0,0.0,0.0,0.0,0.0,0.0,-2.8815,-2.8815,0.0,0.0,0.0,0.0,0.0,-2.9948,-2.9964,-2.995,-2.9864,-3.0601,-3.0998,-3.0941,-3.169,-3.2019,-3.1819,-3.1751,-3.1875,-3.2234,-3.2159,-3.2509,-3.319,-3.322,-3.322,-3.322,-3.3698,-3.4373,-3.5155,-3.5421,-3.6445,-3.7867,0.0,-3.8037,-3.8762,0.0,0.0,0.0,-3.8478,-3.8559,0.0,0.0,0.0,0.0,0.0,0.0,0.0,0.0,0.0,0.0,0.0,0.0,0.0,0.0,0.0,0.0,0.0,0.0,0.0,0.0,0.0,0.0,0.0,0.0,0.0,0.0,0.0,0.0,0.0,0.0,0.0,0.0,0.0,0.0,0.0,0.0,0.0,0.0,0.0,-4.6477,-4.6235,-4.6186,-4.6087,-4.5786,-4.5786,-4.5649,-4.5423,-4.5423,-4.5423,-4.5423,-4.5423,-4.5423,-4.5423,-4.5423,-4.5423,-4.5423,-4.5423,-4.5423,-4.5423,-4.5423,-4.5423,-4.5423,-4.5423,-4.5423,-4.5423,-4.5423,-4.5423,-4.5423,0.0,0.0,0.0,0.0,0.0,-2.8264,-2.8466,-2.8543,-2.8694,0.0,0.0,0.0,-2.9453,-3.0132,-3.0847,-3.1431,-3.1487,-3.1487,-3.1448,-3.1674,-3.1785,-3.1765,-3.1846,-3.202,-3.2305,-3.2298,-3.2411,-3.2719,-3.3031,-3.311,-3.2993,-3.3327,-3.3386,-3.3238,-3.4095,-3.5082,-3.604,-3.6274,-3.6867,-3.7634,-3.8016,-3.8308,0.0,0.0,0.0,0.0,0.0,-3.8285,-3.8496,0.0,-3.83,-3.8601,0.0,0.0,0.0,0.0,0.0,0.0,-4.4005,0.0,0.0,0.0,0.0,0.0,0.0,0.0,0.0,0.0,0.0,0.0,0.0,0.0,0.0,0.0,0.0,0.0,0.0,0.0,0.0,0.0,0.0,0.0,0.0,0.0,0.0,0.0,-4.6429,-4.6284,-4.6186,-4.6038,-4.5803,-4.5511,-4.5511,-4.5476,-4.5423,-4.5423,-4.5423,-4.5423,-4.5423,-4.5423,-4.5423,-4.5423,-4.5423,-4.5423,-4.5423,-4.5423,-4.5423,-4.5423,-4.5423,-4.5423,-4.5423,-4.5423,-4.5423,-4.5423,-4.5423,-4.5423,0.0,0.0,0.0,0.0,0.0,-2.8264,-2.8466,-2.8569,-2.8718,0.0,0.0,0.0,-3.048,-3.1049,-3.1597,-3.2066,-3.2103,-3.2083,-3.206,-3.2379,-3.2545,-3.2484,-3.2668,-3.2889,-3.3081,-3.2682,-3.2683,-3.3178,-3.2925,-3.2943,-3.3178,-3.3357,-3.352,-3.3743,-3.4418,-3.5392,-3.6577,-3.6897,0.0,0.0,-3.8339,0.0,0.0,-3.8153,-3.8052,0.0,0.0,0.0,-3.8186,-3.7915,-3.8018,0.0,0.0,0.0,0.0,0.0,0.0,0.0,-4.4005,-4.3929,0.0,0.0,0.0,0.0,0.0,-4.3511,0.0,0.0,0.0,0.0,0.0,0.0,0.0,0.0,0.0,0.0,0.0,0.0,0.0,0.0,0.0,0.0,0.0,0.0,0.0,0.0,-4.547,-4.5656,-4.5837,-4.5701,-4.5563,-4.5423,-4.5423,-4.5423,-4.5423,-4.5423,-4.5423,-4.5423,-4.5423,-4.5423,-4.5423,-4.5423,-4.5423,-4.5423,-4.5423,-4.5423,-4.5423,-4.5423,-4.5423,-4.5423,-4.5423,-4.5423,-4.5423,-4.5423,-4.5423,-4.5423,0.0,0.0,-2.8182,-2.8182,-2.8209,-2.8273,-2.8466,-2.8742,-2.8943,0.0,-2.9986,-3.1083,-3.2008,-3.2171,-3.2231,-3.2325,-3.2325,-3.2302,-3.2254,-3.2926,-3.325,-3.3115,-3.3826,-3.4099,-3.3868,-3.3012,-3.2903,-3.3577,-3.2427,-3.2445,-3.352,-3.34,-3.3695,-3.4411,-3.4758,-3.561,-3.6892,0.0,0.0,-3.8989,-3.8572,-3.851,0.0,0.0,-3.8119,0.0,-3.8052,-3.7949,-3.7915,-3.7685,-3.7792,0.0,0.0,0.0,0.0,0.0,-4.3923,-4.3905,-4.3968,-4.3749,-4.3497,0.0,0.0,0.0,-4.2808,-4.332,0.0,0.0,0.0,0.0,0.0,0.0,0.0,0.0,0.0,0.0,0.0,0.0,0.0,0.0,0.0,0.0,0.0,0.0,-4.3937,-4.3519,-4.4133,-4.4696,-4.513,-4.5251,-4.5303,-4.5303,-4.5389,-4.5423,-4.5423,-4.5423,-4.5423,-4.5423,-4.5423,-4.5423,-4.5423,-4.5423,-4.5423,-4.5423,-4.5423,-4.5423,-4.5423,-4.5423,-4.5423,-4.5423,-4.5423,-4.5423,-4.5423,-4.5423,-4.5423,-4.5423,0.0,-2.8182,-2.8182,-2.8182,-2.8327,-2.844,-2.8492,-2.9221,-2.9814,-2.9976,-3.0927,-3.1879,-3.272,-3.2813,-3.3096,-3.3729,-3.3785,-3.3762,-3.378,-3.3905,-3.3907,-3.3732,-3.4031,-3.4023,-3.3671,-3.3615,-3.3488,-3.328,-3.327,-3.3164,-3.3042,-3.3826,-3.4235,-3.4452,-3.5567,-3.6435,-3.7085,0.0,0.0,-3.8541,-3.8446,0.0,-3.8119,-3.7792,-3.7721,-3.7757,-3.7685,-3.7685,-3.7685,0.0,-3.7792,-3.8307,0.0,0.0,0.0,0.0,0.0,0.0,0.0,0.0,0.0,0.0,0.0,0.0,-4.2788,-4.2808,0.0,0.0,0.0,0.0,0.0,0.0,0.0,0.0,0.0,0.0,0.0,0.0,0.0,0.0,0.0,0.0,0.0,0.0,-4.3156,-4.3485,-4.3516,-4.3558,-4.3595,-4.4182,-4.4492,-4.4492,-4.5096,-4.5423,-4.5423,-4.5423,-4.5423,-4.5423,-4.5423,-4.5423,-4.5423,-4.5423,-4.5423,-4.5423,-4.5423,-4.5423,-4.5423,-4.5423,-4.5423,-4.5423,-4.5423,-4.5423,-4.5423,-4.5423,-4.5423,-4.5423,-2.8182,-2.8182,-2.8237,-2.8327,-2.8765,-2.9122,-2.9225,-3.01,-3.076,-3.0894,-3.176,-3.2692,-3.351,-3.3603,-3.3751,-3.416,-3.4197,-3.4197,-3.4197,-3.4197,-3.4148,-3.4049,-3.4148,-3.4023,-3.3605,-3.3698,-3.3569,-3.319,-3.322,-3.3394,-3.3647,-3.4168,-3.4717,-3.5291,-3.6181,-3.6908,-3.7455,0.0,-3.8153,-3.8382,-3.8252,0.0,-3.7984,-3.7721,-3.7577,-3.7577,-3.7577,-3.7577,-3.7577,-3.7577,-3.7685,0.0,0.0,-4.0184,-4.0887,0.0,-4.2986,-4.3224,0.0,0.0,0.0,-4.2742,0.0,0.0,0.0,-4.2729,-4.2957,0.0,0.0,0.0,0.0,0.0,0.0,0.0,0.0,0.0,0.0,0.0,0.0,0.0,0.0,0.0,0.0,0.0,-4.219,-4.2718,-4.2659,-4.275,-4.3197,-4.3577,-4.3939,-4.4268,-4.4647,-4.5044,-4.5423,-4.5423,-4.5423,-4.5423,-4.5423,-4.5423,-4.5423,-4.5423,-4.5423,-4.5423,-4.5423,-4.5423,-4.5423,-4.5423,-4.5423,-4.5423,-4.5423,-4.5423,-4.5423,-4.5423,-4.5423,-4.5423,-2.8264,-2.8264,-2.838,-2.8717,-2.9329,-2.9852,-3.0177,-3.1091,-3.1802,-3.1998,-3.2686,-3.3425,-3.4074,-3.4099,-3.4074,-3.4074,-3.403,-3.4055,-3.4148,-3.4055,-3.403,-3.4074,-3.4074,-3.3921,-3.353,-3.3704,-3.3691,-3.3424,-3.3432,-3.3813,-3.4551,-3.4713,-3.527,-3.6165,-3.67,-3.7217,-3.7703,0.0,0.0,-3.8186,0.0,-3.7915,-3.7949,-3.7649,-3.754,-3.7558,-3.7503,-3.7466,-3.7466,-3.7521,0.0,-3.7719,-3.878,-3.9554,0.0,0.0,0.0,0.0,0.0,0.0,0.0,0.0,0.0,-4.2555,0.0,0.0,0.0,-4.2673,0.0,0.0,0.0,0.0,0.0,0.0,0.0,0.0,0.0,0.0,0.0,0.0,0.0,0.0,0.0,0.0,-4.1331,-4.1781,-4.1767,-4.2061,-4.2748,-4.2921,-4.3266,-4.382,-4.3992,-4.4423,-4.5199,-4.5199,-4.5285,-4.5423,-4.5423,-4.5423,-4.5423,-4.5423,-4.5423,-4.5423,-4.5423,-4.5423,-4.5423,-4.5423,-4.5423,-4.5423,-4.5423,-4.5423,-4.5423,-4.5423,-4.5423,-4.5423,-2.8484,-2.8484,-2.8735,-2.9678,-2.9915,-3.0199,-3.0961,-3.1928,-3.2884,-3.3777,-3.3839,-3.381,-3.3902,-3.378,-3.3671,-3.3671,-3.3512,0.0,-3.3921,0.0,-3.3465,-3.3671,-3.3671,-3.353,-3.325,-3.4127,-3.4461,-3.4253,-3.4975,-3.5223,-3.513,-3.5827,-3.6221,-3.6399,-3.7167,-3.7542,-3.7613,0.0,-3.754,0.0,-3.741,-3.7649,0.0,-3.7503,-3.7334,-3.7297,-3.7126,-3.7066,-3.7105,0.0,-3.7334,-3.7514,0.0,-3.8785,0.0,0.0,0.0,0.0,0.0,0.0,0.0,0.0,-4.2157,0.0,0.0,0.0,-4.2391,-4.2351,0.0,-4.2002,-4.2002,0.0,0.0,0.0,0.0,0.0,0.0,0.0,0.0,0.0,0.0,0.0,0.0,0.0,0.0,-4.0991,-4.1009,-4.1043,-4.1129,-4.1767,-4.2164,-4.225,-4.2923,-4.3698,-4.4406,-4.4406,-4.4751,-4.5423,-4.5423,-4.5423,-4.5423,-4.5423,-4.5423,-4.5423,-4.5423,-4.5423,-4.5423,-4.5423,-4.5423,-4.5423,-4.5423,-4.5423,-4.5423,-4.5423,-4.5423,-4.5423,-2.9366,-2.9366,-2.9696,-3.0699,-3.1148,-3.1587,-3.217,-3.3007,-3.3685,-3.3986,-3.3947,-3.3895,-3.3895,0.0,0.0,0.0,0.0,-3.3379,0.0,0.0,-3.4068,-3.4233,-3.4814,-3.5002,-3.4609,-3.5181,-3.5253,-3.487,-3.5211,-3.5556,-3.5899,-3.6238,-3.6577,-3.693,-3.7397,0.0,-3.7279,0.0,-3.7577,0.0,0.0,0.0,0.0,-3.7317,-3.7143,-3.7105,-3.7027,-3.6987,-3.7009,0.0,-3.722,0.0,0.0,0.0,0.0,0.0,0.0,0.0,0.0,0.0,0.0,0.0,0.0,0.0,0.0,0.0,-4.2019,0.0,0.0,0.0,0.0,0.0,0.0,0.0,0.0,0.0,0.0,0.0,0.0,0.0,0.0,0.0,0.0,0.0,0.0,0.0,0.0,-4.0888,-4.0888,-4.1181,-4.1543,-4.1974,-4.2302,-4.2854,-4.363,-4.368,-4.4009,-4.4751,-4.4751,-4.4992,-4.5423,-4.5423,-4.5423,-4.5423,-4.5423,-4.5423,-4.5423,-4.5423,-4.5423,-4.5423,-4.5423,-4.5423,-4.5423,-4.5423,-4.5423,-4.5423,-3.068,-3.0527,-3.0661,-3.1715,-3.2184,-3.259,-3.3167,-3.3704,-3.3998,-3.3921,-3.3842,0.0,-3.3734,-3.3559,0.0,0.0,-3.3124,-3.3019,0.0,0.0,-3.4281,-3.4449,-3.5442,0.0,0.0,-3.5883,-3.5927,-3.5543,-3.5757,-3.6167,-3.672,-3.672,-3.6969,-3.7372,-3.754,-3.7392,-3.7105,0.0,0.0,-3.7411,-3.722,-3.7203,-3.7281,-3.7009,-3.6869,-3.6811,-3.6811,-3.6811,-3.6811,-3.6908,-3.7027,0.0,-3.7027,0.0,0.0,0.0,0.0,0.0,-4.1492,0.0,0.0,0.0,0.0,0.0,0.0,0.0,0.0,0.0,0.0,0.0,0.0,0.0,-4.1065,-4.0839,0.0,0.0,0.0,0.0,0.0,0.0,0.0,0.0,0.0,0.0,0.0,0.0,-4.0888,-4.0888,-4.0888,-4.0888,-4.1129,-4.1664,-4.1681,-4.2061,-4.2837,-4.2854,-4.3233,-4.3975,-4.4182,-4.4578,-4.5113,-4.5337,-4.5423,-4.5423,-4.5423,-4.5423,-4.5423,-4.5423,-4.5423,-4.5423,-4.5423,-4.5423,-4.5423,-4.5423,-4.5423,-4.5423,-3.2426,-3.1821,-3.1547,0.0,0.0,-3.273,-3.3721,-3.3734,0.0,0.0,0.0,0.0,0.0,0.0,0.0,0.0,0.0,-3.2283,-3.2702,0.0,-3.3635,0.0,0.0,-3.5135,0.0,0.0,-3.6399,-3.6363,-3.7131,-3.7523,-3.7541,-3.7541,-3.7559,-3.7577,-3.7594,-3.7484,-3.7297,-3.7297,-3.7083,-3.6742,-3.6742,-3.6585,-3.6385,0.0,-3.6544,-3.6343,-3.6343,0.0,0.0,-3.6643,-3.6702,0.0,0.0,0.0,0.0,0.0,0.0,0.0,0.0,0.0,0.0,-4.1411,0.0,0.0,0.0,0.0,-4.1604,0.0,0.0,0.0,0.0,-4.1041,-4.0676,-3.9853,-4.0417,0.0,0.0,0.0,0.0,0.0,0.0,0.0,0.0,0.0,0.0,-4.0888,-4.0888,-4.0888,-4.0888,-4.0888,-4.0888,-4.0905,-4.0922,-4.1267,-4.2026,-4.2026,-4.2423,-4.3266,-4.3991,-4.4285,-4.4337,-4.5079,-4.5423,-4.5423,-4.5423,-4.5423,-4.5423,-4.5423,-4.5423,-4.5423,-4.5423,-4.5423,-4.5423,-4.5423,-4.5423,-4.5423,0.0,-3.3191,0.0,0.0,0.0,0.0,0.0,-3.3643,0.0,0.0,0.0,0.0,0.0,0.0,-3.2716,0.0,0.0,-3.3085,-3.372,-3.4434,0.0,0.0,0.0,-3.6738,0.0,0.0,0.0,0.0,-3.7342,-3.741,-3.741,-3.7259,-3.7203,-3.7203,-3.7334,-3.722,0.0,0.0,0.0,0.0,0.0,-3.6544,-3.6301,0.0,0.0,-3.6301,-3.6301,-3.6301,0.0,-3.6402,-3.6544,-3.6684,-3.6568,-3.7039,-3.7633,-3.7686,-3.8231,0.0,0.0,0.0,-3.973,-4.0613,0.0,0.0,0.0,0.0,0.0,0.0,0.0,0.0,0.0,-4.0965,-4.0802,-4.0526,-4.0698,-4.0784,0.0,0.0,0.0,0.0,0.0,0.0,0.0,0.0,0.0,-4.0888,-4.0888,-4.0888,0.0,-4.0888,-4.0888,-4.0888,-4.0888,-4.1009,-4.125,-4.125,-4.163,-4.2388,-4.2647,-4.3285,-4.4285,-4.4544,-4.4941,-4.5423,-4.5423,-4.5423,-4.5423,-4.5423,-4.5423,-4.5423,-4.5423,-4.5423,-4.5423,-4.5423,-4.5423,-4.5423,-3.388,0.0,0.0,0.0,0.0,0.0,0.0,0.0,0.0,0.0,-3.2943,0.0,-3.2977,0.0,-3.3003,0.0,-3.3624,-3.3717,-3.4202,-3.5044,0.0,-3.558,-3.6761,0.0,0.0,0.0,0.0,0.0,0.0,-3.7182,-3.7182,-3.7066,-3.6987,-3.7027,-3.7143,-3.7005,-3.6702,0.0,-3.6869,0.0,0.0,-3.6444,0.0,0.0,-3.6301,-3.6301,0.0,-3.6301,-3.6301,-3.6301,-3.6402,-3.6544,-3.6343,-3.6839,-3.7404,-3.7145,-3.7602,-3.829,-3.8502,-3.8503,0.0,-3.9695,-3.9783,0.0,-4.0481,0.0,0.0,0.0,0.0,0.0,0.0,0.0,-4.0784,-4.0509,-4.0457,-4.0371,0.0,-4.006,0.0,0.0,0.0,0.0,0.0,0.0,-4.0888,-4.0888,-4.0888,-4.0888,0.0,0.0,-4.0888,-4.0888,-4.0888,-4.0888,-4.0888,-4.0888,-4.1129,-4.1595,-4.1854,-4.2509,-4.3475,-4.3751,-4.4302,-4.501,-4.501,-4.5182,-4.5423,-4.5423,-4.5423,-4.5423,-4.5423,-4.5423,-4.5423,-4.5423,-4.5423,-4.5423,0.0,0.0,0.0,0.0,-3.368,0.0,0.0,0.0,-3.2993,0.0,-3.282,-3.2924,-3.3406,-3.3494,-3.3756,-3.43,-3.4229,0.0,-3.4197,-3.5052,0.0,0.0,-3.6387,-3.6908,-3.6702,0.0,0.0,0.0,0.0,-3.6987,-3.6987,-3.697,-3.6987,-3.6987,-3.6987,0.0,-3.6702,-3.6702,-3.6544,-3.6301,-3.6301,-3.6301,-3.6301,-3.6301,-3.6301,-3.6301,-3.6301,-3.6301,-3.6301,-3.6301,-3.6301,-3.6301,-3.6301,-3.6301,-3.6301,-3.6301,-3.6301,-3.6498,-3.7478,-3.7577,-3.7698,-3.8677,0.0,0.0,0.0,0.0,-3.9853,0.0,0.0,0.0,0.0,0.0,0.0,-3.9767,-3.9646,-3.9388,-3.8681,-3.8594,0.0,0.0,0.0,0.0,0.0,-4.0802,-4.0819,-4.0819,-4.0853,-4.0888,0.0,0.0,-4.0888,-4.0888,-4.0888,-4.0888,-4.0888,-4.0888,-4.0888,-4.0888,-4.1595,-4.194,-4.2009,-4.2768,-4.3509,-4.4234,-4.4234,-4.4647,-4.5372,-4.5372,-4.5389,-4.5423,-4.5423,-4.5423,-4.5423,-4.5423,-4.5423,-4.5423,-3.353,-3.3549,-3.3386,0.0,-3.316,-3.3448,0.0,0.0,0.0,0.0,-3.3107,-3.3087,-3.3075,-3.3575,-3.4216,-3.4898,-3.4944,0.0,0.0,0.0,0.0,-3.6008,-3.6522,-3.6725,-3.6702,-3.6908,0.0,-3.6987,0.0,-3.6766,-3.6766,-3.6568,-3.6468,-3.6468,-3.6667,-3.6626,-3.6402,-3.6602,-3.6544,-3.6301,-3.6301,-3.6301,0.0,0.0,-3.6301,-3.6301,-3.6301,-3.6301,-3.6301,-3.6301,-3.6301,-3.6301,-3.6301,-3.6301,-3.6301,-3.6301,-3.6301,-3.6353,-3.6609,-3.6636,-3.6826,-3.7664,-3.781,-3.7974,0.0,0.0,0.0,0.0,0.0,0.0,0.0,0.0,0.0,-3.8905,-3.887,-3.8819,0.0,0.0,0.0,-3.8594,0.0,0.0,0.0,-3.9681,-4.0008,-4.0008,-4.0543,-4.0888,0.0,0.0,0.0,-4.0888,-4.0888,-4.0888,-4.0888,-4.0888,-4.0888,-4.0888,-4.1078,-4.1457,-4.1992,-4.2199,-4.2716,-4.3508,-4.3508,-4.3871,-4.4578,-4.4578,-4.4906,-4.5423,-4.5423,-4.5423,-4.5423,-4.5423,-4.5423,-4.5423,-3.316,0.0,0.0,-3.2998,0.0,0.0,-3.3255,0.0,0.0,-3.3206,-3.3425,0.0,-3.3869,-3.43,-3.4869,-3.5611,-3.568,0.0,0.0,0.0,0.0,-3.6301,-3.6444,-3.6544,-3.6544,-3.665,0.0,-3.6673,0.0,-3.6544,-3.6502,-3.6343,-3.6301,-3.6301,-3.6444,-3.6444,-3.6301,-3.6444,-3.6444,-3.6301,-3.6301,0.0,0.0,-3.6301,-3.6301,-3.6301,-3.6301,-3.6301,-3.6301,-3.6301,-3.6301,-3.6301,-3.6301,-3.6301,-3.6301,-3.6301,-3.6301,-3.6301,-3.6301,-3.6301,-3.6404,-3.6853,-3.6973,-3.7163,-3.7922,-3.8112,-3.8198,0.0,0.0,0.0,0.0,0.0,0.0,-3.8163,-3.7818,0.0,0.0,0.0,0.0,0.0,0.0,0.0,0.0,-3.8577,-3.9215,-3.9215,-3.9629,-4.0026,0.0,0.0,0.0,-4.0871,-4.0888,-4.0888,-4.0888,-4.0888,-4.0888,-4.0888,-4.0888,-4.1095,-4.1509,-4.1509,-4.1923,-4.2664,-4.2664,-4.3095,-4.3802,-4.3802,-4.4044,-4.4475,-4.4803,-4.513,-4.5423,-4.5423,-4.5423,-4.5423,0.0,0.0,0.0,0.0,0.0,0.0,0.0,-3.3397,0.0,-3.3375,0.0,-3.4473,-3.5128,-3.5283,-3.5594,-3.6232,0.0,-3.6301,-3.6259,-3.6216,-3.6216,-3.6216,-3.6216,-3.6259,-3.6301,-3.6301,0.0,0.0,0.0,-3.6301,-3.6301,-3.6301,-3.6301,-3.6301,-3.6301,0.0,0.0,-3.6301,-3.6301,-3.6301,-3.6301,-3.6301,-3.6301,-3.6301,-3.6301,-3.6301,-3.6259,-3.6259,-3.6301,-3.6301,-3.6301,-3.6301,-3.6301,-3.6301,-3.6301,-3.6301,-3.6301,-3.6301,-3.6301,-3.6301,-3.6301,-3.6301,-3.6301,-3.6473,-3.7163,-3.7318,-3.7508,-3.8102,-3.8239,-3.8122,0.0,0.0,0.0,0.0,0.0,0.0,0.0,0.0,0.0,0.0,0.0,0.0,0.0,0.0,-3.8439,-3.8439,-3.8543,-3.887,0.0,0.0,0.0,-4.056,-4.0578,0.0,-4.0716,0.0,-4.0784,-4.0888,-4.0888,-4.0888,-4.0888,-4.0888,-4.1233,-4.1836,-4.1836,-4.2285,-4.3059,-4.3059,-4.3128,-4.3283,-4.3939,-4.4596,-4.5285,-4.5285,-4.5337,-4.5423,0.0,0.0,0.0,0.0,0.0,-3.3242,-3.3271,-3.3339,-3.3494,-3.3878,-3.4565,-3.5059,-3.518,-3.5732,-3.6163,-3.6284,-3.6301,0.0,0.0,0.0,0.0,-3.5915,-3.5915,-3.6045,-3.6301,-3.6301,-3.6301,0.0,0.0,-3.6301,-3.6301,-3.6301,-3.6301,-3.6301,-3.6301,0.0,-3.6301,-3.6301,0.0,-3.6301,-3.6301,-3.6301,-3.6301,-3.6301,-3.6301,-3.6259,-3.6002,-3.6088,-3.6301,-3.6301,-3.6301,-3.6301,-3.6301,-3.6301,-3.6301,-3.6301,-3.6301,-3.6301,-3.6301,-3.6301,-3.6301,-3.6301,-3.6301,-3.6335,-3.6473,-3.6508,-3.6457,-3.6317,-3.6307,-3.6174,-3.5765,0.0,0.0,0.0,0.0,0.0,0.0,0.0,0.0,0.0,0.0,0.0,0.0,0.0,0.0,0.0,0.0,0.0,0.0,0.0,0.0,0.0,-3.8991,0.0,0.0,0.0,-4.0233,-4.0888,-4.0888,-4.0888,-4.0888,-4.0888,-4.0957,-4.1078,-4.1078,-4.1509,-4.2199,-4.2199,-4.2578,-4.3232,-4.337,-4.382,-4.4475,-4.4475,-4.4889,-4.5423,0.0,0.0,0.0,0.0,0.0,0.0,0.0,-3.3195,0.0,-3.4041,-3.4908,-3.5412,-3.5239,-3.5693,-3.5898,-3.5537,-3.5537,-3.5493,-3.5481,-3.5481,-3.5616,-3.5975,-3.58,0.0,-3.6045,-3.5854,-3.581,-3.6045,0.0,-3.6131,-3.6301,-3.6301,-3.6301,-3.6301,-3.6131,-3.6045,0.0,0.0,0.0,-3.6045,-3.6216,-3.6301,-3.6301,-3.6301,-3.6216,-3.6028,-3.5871,-3.5766,-3.5766,-3.5985,-3.6045,-3.6088,-3.6259,-3.6301,-3.6301,-3.6301,-3.6174,-3.6045,-3.6045,-3.6045,-3.6045,-3.6045,-3.6174,-3.6259,-3.6088,-3.6045,-3.5958,-3.5543,-3.5498,-3.5407,-3.5224,-3.5224,0.0,0.0,0.0,0.0,0.0,0.0,0.0,0.0,0.0,0.0,0.0,0.0,0.0,0.0,0.0,0.0,0.0,0.0,0.0,0.0,0.0,0.0,0.0,0.0,0.0,-4.0267,-4.0681,-4.0888,-4.0888,-4.0888,-4.0888,-4.0888,-4.0888,-4.1078,-4.1405,-4.1405,-4.1871,-4.2561,-4.2561,-4.3026,-4.3749,-4.3749,-4.394,-4.4371,0.0,-3.208,0.0,0.0,-3.2589,0.0,-3.2597,-3.3102,-3.3584,-3.3877,-3.4829,-3.5391,-3.5068,-3.5283,-3.5283,-3.4783,-3.4719,-3.4783,-3.4878,-3.4894,-3.5191,-3.5756,-3.547,-3.5424,-3.5677,-3.5362,-3.5362,0.0,0.0,-3.5873,-3.5958,-3.6172,-3.6259,-3.6174,0.0,0.0,0.0,0.0,-3.5722,-3.581,-3.6088,-3.6259,-3.6301,-3.6216,-3.6045,-3.5783,-3.5633,-3.5362,-3.5131,-3.5453,-3.5677,-3.5871,-3.6131,-3.6259,-3.6301,-3.6199,-3.6002,-3.5766,-3.5677,-3.5677,-3.5677,-3.5677,-3.5854,-3.5985,-3.5722,-3.5677,-3.5543,-3.5178,-3.5038,-3.4991,-3.5085,-3.5038,0.0,0.0,0.0,0.0,0.0,0.0,0.0,0.0,0.0,0.0,0.0,0.0,0.0,0.0,0.0,-3.6577,-3.7198,-3.7232,0.0,0.0,0.0,-3.818,-3.8353,0.0,-3.9543,0.0,-4.0509,-4.0888,-4.0888,-4.0888,-4.0888,-4.0888,-4.0888,-4.0888,-4.0888,-4.0888,-4.1233,-4.175,-4.175,-4.2233,-4.2973,-4.2973,-4.3026,-4.3337,0.0,0.0,0.0,0.0,0.0,0.0,0.0,-3.3176,-3.2935,-3.3237,-3.4019,-3.4528,-3.4479,-3.4528,-3.4528,-3.4431,-3.4431,-3.4301,-3.3969,-3.3919,-3.4086,-3.448,-3.4431,-3.4658,-3.5224,-3.5224,-3.5224,0.0,0.0,-3.5453,-3.4772,-3.583,-3.6131,0.0,0.0,0.0,0.0,-3.527,-3.5453,-3.5827,-3.581,-3.6045,-3.6259,-3.5958,-3.5827,-3.5722,-3.5055,-3.4787,-3.4739,-3.4787,-3.5241,-3.5827,-3.5827,-3.6045,-3.6259,-3.5958,-3.581,-3.5722,-3.5362,-3.527,-3.527,-3.527,-3.527,-3.5316,-3.527,-3.527,-3.5178,-3.4835,-3.4448,-3.4284,-3.4691,-3.4448,-3.4431,0.0,0.0,0.0,0.0,0.0,0.0,0.0,0.0,0.0,0.0,-3.5854,0.0,0.0,0.0,-3.6335,-3.6404,-3.6404,-3.6439,-3.6508,0.0,-3.687,-3.7577,-3.8318,-3.9026,-3.9698,-4.0509,-4.0888,-4.0888,-4.0888,-4.0888,-4.0888,-4.0888,-4.0888,-4.0888,-4.0888,-4.0922,-4.0991,-4.0991,-4.144,-4.2095,-4.2095,-4.2543,-4.3249,0.0,0.0,0.0,0.0,0.0,0.0,0.0,-3.2636,-3.2783,-3.2719,-3.3473,-3.3969,-3.3748,-3.3935,-3.3869,-3.3559,-3.3507,-3.3491,-3.3459,-3.3459,-3.3665,-3.4235,-3.4034,-3.4084,-3.4333,-3.4152,-3.4152,0.0,0.0,-3.516,-3.5115,-3.5701,-3.581,0.0,0.0,-3.5055,-3.4913,-3.4913,-3.5008,-3.5195,-3.5633,-3.5722,-3.5677,-3.5766,-3.5515,-3.5102,-3.4787,-3.4546,-3.4349,-3.4349,-3.4675,-3.5195,-3.5362,-3.5543,-3.5633,-3.5498,-3.5287,-3.5102,-3.4961,-3.4913,-3.4913,-3.4913,-3.5038,-3.5131,-3.4961,-3.4913,-3.4771,-3.4399,-3.4201,-3.4151,-3.43,-3.4399,-3.4497,0.0,0.0,0.0,0.0,0.0,0.0,0.0,0.0,0.0,0.0,0.0,-3.5362,0.0,0.0,-3.6002,-3.6002,-3.6002,-3.6002,-3.6002,0.0,-3.6139,-3.6464,-3.7036,-3.7628,-3.8357,-3.9137,-3.9895,-4.0534,-4.0534,-4.068,-4.0888,-4.0888,-4.0888,-4.0888,-4.0888,-4.0888,-4.0888,-4.0888,-4.106,-4.1319,-4.1319,-4.1526,-4.1854,-3.0774,0.0,-3.1837,0.0,-3.2317,-3.2767,-3.1828,-3.2284,-3.2648,-3.2453,-3.2964,-3.3282,-3.3065,-3.3245,-3.323,-3.2773,-3.2773,-3.2796,-3.2949,-3.2933,-3.3198,-3.3767,-3.3575,0.0,-3.3646,-3.3435,-3.3435,-3.3646,-3.4219,0.0,-3.4609,-3.5009,0.0,0.0,-3.4723,-3.4546,-3.4497,-3.4448,-3.4497,-3.4739,-3.5287,-3.5379,-3.5224,-3.5316,-3.5085,-3.4691,-3.4497,-3.425,-3.4101,-3.4101,-3.43,-3.4594,-3.4961,-3.5131,-3.5178,-3.5085,-3.4883,-3.4691,-3.4546,-3.4546,-3.4546,-3.4546,-3.4723,-3.4802,-3.4594,-3.4546,-3.4448,-3.4151,-3.4101,-3.4101,-3.4101,-3.4349,-3.4448,-3.43,0.0,0.0,0.0,0.0,0.0,0.0,0.0,-3.4349,-3.4497,0.0,0.0,0.0,0.0,0.0,-3.5633,-3.5633,0.0,0.0,0.0,0.0,0.0,-3.6118,-3.6614,-3.7116,-3.8137,-3.9042,-3.9816,-4.0019,-4.0271,-4.0517,-4.0517,-4.0614,-4.0728,-4.0728,-4.0776,-4.0888,-4.0888,-4.0888,-4.0888,-4.0888,-4.0888,-4.0957,-3.0321,-3.0815,-3.1315,-3.1402,-3.1435,-3.1682,-3.2275,-3.2382,-3.2398,-3.2398,-3.2398,-3.2398,-3.2398,-3.2382,-3.2382,-3.2398,-3.2398,-3.2398,-3.2398,-3.2398,-3.2578,0.0,0.0,-3.3058,-3.3309,-3.3309,-3.3309,-3.3309,0.0,0.0,-3.2772,0.0,-3.4107,-3.4691,-3.4448,-3.425,-3.4101,-3.3797,-3.4101,-3.4691,-3.4691,-3.4913,-3.5131,-3.4529,-3.4497,-3.4594,-3.3949,-3.3899,-3.4101,-3.4101,-3.4101,-3.4201,-3.4594,-3.4913,-3.5131,-3.4771,-3.4691,-3.4594,-3.4201,-3.4101,-3.4101,-3.4101,-3.4101,-3.4101,-3.4101,-3.4101,-3.4101,-3.4101,-3.4101,-3.4101,-3.4101,-3.4101,-3.425,-3.4643,0.0,0.0,0.0,0.0,0.0,0.0,-3.4448,-3.4546,-3.4151,0.0,0.0,0.0,0.0,0.0,0.0,0.0,0.0,-3.5224,-3.5224,0.0,-3.5224,-3.5978,-3.641,-3.6444,-3.7919,-3.8623,-3.864,-3.9292,-3.9594,-3.961,-3.961,-3.9885,-4.0305,-4.0305,-4.0534,-4.0888,-4.0888,-4.0888,-4.0888,-4.0888,-4.0888,-4.0888,-3.0974,-3.1203,-3.1523,-3.2006,-3.2074,-3.2136,-3.2367,-3.2398,-3.2398,-3.2398,-3.2798,-3.3075,-3.3075,-3.3075,-3.3275,0.0,-3.3367,-3.3075,0.0,-3.2644,-3.2453,-3.2523,-3.2578,-3.2578,-3.2672,-3.2687,-3.2687,-3.2687,0.0,0.0,0.0,-3.3909,-3.3957,-3.3761,-3.3848,-3.3745,-3.3555,-3.345,-3.3555,-3.3745,-3.4018,-3.4018,-3.3933,-3.3968,-3.3866,-3.3745,-3.3694,-3.3745,-3.3848,-3.405,-3.4101,-3.4101,-3.405,-3.4234,-3.4431,-3.4349,-3.43,-3.425,-3.4151,-3.4101,-3.405,-3.3848,-3.3949,-3.405,-3.3848,-3.3949,-3.4101,-3.4101,-3.3949,-3.3848,-3.3848,-3.3848,-3.3797,-3.3745,-3.3949,0.0,0.0,0.0,0.0,0.0,0.0,-3.425,0.0,-3.4333,0.0,0.0,0.0,0.0,0.0,0.0,0.0,0.0,-3.4866,0.0,-3.4866,-3.5114,-3.5333,-3.5594,-3.6785,-3.7914,-3.8891,-3.9354,-3.961,-3.961,-3.961,-3.9662,-3.9833,-3.9833,-3.9885,-4.002,-4.002,-4.002,-4.0037,-4.037,-4.0485,-4.0534,-3.1305,-3.1582,-3.1905,-3.2321,-3.2398,-3.2398,-3.2398,-3.2613,-3.2782,-3.2782,-3.3383,-3.3906,-3.4152,-3.4183,0.0,-3.446,-3.406,-3.369,-3.3413,-3.3013,-3.2659,-3.2398,-3.2398,-3.2398,-3.2398,0.0,0.0,-3.2398,-3.2841,-3.3161,-3.3471,-3.3694,-3.3591,-3.3309,-3.3361,-3.3346,-3.3309,-3.3203,-3.3203,-3.3309,-3.3523,-3.3471,-3.3293,-3.3419,-3.3366,-3.3309,-3.3361,-3.345,-3.3555,-3.3745,-3.3797,-3.3745,-3.3607,-3.3642,-3.3797,-3.3797,-3.3797,-3.3797,-3.3797,-3.3797,-3.3745,-3.3607,-3.3658,-3.3761,-3.3607,-3.371,-3.3797,-3.3797,-3.3658,-3.3555,-3.3555,-3.3555,-3.3503,-3.3361,-3.3607,-3.3745,-3.3555,0.0,0.0,0.0,0.0,0.0,0.0,-3.3797,0.0,0.0,0.0,0.0,0.0,0.0,0.0,-3.4448,-3.4448,0.0,-3.4448,-3.4448,-3.4578,-3.4781,-3.6029,-3.7359,-3.8766,-3.9061,-3.9259,-3.9365,-3.9206,-3.9295,-3.961,-3.9454,-3.9454,-3.961,-3.961,-3.961,-3.9662,-3.9952,-4.0138,-4.0355,-3.1459,-3.1967,0.0,0.0,-3.2398,0.0,-3.2459,-3.2998,-3.3413,-3.3475,-3.4091,-3.4783,-3.5414,-3.5522,-3.5291,-3.466,0.0,0.0,0.0,-3.346,-3.3121,-3.249,-3.2413,-3.2398,-3.2398,-3.2398,-3.2398,-3.2398,-3.2398,-3.2578,-3.2843,-3.2897,-3.3005,-3.324,-3.3005,-3.3005,-3.324,-3.2951,-3.2989,-3.3256,-3.3256,-3.3256,-3.3203,-3.2951,-3.3043,-3.3203,-3.3005,-3.3058,-3.3256,-3.3309,-3.3309,-3.3309,-3.3309,-3.3256,-3.3256,-3.3309,-3.3309,-3.3309,-3.3309,-3.3309,-3.3309,-3.3309,-3.3256,-3.3309,-3.3309,-3.3309,-3.3309,-3.3309,-3.3309,-3.3256,-3.3256,-3.3256,-3.324,-3.324,-3.324,-3.3309,-3.3256,0.0,0.0,0.0,0.0,0.0,0.0,-3.3309,-3.3309,0.0,0.0,0.0,0.0,0.0,-3.3797,-3.4101,-3.4101,-3.4101,-3.4101,-3.4151,-3.4167,-3.4232,-3.5623,-3.7015,-3.8327,-3.8432,-3.8655,-3.8969,-3.86,-3.8898,-3.9558,-3.9169,-3.9222,-3.9558,-3.9506,-3.9506,-3.9489,-3.961,-3.9901,-4.0238,0.0,0.0,-3.2398,-3.2398,-3.2398,-3.2567,-3.309,-3.3306,-3.3598,-3.4152,-3.4814,-3.5306,-3.546,-3.5953,-3.6184,-3.603,-3.5537,-3.5168,-3.4999,-3.3998,-3.3336,-3.3167,-3.2675,-3.2398,-3.2398,-3.2398,-3.2398,-3.2398,-3.2398,-3.2453,-3.2523,-3.2773,-3.2773,-3.2617,-3.2827,-3.2773,-3.2617,-3.2578,-3.2578,-3.2617,-3.2617,-3.2617,-3.2617,-3.2523,-3.2578,-3.2633,-3.2827,-3.2951,-3.3005,-3.3256,-3.3309,-3.324,-3.3058,-3.3005,-3.3058,-3.3256,-3.3309,-3.3309,-3.3309,-3.3309,-3.3256,-3.3058,-3.3005,-3.3058,-3.3256,-3.3309,-3.3309,-3.3309,-3.315,-3.3005,-3.3005,-3.3005,-3.2935,-3.2617,-3.3011,-3.3203,-3.3005,-3.315,0.0,0.0,-3.3309,-3.3309,-3.3309,-3.3309,-3.3203,0.0,0.0,0.0,0.0,-3.3293,-3.3607,-3.4101,-3.4101,-3.4101,-3.4101,-3.4399,-3.4808,-3.5349,-3.6007,-3.6756,-3.7598,-3.8449,-3.8914,-3.9023,-3.9206,-3.9401,-3.9558,-3.9169,-3.9077,-3.9115,-3.8805,-3.8694,-3.875,-3.9348,-3.9662,-3.9885,-3.2398,-3.2398,-3.2398,-3.2398,-3.2398,-3.2628,-3.3306,-3.369,-3.4152,-3.4845,-3.5522,-3.5953,-3.5953,-3.6276,-3.6492,-3.6492,-3.6153,-3.5814,-3.5507,-3.4491,-3.3752,-3.3413,-3.2752,-3.2398,-3.2398,-3.2398,-3.2398,-3.2398,-3.2398,-3.2398,-3.2398,-3.2578,-3.2578,-3.2398,-3.2578,-3.2578,-3.2398,-3.2398,-3.2398,-3.2398,-3.2398,-3.2398,-3.2398,-3.2398,-3.2398,-3.2398,-3.2594,-3.2648,-3.2703,-3.285,-3.2904,-3.285,-3.2703,-3.2648,-3.2703,-3.285,-3.2904,-3.2904,-3.2904,-3.2904,-3.285,-3.2703,-3.2648,-3.2703,-3.285,-3.2904,-3.2904,-3.2904,-3.2757,-3.2648,-3.2648,-3.2648,-3.2594,-3.2453,-3.2672,-3.285,-3.2703,-3.2812,0.0,-3.2904,-3.2904,-3.2904,-3.2904,-3.2904,-3.285,-3.2703,0.0,0.0,-3.2897,-3.315,-3.3503,-3.3899,-3.405,-3.4101,-3.4101,-3.43,-3.4758,-3.546,-3.6036,-3.6659,-3.7339,-3.8274,-3.8821,-3.9023,-3.9061,-3.9169,-3.9312,-3.8914,-3.8821,-3.8969,-3.856,-3.86,-3.9007,-3.9206,-3.9575,-4.0003,-3.2287,-3.2342,-3.2398,-3.2287,-3.2419,-3.2782,-3.346,-3.4168,-3.486,-3.5537,-3.6138,-3.6492,-3.6492,-3.6492,-3.6492,-3.6492,-3.6492,-3.6245,-3.5676,-3.4999,-3.4306,-3.3598,-3.2906,-3.249,-3.2398,-3.2398,-3.2398,-3.2398,-3.2398,-3.2398,-3.2398,-3.2398,-3.2398,-3.2398,-3.2398,-3.2398,-3.2398,-3.2398,-3.2398,-3.2398,-3.2398,-3.2398,-3.2398,-3.2398,-3.2398,-3.2398,-3.2398,-3.2398,-3.2398,-3.2398,-3.2398,-3.2398,-3.2398,-3.2398,-3.2398,-3.2398,-3.2398,-3.2398,-3.2398,-3.2398,-3.2398,-3.2398,-3.2398,-3.2398,-3.2398,-3.2398,-3.2398,-3.2398,-3.2398,-3.2398,-3.2398,-3.2398,-3.2398,-3.2398,-3.2398,-3.2398,-3.2398,0.0,-3.2398,-3.2398,-3.2398,-3.2398,-3.2398,-3.2398,-3.2398,-3.2398,-3.2398,-3.2523,-3.2843,-3.3096,-3.3346,-3.3555,-3.3899,-3.4101,-3.4101,-3.4101,-3.4408,-3.5024,-3.5898,-3.661,-3.7193,-3.8075,-3.8655,-3.8969,-3.8711,-3.875,-3.9077,-3.8655,-3.8711,-3.8969,-3.856,-3.8805,-3.9401,-3.9115,-3.9451,-4.0087,-3.1894,-3.212,-3.2287,-3.1894,-3.2577,-3.349,-3.4198,-3.4891,-3.5568,-3.6245,-3.643,-3.6492,-3.6492,-3.6492,-3.6492,-3.6492,-3.6492,-3.6445,-3.6338,-3.5707,-3.5029,-3.4337,-3.3629,-3.2982,-3.2398,-3.2398,-3.2398,-3.2398,-3.2398,-3.2398,-3.2398,-3.2398,-3.2398,-3.2398,-3.2398,-3.2398,-3.2398,-3.2398,-3.2398,-3.2398,-3.2398,-3.2398,-3.2398,-3.2398,-3.2398,-3.2398,-3.2398,-3.2398,-3.2398,-3.2398,-3.2398,-3.2398,-3.2398,-3.2398,-3.2398,-3.2398,-3.2398,-3.2398,-3.2398,-3.2398,-3.2398,-3.2398,-3.2398,-3.2398,-3.2398,-3.2398,-3.2398,-3.2398,-3.2398,-3.2398,-3.2398,-3.2398,-3.2398,-3.2398,-3.2398,-3.2398,-3.2398,0.0,-3.2398,-3.2398,-3.2398,-3.2398,-3.2398,-3.2398,-3.2398,-3.2398,-3.2398,-3.2398,-3.2453,-3.2773,-3.3005,-3.3005,-3.3694,-3.4101,-3.4101,-3.4101,-3.4165,-3.4279,-3.5655,-3.6367,-3.6513,-3.8177,-3.8914,-3.9023,-3.9312,-3.9454,-3.9454,-3.9061,-3.8914,-3.8969,-3.856,-3.8504,-3.86,-3.8914,-3.9077,-3.9222,-3.1116,-3.1537,-3.1766,-3.1379,-3.198,-3.2755,-3.3563,-3.4167,-3.4912,-3.5948,-3.6085,-3.6163,-3.6492,-3.6492,-3.6492,-3.6492,-3.6492,-3.6492,-3.6492,-3.5861,-3.5183,-3.4506,-3.3783,-3.309,-3.2398,-3.2398,-3.2398,-3.2398,-3.2398,-3.2398,-3.2398,-3.2398,-3.2398,-3.2398,-3.2398,-3.2398,-3.2398,-3.2398,-3.2398,-3.2398,-3.2398,-3.2398,-3.2398,-3.2398,-3.2398,-3.2398,-3.2398,-3.2398,-3.2398,-3.2398,-3.2398,-3.2398,-3.2398,-3.2398,-3.2398,-3.2398,-3.2398,-3.2398,-3.2398,-3.2398,-3.2398,-3.2398,-3.2398,-3.2398,-3.2398,-3.2398,-3.2398,-3.2398,-3.2398,-3.2398,-3.2398,-3.2398,-3.2398,-3.2398,-3.2398,0.0,0.0,-3.2398,-3.2398,-3.2398,-3.2398,-3.2398,-3.2398,-3.2398,-3.2398,-3.2398,-3.2398,-3.2398,-3.2398,-3.2718,-3.2897,-3.2897,-3.3555,-3.3899,-3.3899,-3.405,-3.4295,-3.47,-3.5785,-3.6497,-3.6886,-3.7945,-3.8399,-3.8399,-3.8407,-3.8407,-3.8407,-3.8197,-3.8383,-3.8717,-3.8303,-3.8415,-3.886,-3.8969,-3.9077,-3.9152,-3.0269,-3.0689,-3.1058,-3.0777,-3.1264,-3.1931,-3.2845,-3.3466,-3.4175,-3.5329,-3.5479,-3.5688,-3.6226,-3.6289,-3.6352,-3.6492,-3.6492,-3.6492,-3.6492,-3.5861,-3.5183,-3.4506,-3.3629,-3.2921,-3.2398,-3.2398,-3.2398,-3.2398,-3.2398,-3.2398,-3.2398,-3.2398,-3.2398,-3.2398,-3.2398,-3.2398,-3.2398,-3.2398,-3.2398,-3.2398,-3.2398,-3.2398,-3.2398,-3.2398,-3.2398,-3.2398,-3.2398,-3.2398,-3.2398,-3.2398,-3.2398,-3.2398,-3.2398,-3.2398,-3.2398,-3.2398,-3.2398,-3.2398,-3.2398,-3.2398,-3.2398,-3.2398,-3.2398,-3.2398,-3.2398,-3.2398,-3.2398,-3.2398,-3.2398,-3.2398,-3.2398,-3.2398,-3.2398,-3.2398,0.0,0.0,0.0,-3.2398,-3.2398,-3.2398,-3.2398,-3.2398,-3.2398,-3.2398,-3.2398,-3.2398,-3.2398,-3.2398,-3.2398,-3.2648,-3.2773,-3.2773,-3.3346,-3.3607,-3.3607,-3.3973,-3.443,-3.4977,-3.5894,-3.6587,-3.7118,-3.7566,-3.7754,-3.777,-3.7535,-3.7417,-3.7417,-3.7417,-3.7738,-3.8238,-3.7927,-3.827,-3.8882,-3.8662,-3.8717,-3.892,-2.9484,-2.978,-3.0086,-2.9931,-3.0773,-3.1827,-3.2842,-3.3539,-3.4224,-3.4853,-3.4942,-3.5139,-3.5688,-3.5752,-3.5958,-3.6429,-3.6492,-3.6492,-3.6492,-3.5861,-3.5183,-3.4506,-3.3183,-3.2444,-3.2398,-3.2398,-3.2398,-3.2398,-3.2398,-3.2398,-3.2398,-3.2398,-3.2398,-3.2398,-3.2398,-3.2398,-3.2398,-3.2398,-3.2398,-3.2398,-3.2398,-3.2398,-3.2398,-3.2398,-3.2398,-3.2398,-3.2398,-3.2398,-3.2398,-3.2398,-3.2398,-3.2398,-3.2398,-3.2398,-3.2398,-3.2398,-3.2398,-3.2398,-3.2398,-3.2398,-3.2398,-3.2398,-3.2398,-3.2398,-3.2398,-3.2398,-3.2398,-3.2398,-3.2398,-3.2398,-3.2398,-3.2398,-3.2398,-3.2398,0.0,0.0,-3.2398,-3.2398,-3.2398,-3.2398,-3.2398,-3.2398,-3.2398,-3.2398,-3.2398,-3.2398,-3.2398,-3.2398,-3.2398,-3.2398,-3.2453,-3.2453,-3.3011,-3.3361,-3.3361,-3.3994,-3.4343,-3.4406,-3.5767,-3.6432,-3.6511,-3.7175,-3.7417,-3.7417,-3.7417,-3.7417,-3.7417,-3.7417,-3.7401,-3.746,-3.7476,-3.7653,-3.7943,-3.7653,-3.7695,-3.7927,-2.8638,-2.9008,-2.9387,-2.9085,-2.9617,-3.0361,-3.1062,-3.1604,-3.2248,-3.3187,-3.3245,-3.3425,-3.3984,-3.4047,-3.425,-3.479,-3.4851,-3.4973,-3.5245,-3.4743,-3.4285,-3.3844,-3.2906,-3.2398,-3.2398,-3.2398,-3.2398,-3.2398,-3.2398,-3.2398,-3.2398,-3.2398,-3.2398,-3.2398,-3.2398,-3.2398,-3.2398,-3.2398,-3.2398,-3.2398,-3.2398,-3.2398,-3.2398,-3.2398,-3.2398,-3.2398,-3.2398,-3.2398,-3.2398,-3.2398,-3.2398,-3.2398,-3.2398,-3.2398,-3.2398,-3.2398,-3.2398,-3.2398,-3.2398,-3.2398,-3.2398,-3.2398,-3.2398,-3.2398,-3.2398,-3.2398,-3.2398,-3.2398,-3.2398,-3.2398,-3.2398,-3.2398,-3.2398,-3.2398,0.0,-3.2398,-3.2398,-3.2398,-3.2398,-3.2398,-3.2398,-3.2398,-3.2398,-3.2398,-3.2398,-3.2398,-3.2398,-3.2398,-3.2398,-3.2398,-3.2398,-3.2398,-3.3036,-3.349,-3.3654,-3.4085,-3.4723,-3.5631,-3.6111,-3.6643,-3.7038,-3.7084,-3.715,-3.7165,-3.6907,-3.6831,-3.6831,-3.6831,-3.6968,-3.715,-3.715,-3.7225,-3.7329,-3.7373,-3.7373,-3.7329,-2.7934,-2.8262,-2.8573,-2.8471,-2.8702,-2.9151,-2.9769,-3.0113,-3.0712,-3.1767,-3.1823,-3.2055,-3.2679,-3.2742,-3.3007,-3.3501,-3.3577,-3.3774,-3.4224,-3.3757,-3.3364,-3.3184,-3.2696,-3.2398,-3.2398,-3.2398,-3.2398,-3.2398,-3.2398,-3.2398,-3.2398,-3.2398,-3.2398,-3.2398,-3.2398,-3.2398,-3.2398,-3.2398,-3.2398,-3.2398,-3.2398,-3.2398,-3.2398,-3.2398,-3.2398,-3.2398,-3.2398,-3.2398,-3.2398,-3.2398,-3.2398,-3.2398,-3.2398,-3.2398,-3.2398,-3.2398,-3.2398,-3.2398,-3.2398,-3.2398,-3.2398,-3.2398,-3.2398,-3.2398,-3.2398,-3.2398,-3.2398,-3.2398,-3.2398,-3.2398,-3.2398,-3.2398,-3.2398,-3.2398,-3.2398,-3.2398,-3.2398,-3.2398,-3.2398,-3.2398,-3.2398,-3.2398,-3.2398,-3.2398,-3.2398,-3.2398,-3.2398,-3.2398,-3.2398,-3.2398,-3.249,-3.2705,-3.3167,-3.3728,-3.4421,-3.4591,-3.5174,-3.6084,-3.6334,-3.6695,-3.7134,-3.6923,-3.6816,-3.6816,-3.6616,-3.6492,-3.6492,-3.6492,-3.6631,-3.6816,-3.6816,-3.6877,-3.6999,-3.7089,-3.7089,-3.6999,-2.7523,-2.7523,-2.7603,-2.8013,-2.8079,-2.8411,-2.9321,-2.9469,-2.9806,-3.0744,-3.0881,-3.1216,-3.2055,-3.2213,-3.2454,-3.2963,-3.2948,-3.3225,-3.3759,-3.311,-3.2673,-3.2673,-3.2512,-3.2398,-3.2398,-3.2398,-3.2398,-3.2398,-3.2398,-3.2398,-3.2398,-3.2398,-3.2398,-3.2398,-3.2398,-3.2398,-3.2398,-3.2398,-3.2398,-3.2398,-3.2398,-3.2398,-3.2398,-3.2398,-3.2398,-3.2398,-3.2398,-3.2398,-3.2398,-3.2398,-3.2398,-3.2398,-3.2398,-3.2398,-3.2398,-3.2398,-3.2398,-3.2398,-3.2398,-3.2398,-3.2398,-3.2398,-3.2398,-3.2398,-3.2398,-3.2398,-3.2398,-3.2398,-3.2398,-3.2398,-3.2398,-3.2398,-3.2398,-3.2398,-3.2398,-3.2398,-3.2398,-3.2398,-3.2398,-3.2398,-3.2398,-3.2398,-3.2398,-3.2398,-3.2398,-3.2398,-3.2398,-3.2398,-3.2398,-3.2398,-3.2705,-3.3383,-3.3413,-3.4091,-3.5476,-3.5476,-3.549,-3.5533,-3.6184,-3.6492,-3.6492,-3.6492,-3.6492,-3.6492,-3.6492,-3.6492,-3.6492,-3.6492,-3.6492,-3.6492,-3.6492,-3.6693,-3.6954,-3.6616,-3.6693,-3.6938,-2.7523,-2.7523,-2.7536,-2.7669,-2.7669,-2.7868,-2.8438,-2.8544,-2.8729,-2.9234,-2.9313,-2.9378,-2.9624,-2.9688,-2.9867,-3.0332,-3.0597,-3.0906,-3.1302,-3.1471,-3.1545,-3.1545,-3.1772,-3.2064,-3.2398,-3.2398,-3.2398,-3.2398,-3.2398,-3.2398,-3.2398,-3.2398,-3.2398,-3.2398,-3.2398,-3.2398,-3.2398,-3.2398,-3.2398,-3.2398,-3.2398,-3.2398,-3.2398,-3.2398,-3.2398,-3.2398,-3.2398,-3.2398,-3.2398,-3.2398,-3.2398,-3.2398,-3.2398,-3.2398,-3.2398,-3.2398,-3.2398,-3.2398,-3.2398,-3.2398,-3.2398,-3.2398,-3.2398,-3.2398,-3.2398,-3.2398,-3.2398,-3.2398,-3.2398,-3.2398,-3.2398,-3.2398,-3.2398,-3.2398,-3.2398,-3.2398,-3.2398,-3.2398,-3.2398,-3.2398,-3.2398,-3.2398,-3.2398,-3.2398,-3.2398,-3.2398,-3.2398,-3.2398,-3.2398,-3.2844,-3.3183,-3.3398,-3.4352,-3.506,-3.5476,-3.5476,-3.5767,-3.6215,-3.6384,-3.6492,-3.6492,-3.6492,-3.6492,-3.6492,-3.6492,-3.6492,-3.6492,-3.6492,-3.6492,-3.6492,-3.6492,-3.6554,-3.6631,-3.6554,-3.6554,-3.6616,-2.7523,-2.7523,-2.7523,-2.7523,-2.7523,-2.7603,-2.7815,-2.7868,-2.8,-2.8327,-2.8406,-2.8471,-2.8587,-2.8587,-2.8716,-2.9008,-2.9373,-2.9623,-2.9637,-3.0054,-3.0343,-3.0343,-3.0584,-3.1175,-3.212,-3.1936,-3.1936,-3.212,-3.212,-3.2231,-3.2398,-3.2398,-3.2398,-3.2398,-3.2398,-3.2287,-3.212,-3.2342,-3.2287,-3.212,-3.2342,-3.2398,-3.2398,-3.2398,-3.2398,-3.2398,-3.2398,-3.2287,-3.212,-3.212,-3.2007,-3.1879,-3.2048,-3.212,-3.2176,-3.2342,-3.2398,-3.2398,-3.2398,-3.2398,-3.2398,-3.2398,-3.2398,-3.2398,-3.2398,-3.2398,-3.2398,-3.2398,-3.2398,-3.2398,-3.2398,-3.2398,-3.2398,-3.2398,-3.2398,-3.2398,-3.2398,-3.2398,-3.2398,-3.2398,-3.2398,-3.2398,-3.2398,-3.2398,-3.2398,-3.2398,-3.2644,-3.2798,-3.2798,-3.346,-3.3952,-3.4214,-3.5045,-3.5614,-3.5876,-3.5891,-3.6091,-3.6492,-3.6492,-3.6492,-3.6492,-3.6492,-3.6492,-3.6492,-3.6492,-3.6492,-3.6492,-3.6492,-3.6492,-3.6492,-3.6492,-3.6492,-3.6492,-3.6492,-3.6492,-3.6492,-2.7523,-2.7523,-2.7523,-2.7523,-2.7523,-2.7523,-2.7523,-2.7523,-2.7603,-2.8013,-2.8079,-2.8145,-2.8457,-2.8522,-2.8522,-2.8522,-2.8944,-2.9008,-2.8651,-2.9008,-2.9247,-2.931,-2.9247,-2.9917,-3.1437,-3.1131,-3.1131,-3.1552,-3.1552,-3.1781,-3.2216,-3.2272,-3.2272,-3.2272,-3.2382,-3.212,-3.1739,-3.2176,-3.2064,-3.1667,-3.2104,-3.2272,-3.2272,-3.2272,-3.2272,-3.2272,-3.2272,-3.2007,-3.1682,-3.1682,-3.1379,-3.1073,-3.1495,-3.1625,-3.1724,-3.216,-3.2272,-3.2272,-3.2272,-3.2287,-3.2342,-3.2342,-3.2398,-3.2398,-3.2398,-3.2398,-3.2398,-3.2398,-3.2398,-3.2342,-3.2342,-3.2272,-3.2287,-3.2342,-3.2342,-3.2342,-3.2398,-3.2398,-3.2398,-3.2398,-3.2398,-3.2398,-3.2398,-3.2444,-3.249,-3.249,-3.3121,-3.3506,-3.3506,-3.4168,-3.4889,-3.5445,-3.5537,-3.5876,-3.6492,-3.6492,-3.6492,-3.6492,-3.6492,-3.6492,-3.6492,-3.6492,-3.6492,-3.6492,-3.6492,-3.6492,-3.6492,-3.6492,-3.6492,-3.6492,-3.6492,-3.6492,-3.6492,-3.6492,-3.6492,-3.6492,-2.7523,-2.7523,-2.7523,-2.7523,-2.7523,-2.7523,-2.7523,-2.7523,-2.7523,-2.7603,-2.7603,-2.7669,-2.7723,-2.7723,-2.7723,-2.7723,-2.8131,-2.8457,-2.8587,-2.8716,-2.8894,-2.931,-2.8944,-2.9071,-2.978,-3.0086,-3.0269,-3.0375,-3.0375,-3.0435,-3.054,-3.1188,-3.1477,-3.1477,-3.2145,-3.212,-3.1739,-3.1781,-3.161,-3.1146,-3.1248,-3.1306,-3.1306,-3.1306,-3.1306,-3.1306,-3.1306,-3.1495,-3.1682,-3.1682,-3.1379,-3.1029,-3.1146,-3.1146,-3.1146,-3.1248,-3.1306,-3.1306,-3.1306,-3.1537,-3.1838,-3.1838,-3.212,-3.2398,-3.2398,-3.2398,-3.2398,-3.2398,-3.212,-3.1838,-3.1838,-3.1552,-3.1422,-3.1781,-3.1838,-3.1951,-3.2342,-3.2398,-3.2398,-3.2398,-3.2398,-3.2398,-3.2398,-3.2875,-3.3183,-3.3183,-3.3844,-3.4245,-3.4245,-3.4932,-3.5334,-3.5488,-3.6014,-3.6338,-3.6492,-3.6492,-3.6492,-3.6492,-3.6492,-3.6492,-3.6492,-3.6492,-3.6492,-3.6492,-3.6492,-3.6492,-3.6492,-3.6492,-3.6492,-3.6492,-3.6492,-3.6492,-3.6492,-3.6492,-3.6492,-3.6492,-2.7523,-2.7523,-2.7523,-2.7523,-2.7523,-2.7523,-2.7523,-2.7523,-2.7523,-2.7523,-2.7523,-2.7523,-2.7523,-2.7523,-2.7523,-2.7523,-2.7669,-2.7868,-2.8066,-2.8066,-2.8183,-2.8417,-2.8183,-2.8183,-2.8417,-2.8648,-2.9093,-2.9656,-2.9656,-2.978,-3.0011,-3.0421,-3.0659,-3.0645,-3.1203,-3.1233,-3.0837,-3.1204,-3.1087,-3.0673,-3.0911,-3.1029,-3.1029,-3.1029,-3.1029,-3.1029,-3.1029,-3.1029,-3.1029,-3.0792,-3.0553,-3.0372,-3.0613,-3.0673,-3.0732,-3.0911,-3.1029,-3.1029,-3.1029,-3.1204,-3.1379,-3.1379,-3.1537,-3.1766,-3.2007,-3.2231,-3.2342,-3.212,-3.2064,-3.2007,-3.2007,-3.1823,-3.1766,-3.2007,-3.1838,-3.1796,-3.2007,-3.2064,-3.2064,-3.2064,-3.2287,-3.2521,-3.2844,-3.3198,-3.3552,-3.3891,-3.4568,-3.4997,-3.501,-3.5582,-3.6013,-3.6013,-3.6338,-3.6492,-3.6492,-3.6492,-3.6492,-3.6492,-3.6492,-3.6492,-3.6492,-3.6492,-3.6492,-3.6492,-3.6492,-3.6492,-3.6492,-3.6492,-3.6492,-3.6492,-3.6492,-3.6492,-3.6492,-3.6492,-3.6492,-3.6492,-2.7323,-2.739,-2.739,-2.7456,-2.7523,-2.7523,-2.7523,-2.7523,-2.7523,-2.7523,-2.7523,-2.7523,-2.7523,-2.7523,-2.7523,-2.7523,-2.7523,-2.7523,-2.7523,-2.7523,-2.7523,-2.7523,-2.7523,-2.7523,-2.7523,-2.7523,-2.7973,-2.898,-2.898,-2.9156,-2.958,-2.9704,-2.9766,-2.9827,-3.0208,-3.0162,-2.9747,-3.0418,-3.0478,-3.0129,-3.0553,-3.0718,-3.0792,-3.0792,-3.0792,-3.0792,-3.0792,-3.0493,-3.0144,-2.9837,-2.9665,-2.9665,-3.0083,-3.0205,-3.0266,-3.0673,-3.0792,-3.0792,-3.0792,-3.0792,-3.0911,-3.0911,-3.097,-3.1087,-3.1379,-3.1838,-3.2048,-3.1667,-3.1838,-3.2048,-3.2048,-3.1992,-3.1977,-3.2104,-3.1838,-3.1625,-3.1781,-3.1853,-3.1853,-3.1853,-3.2267,-3.2844,-3.3521,-3.369,-3.3998,-3.4599,-3.5276,-3.5675,-3.5658,-3.6215,-3.6492,-3.6492,-3.6492,-3.6492,-3.6492,-3.6492,-3.6492,-3.6492,-3.6492,-3.6492,-3.6492,-3.6492,-3.6492,-3.6492,-3.6492,-3.6492,-3.6492,-3.6492,-3.6492,-3.6492,-3.6492,-3.6492,-3.6492,-3.6492,-3.6492,-3.6492,-2.6714,-2.6794,-2.6918,-2.739,-2.7523,-2.7523,-2.7523,-2.7523,-2.7523,-2.7523,-2.7523,-2.7523,-2.7523,-2.7523,-2.7523,-2.7523,-2.7523,-2.7523,-2.7523,-2.7523,-2.7523,-2.7523,-2.7523,-2.7523,-2.7523,-2.7523,-2.759,-2.7723,-2.7723,-2.7776,-2.7829,-2.8597,-2.898,-2.898,-2.9718,-2.978,-2.9359,-2.9484,-2.9449,-2.9289,-2.9338,-2.9526,-2.9789,-2.9789,-2.9789,-2.9789,-2.9789,-2.9727,-2.9727,-3.0083,-2.9974,-2.9602,-2.9665,-2.9665,-2.9727,-2.9789,-2.9789,-2.9789,-2.9789,-3.0083,-3.0372,-3.0372,-3.0732,-3.0911,-3.0553,-3.0837,-3.119,-3.1087,-3.0851,-3.0598,-3.0598,-3.0251,-3.0251,-3.1073,-3.1146,-3.1379,-3.2176,-3.2287,-3.2287,-3.2287,-3.2849,-3.3537,-3.426,-3.486,-3.5245,-3.5337,-3.5984,-3.6353,-3.6338,-3.643,-3.6492,-3.6492,-3.6492,-3.6492,-3.6492,-3.6492,-3.6492,-3.6492,-3.6492,-3.6492,-3.6492,-3.6492,-3.6492,-3.6492,-3.6492,-3.6492,-3.6492,-3.6492,-3.6492,-3.6492,-3.6492,-3.6492,-3.6492,-3.6492,-3.6492,-3.6492,-2.622,-2.622,-2.6358,-2.6552,-2.6837,-2.7053,-2.7053,-2.7323,-2.7523,-2.7523,-2.7523,-2.7523,-2.7523,-2.7523,-2.7523,-2.7523,-2.7523,-2.7523,-2.7523,-2.7523,-2.7523,-2.7523,-2.7523,-2.7523,-2.7523,-2.7523,-2.7523,-2.7523,-2.7523,-2.7523,-2.7523,-2.7908,-2.8105,-2.8105,-2.8675,-2.8803,-2.8624,-2.883,-2.8894,-2.8844,-2.8844,-2.8908,-2.9035,-2.9035,-2.9162,-2.9352,-2.954,-2.9602,-2.9602,-2.9851,-2.9789,-2.9602,-2.9602,-2.9602,-2.9602,-2.9602,-2.9602,-2.9602,-2.9602,-2.9727,-2.9898,-2.9898,-3.0083,-3.0144,-2.996,-3.0083,-3.0312,-3.0553,-3.0673,-3.0673,-3.0673,-3.0493,-3.0493,-3.0911,-3.0792,-3.0718,-3.119,-3.1248,-3.1541,-3.2437,-3.3148,-3.3951,-3.4968,-3.5306,-3.5645,-3.6014,-3.6322,-3.6492,-3.6492,-3.6492,-3.6492,-3.6492,-3.6492,-3.6492,-3.6492,-3.6492,-3.6492,-3.6492,-3.6492,-3.6492,-3.6492,-3.6492,-3.6492,-3.6492,-3.6492,-3.6492,-3.6492,-3.6492,-3.6492,-3.6492,-3.6492,-3.6492,-3.6492,-3.6492,-3.6492,-3.6492]}]]